     2.11           OBSERVATION DATA    G (GPS)             RINEX VERSION / TYPE
teqc 2010Oct21 OPUS Account 20111026 16:41:08UTC            PGM / RUN BY / DATE
J 1523                                                      MARKER NAME
1189                                                        MARKER NUMBER
CSMIDDLETON NGS                                             OBSERVER / AGENCY
0220280359 TRIMBLE 5700 NP 2.32 / SP 2.32                   REC # / TYPE / VERS
11885611 TRM41249.00 NONE                                   ANT # / TYPE
  -749977.5981 -5511269.2021  3111260.5182                  APPROX POSITION XYZ
        1.9990        0.0000        0.0000                  ANTENNA: DELTA H/E/N
     1     1                                                WAVELENGTH FACT L1/2
     5    L1    L2    C1    P1    P2                        # / TYPES OF OBSERV
  2011     8     2     0     0   30.0000000     GPS         TIME OF FIRST OBS
                                                            END OF HEADER
 11  8  2  0  0 30.0000000  0  7G17G02G10G09G04G27G28
 -82013653.32857 -63861203.15255  21594433.0234                   21594429.8284
 -33115912.98457 -25758044.05155  21673693.7194                   21673690.0084
 -17891383.81256 -13898058.50853  22712893.1484                   22712891.0744
 -29912925.81657 -23185830.32054  22006122.7664                   22006120.9264
 -62664506.10257 -48780395.72356  19823847.3674                   19823844.8364
 -43689934.80557 -33998778.71954  22337132.2974                   22337130.7624
-100453594.20357 -78241190.98454  22162548.4694                   22162546.0044
 11  8  2  0  1  0.0000000  0  8G17G02G12G10G09G04G27G28
 -82090236.36347 -63920878.27045  21579859.6094                   21579856.8984
 -33292390.57847 -25895559.01245  21640111.7274                   21640107.8014
   -307696.52056   -196627.93453  24300578.6254                   24300577.3014
 -18090170.84846 -14052957.42243  22675064.4924                   22675063.8014
 -30026659.87147 -23274454.24644  21984480.3284                   21984477.7544
 -62765094.82448 -48858776.53946  19804705.8444                   19804703.3134
 -43792608.43747 -34078784.15645  22317594.6174                   22317592.9804
-100499963.73447 -78277323.13344  22153725.1334                   22153722.2854
 11  8  2  0  1 30.0000000  0  8G17G02G12G10G09G04G27G28
 -82166678.86347 -63980443.86745  21565313.3054                   21565310.2384
 -33468466.73447 -26032761.18445  21606605.5314                   21606601.2234
   -515169.28146   -358294.97743  24261097.6884                   24261096.5044
 -18288712.52346 -14207665.12943  22637283.5864                   22637282.5984
 -30139698.44147 -23362536.25444  21962969.0784                   21962967.6094
 -62865082.86348 -48936689.28546  19785679.0314                   19785676.0704
 -43894747.64847 -34158373.15644  22298158.1644                   22298155.6994
-100545906.12547 -78313122.41844  22144982.0474                   22144979.6724
 11  8  2  0  2  0.0000000  0  8G17G02G12G10G09G04G27G28
 -82243004.62947 -64039918.51645  21550788.6414                   21550786.5234
 -33644164.69947 -26169668.64845  21573171.2114                   21573167.1024
   -722604.73846   -519932.85543  24221623.9304                   24221622.4734
 -18487029.60246 -14362197.83243  22599544.8054                   22599544.1174
 -30252066.29347 -23450095.63344  21941586.8594                   21941584.6884
 -62964495.81647 -49014153.91846  19766761.0634                   19766758.2774
 -43996377.58246 -34237565.32044  22278818.2664                   22278816.9964
-100591446.05947 -78348608.14144  22136316.1174                   22136313.8324
 11  8  2  0  2 30.0000000  0  8G17G02G12G10G09G04G27G28
 -80743794.23047 -62871702.63345  21836079.2424                   21836076.4224
 -32244060.82847 -25078678.57845  21839602.3364                   21839598.0204
    645423.02346    546062.88343  24481950.9534                   24481949.1764
 -17109695.12546 -13288950.12543  22861643.1094                   22861642.0744
 -28788343.19947 -22309532.17644  22220123.7894                   22220122.0204
 -61487914.69948 -47863571.22746  20047745.0864                   20047742.6134
 -42522078.76247 -33088761.06644  22559368.0004                   22559366.1604
 -99061165.99246 -77156182.16044  22427518.5704                   22427516.7894
 11  8  2  0  3  0.0000000  0  8G17G02G12G10G09G04G27G28
 -80819887.60547 -62930996.19945  21821599.3444                   21821596.3834
 -32419000.69947 -25214995.32045  21806312.5944                   21806308.2624
    438066.80546    384486.64143  24442493.5634                   24442490.3094
 -17307554.01646 -13443125.80944  22823991.6094                   22823990.5864
 -28899371.88347 -22396048.03544  22198996.1884                   22198994.0944
 -61586181.94547 -47940143.09846  20029045.5784                   20029042.9184
 -42622693.78546 -33167162.39844  22540221.8054                   22540219.2704
 -99105903.71947 -77191042.78144  22419005.7114                   22419003.0004
 11  8  2  0  3 30.0000000  0  8G17G02G12G10G09G04G27G28
 -80895853.74647 -62990190.62145  21807142.9064                   21807140.5824
 -32593548.89847 -25351006.86345  21773096.8914                   21773092.6054
    230764.39146    222952.40643  24403044.5164                   24403042.4304
 -17505167.77746 -13597110.46544  22786387.2734                   22786386.4534
 -29009720.70747 -22482034.14544  22177997.1414                   22177995.0044
 -61683867.11348 -48016261.40646  20010456.6174                   20010453.9774
 -42722791.46947 -33245160.61345  22521173.5944                   22521171.5354
 -99150229.71146 -77225582.55944  22410570.4064                   22410567.9774
 11  8  2  0  4  0.0000000  0  8G17G02G12G10G09G04G27G28
 -80971692.95747 -63049286.13345  21792711.5164                   21792709.2194
 -32767705.08647 -25486712.94145  21739956.4144                   21739952.1564
     23517.37146     61461.25443  24363606.2194                   24363603.9844
 -17702533.01246 -13750901.50044  22748829.3524                   22748828.8094
 -29119391.00447 -22567491.54744  22157127.4924                   22157125.2974
 -61780971.91847 -48091927.48046  19991977.8204                   19991975.6414
 -42822372.97346 -33322756.60244  22502224.5004                   22502222.2464
 -99194144.96947 -77259802.28544  22402214.0474                   22402210.9694
 11  8  2  0  4 30.0000000  0  8G17G02G12G10G09G04G27G28
 -81047401.69947 -63108279.97745  21778304.7424                   21778301.6804
 -32941465.18047 -25622110.37545  21706890.3134                   21706886.6134
   -183669.89146    -99983.31243  24324180.0234                   24324178.6564
 -17899643.27746 -13904493.85944  22711321.0234                   22711319.3244
 -29228380.07447 -22652418.10544  22136387.6564                   22136385.8284
 -61877494.66048 -48167140.01246  19973610.8984                   19973608.2034
 -42921436.07047 -33399948.64844  22483372.6954                   22483370.7624
 -99237647.02047 -77293700.02044  22393935.9924                   22393933.0984
 11  8  2  0  5  0.0000000  0  8G17G02G12G10G09G04G27G28
 -81122979.92647 -63167172.11745  21763922.4774                   21763920.1174
 -33114828.35247 -25757198.50845  21673900.0164                   21673896.4224
   -390795.02046   -261379.44943  24284765.0944                   24284763.1644
 -18096495.37946 -14057885.06244  22673860.5474                   22673859.7544
 -29336688.38747 -22736814.19544  22115777.2194                   22115775.0204
 -61973436.16848 -48241899.62546  19955353.6884                   19955351.0554
 -43019981.54347 -33476737.35544  22464620.7424                   22464618.6914
 -99280736.12147 -77327275.96944  22385736.4304                   22385734.1484
 11  8  2  0  5 30.0000000  0  8G17G02G12G10G09G04G27G28
 -81198426.28547 -63225961.50845  21749565.6884                   21749563.3834
 -33287792.21147 -25891975.50045  21640986.7114                   21640982.8834
   -597854.84846   -422724.71543  24245362.8444                   24245360.9384
 -18293084.56646 -14211071.36744  22636450.8364                   22636450.1844
 -29444315.48047 -22820679.48444  22095296.5704                   22095294.6174
 -62068796.99648 -48316206.76246  19937207.0634                   19937204.7344
 -43118009.32447 -33553122.67244  22445966.3204                   22445964.6414
 -99323411.98047 -77360529.94144  22377614.9924                   22377612.6454
 11  8  2  0  6  0.0000000  0  8G17G02G12G10G09G04G27G28
 -81273734.92247 -63284643.59045  21735235.0704                   21735232.2274
 -33460350.12947 -26026436.18445  21608150.0634                   21608145.7034
   -804841.41446   -584012.88343  24205974.5944                   24205972.7584
 -18489401.24646 -14364045.34844  22599093.2424                   22599092.3634
 -29551256.10247 -22904009.84444  22074946.0084                   22074943.9964
 -62163572.15648 -48390057.53146  19919171.7974                   19919169.1094
 -43215514.05147 -33629100.40644  22427412.2194                   22427410.1374
 -99365668.86347 -77393457.39544  22369574.4534                   22369571.7194
 11  8  2  0  6 30.0000000  0  8G17G02G12G10G09G04G27G28
 -81348908.78147 -63343220.63345  21720929.6024                   21720927.3634
 -33632504.53147 -26160582.43745  21575390.1094                   21575385.8284
  -1011756.12146   -745245.05143  24166600.9224                   24166597.8054
 -18685445.41046 -14516807.00444  22561787.7114                   22561786.1914
 -29657514.20747 -22986808.39544  22054726.1954                   22054724.0044
 -62257766.34048 -48463455.60246  19901247.2424                   19901244.9844
 -43312500.05147 -33704673.93744  22408956.1564                   22408954.7114
 -99407510.68047 -77426061.46144  22361611.7734                   22361609.6374
 11  8  2  0  7  0.0000000  0  8G17G02G12G10G09G04G27G28
 -81423946.27747 -63401691.42245  21706650.9924                   21706648.2544
 -33804253.12147 -26294412.47345  21542706.8594                   21542702.8914
  -1218595.46946   -906418.54343  24127239.9144                   24127236.9494
 -18881211.97746 -14669352.33644  22524533.9774                   22524532.6724
 -29763088.98447 -23069074.45744  22034635.7034                   22034633.7704
 -62351379.36348 -48536400.81246  19883432.8834                   19883430.8714
 -43408966.84847 -33779842.91444  22390599.2504                   22390597.7814
 -99448936.59846 -77458341.42644  22353729.1724                   22353726.2384
 11  8  2  0  7 30.0000000  0  8G17G02G12G10G09G04G27G28
 -81498843.48047 -63460052.89145  21692398.1334                   21692395.6024
 -33975590.98447 -26427922.45745  21510102.4064                   21510098.4384
  -1425353.64146  -1067528.78943  24087894.5864                   24087892.5704
 -19076693.94146 -14821675.88744  22487334.9064                   22487334.3444
 -29867977.45347 -23150805.73444  22014675.9534                   22014674.3674
 -62444409.05948 -48608891.47746  19865730.4694                   19865727.8984
 -43504911.98847 -33854605.39844  22372341.4144                   22372339.9184
 -99489943.10547 -77490294.59444  22345925.9694                   22345923.3524
 11  8  2  0  8  0.0000000  0  8G17G02G12G10G09G04G27G28
 -81573601.34847 -63518305.78145  21678172.3834                   21678169.8714
 -34146518.76247 -26561112.90245  21477576.3754                   21477572.2424
  -1632029.84846  -1228575.10243  24048565.7734                   24048563.4964
 -19271888.68746 -14973775.63344  22450190.4844                   22450189.6684
 -29972181.53147 -23232003.73044  21994846.6484                   21994844.3874
 -62536857.80948 -48680929.46146  19848137.7344                   19848135.3204
 -43600337.43447 -33928962.91444  22354182.9614                   22354181.0274
 -99530532.23447 -77521922.54344  22338202.3754                   22338199.6454
 11  8  2  0  8 30.0000000  0  8G17G02G12G10G09G04G27G28
 -81648220.62947 -63576450.68445  21663972.7734                   21663970.1094
 -34317036.34847 -26693983.71545  21445128.0004                   21445123.6334
  -1838622.55546  -1389556.41843  24009252.5864                   24009249.4264
 -19466793.53946 -15125649.48043  22413101.7974                   22413100.1054
 -30075702.66847 -23312669.54744  21975147.2734                   21975145.7154
 -62628727.70347 -48752516.39846  19830655.9694                   19830653.4264
 -43695244.85247 -34002916.78144  22336122.7114                   22336120.5234
 -99570705.52746 -77553226.44544  22330557.4774                   22330554.8794
 11  8  2  0  9  0.0000000  0  8G17G02G12G10G09G04G27G28
 -81722699.56247 -63634486.21145  21649799.7344                   21649797.0664
 -34487141.57047 -26826533.21545  21412757.7194                   21412753.1094
  -2045129.07846  -1550470.52043  23969955.4694                   23969952.7274
 -19661404.27046 -15277294.16444  22376068.9304                   22376067.1644
 -30178541.00847 -23392803.34444  21955578.2974                   21955575.9614
 -62720018.88348 -48823652.37546  19813283.4614                   19813281.0004
 -43789634.07447 -34076466.85244  22318160.7424                   22318159.0824
 -99610462.21946 -77584205.72344  22322991.4924                   22322989.2114
 11  8  2  0  9 30.0000000  0  8G17G02G12G10G09G04G27G28
 -81797035.85247 -63692410.60245  21635654.4694                   21635651.6804
 -34656831.59047 -26958759.18045  21380466.8984                   21380462.5554
  -2251545.25046  -1711314.24643  23930675.0164                   23930673.1294
 -19855715.21146 -15428705.23844  22339093.2734                   22339091.2814
 -30280695.03947 -23472403.89144  21936138.7274                   21936136.8014
 -62810730.98048 -48894337.12946  19796021.2584                   19796019.1294
 -43883504.07047 -34149612.33644  22300297.8204                   22300295.8634
 -99649800.85547 -77614859.26244  22315505.4924                   22315502.8754
 11  8  2  0 10  0.0000000  0  8G17G02G12G10G09G04G27G28
 -80295806.79747 -62522621.72345  21921328.6884                   21921325.8484
 -33250679.71547 -25863056.38745  21648048.2814                   21648044.2034
   -882441.04346   -644479.73843  24191207.2894                   24191205.3284
 -18474295.88746 -14352274.54744  22601968.0084                   22601965.9924
 -28806741.89547 -22323869.00444  22216622.1024                   22216620.6524
 -61325441.75448 -47736968.90246  20078663.1724                   20078660.1174
 -42401432.35947 -32994751.28944  22582326.7034                   22582324.9734
 -98113300.38747 -76417586.22744  22607892.2584                   22607889.9344
 11  8  2  0 10 30.0000000  0  8G17G02G12G10G09G04G27G28
 -80369853.46947 -62580320.43045  21907237.8914                   21907234.8324
 -33419532.75047 -25994630.16045  21615916.7344                   21615913.0164
  -1088665.23846   -805173.87543  24151964.1724                   24151961.7934
 -18667992.24647 -14503206.72344  22565108.7424                   22565107.3714
 -28907525.60547 -22402401.78144  22197443.8204                   22197441.7584
 -61414995.28547 -47806750.86746  20061621.0394                   20061618.6804
 -42494262.77747 -33067086.72344  22564662.2194                   22564659.9224
 -98151800.48847 -76447586.31644  22600565.7194                   22600563.1334
 11  8  2  0 11  0.0000000  0  8G17G02G12G10G09G04G27G28
 -80443752.76247 -62637904.30545  21893175.5314                   21893172.6724
 -33587963.96947 -26125875.22745  21583865.4534                   21583861.2384
  -1294788.29746   -965789.19543  24112740.1804                   24112738.2384
 -18861373.87946 -14653893.65244  22528308.5234                   22528307.5784
 -29007623.50447 -22480400.17244  22178396.6724                   22178394.3244
 -61503969.53148 -47876081.44546  20044690.0314                   20044687.5004
 -42586572.98047 -33139016.77344  22547095.8524                   22547093.7734
 -98189880.04747 -76477258.78144  22593319.1564                   22593317.6844
 11  8  2  0 11 30.0000000  0  8G17G02G12G10G09G04G27G28
 -80517504.80947 -62695373.43445  21879140.9224                   21879137.9884
 -33755973.11747 -26256791.42245  21551894.1644                   21551890.5904
  -1500808.67646  -1126324.49643  24073536.2584                   24073533.9304
 -19054438.19146 -14804333.34444  22491570.3524                   22491568.7704
 -29107037.09847 -22557865.32844  22159478.8984                   22159476.6134
 -61592366.94147 -47944962.53146  20027868.2734                   20027866.0594
 -42678364.75047 -33210542.86344  22529628.3054                   22529626.9304
 -98227540.58646 -76506604.69944  22586153.3054                   22586150.5204
 11  8  2  0 12  0.0000000  0  8G17G02G12G10G09G04G27G28
 -80591108.96547 -62752727.32045  21865134.4304                   21865131.6054
 -33923559.07047 -26387377.84445  21520003.7424                   21519999.7464
  -1706723.91046  -1286777.89843  24034351.7034                   24034349.5784
 -19247181.22346 -14954522.66844  22454892.1884                   22454891.0554
 -29205766.76247 -22634797.55144  22140690.7344                   22140689.1454
 -61680188.17647 -48013394.66446  20011156.6804                   20011153.9184
 -42769638.59447 -33281665.37144  22512259.3134                   22512258.0664
 -98264782.35946 -76535624.29344  22579066.2584                   22579064.2624
 11  8  2  0 12 30.0000000  0  8G17G02G12G10G09G04G27G28
 -80664564.64847 -62809965.51645  21851156.8204                   21851153.6804
 -34090720.45747 -26517633.42645  21488193.9224                   21488190.0744
  -1912531.31646  -1447147.25043  23995187.8204                   23995185.5704
 -19439598.89846 -15104458.48444  22418276.0634                   22418275.3364
 -29303813.44147 -22711197.57444  22122033.2974                   22122031.0474
 -61767434.32848 -48081378.67646  19994554.3524                   19994551.4614
 -42860395.05947 -33352384.71944  22494988.8984                   22494987.4064
 -98301605.34846 -76564317.58244  22572059.2734                   22572056.8364
 11  8  2  0 13  0.0000000  0  8G17G02G12G10G09G04G27G28
 -80737868.78547 -62867085.63345  21837206.7424                   21837204.5514
 -34257453.82847 -26647555.48845  21456465.2274                   21456461.4774
  -2118225.86746  -1607428.63744  23956045.3834                   23956043.2154
 -19631684.95746 -15254135.87144  22381723.7734                   22381722.2664
 -29401175.23847 -22787063.94144  22103506.0704                   22103503.5474
 -61854104.18447 -48148913.61346  19978062.1174                   19978059.2704
 -42950632.88746 -33422699.93044  22477817.1024                   22477816.0274
 -98338007.59047 -76592683.02344  22565132.1094                   22565129.1374
 11  8  2  0 13 30.0000000  0  8G17G02G12G10G09G04G27G28
 -80811022.98847 -62924088.92245  21823286.4144                   21823283.3594
 -34423760.24647 -26777144.87145  21424818.4924                   21424814.3914
  -2323807.40646  -1767621.99244  23916924.7424                   23916922.1454
 -19823438.00446 -15403553.77044  22345233.7424                   22345233.0784
 -29497855.19547 -22862398.97344  22085108.5004                   22085106.0004
 -61940200.99248 -48216002.03946  19961677.6484                   19961675.2814
 -43040354.80147 -33492613.14544  22460743.8054                   22460742.0594
 -98373991.65247 -76620722.60244  22558284.7974                   22558282.8134
 11  8  2  0 14  0.0000000  0  8G17G02G12G10G09G04G27G28
 -80884026.90247 -62980975.10945  21809393.9224                   21809391.5904
 -34589639.75847 -26906401.58645  21393253.0084                   21393248.8524
  -2529273.71946  -1927725.53143  23877825.3984                   23877822.8524
 -20014854.71146 -15552709.58244  22308808.8204                   22308807.2624
 -29593854.98047 -22937204.02744  22066839.8984                   22066838.1054
 -62025726.73448 -48282645.47346  19945402.4924                   19945400.0434
 -43129562.46947 -33562125.64145  22443768.4614                   22443765.9534
 -98409558.15246 -76648436.84044  22551516.7734                   22551514.6764
 11  8  2  0 14 30.0000000  0  8G17G02G12G10G09G04G27G28
 -80956880.37947 -63037744.08645  21795530.2664                   21795527.9064
 -34755090.89547 -27035324.51645  21361768.4924                   21361764.1644
  -2734622.90246  -2087737.85543  23838748.3364                   23838746.4534
 -20205931.37946 -15701600.44144  22272447.9924                   22272446.5084
 -29689175.27747 -23011479.59844  22048701.7504                   22048699.3444
 -62110682.84448 -48348845.03946  19929235.9454                   19929233.6374
 -43218256.71947 -33631238.04744  22426890.7814                   22426888.2894
 -98444708.34446 -76675826.65644  22544828.1884                   22544825.7894
 11  8  2  0 15  0.0000000  0  8G17G02G12G10G09G04G27G28
 -81029584.89147 -63094396.98445  21781695.1334                   21781692.9384
 -34920114.89547 -27163914.59445  21330365.2814                   21330361.1134
  -2939854.85246  -2247658.75443  23799694.0234                   23799692.0704
 -20396666.48846 -15850225.14144  22236152.3524                   22236150.7974
 -29783819.02747 -23085227.99244  22030691.2114                   22030689.3594
 -62195072.37147 -48414603.11746  19913177.5084                   19913175.1604
 -43306440.63347 -33699952.82444  22410109.5944                   22410107.9964
 -98479444.85546 -76702894.12544  22538216.8284                   22538215.5164
 11  8  2  0 15 30.0000000  0  8G17G02G12G10G09G04G27G28
 -81102138.75047 -63150932.49645  21767888.9694                   21767886.3984
 -35084709.82847 -27292170.34445  21299044.0394                   21299039.7304
  -3144965.75446  -2407485.39143  23760662.7114                   23760660.2194
 -20587055.17646 -15998579.90644  22199922.5634                   22199920.9104
 -29877785.91847 -23158448.97344  22012810.2114                   22012808.1174
 -62278896.01248 -48479920.23846  19897225.8134                   19897223.9454
 -43394114.17247 -33768269.89144  22393425.5784                   22393424.1454
 -98513766.79346 -76729638.54743  22531687.0704                   22531684.4924
 11  8  2  0 16  0.0000000  0  8G17G02G12G10G09G04G27G28
 -81174539.46147 -63207348.65645  21754111.2584                   21754108.6024
 -35248873.00847 -27420089.67245  21267804.5784                   21267800.3834
  -3349950.83246  -2567213.93743  23721655.4384                   23721653.2274
 -20777091.91446 -16146660.40244  22163759.8134                   22163758.1294
 -29971075.07047 -23231141.85244  21995057.9224                   21995055.8714
 -62362152.90248 -48544795.74646  19881383.1564                   19881380.5634
 -43481276.39147 -33836188.53544  22376839.3834                   22376838.4344
 -98547672.49646 -76756058.64143  22525234.3204                   22525232.1294
 11  8  2  0 16 30.0000000  0  8G17G02G12G10G09G04G27G28
 -81246790.32847 -63263648.05945  21740362.3134                   21740360.1484
 -35412607.30947 -27547674.80145  21236646.8284                   21236642.8054
  -3554812.02346  -2726845.99643  23682671.3524                   23682669.2424
 -20966776.83246 -16294466.76244  22127664.0164                   22127661.8134
 -30063691.58247 -23303310.58644  21977433.4144                   21977431.3794
 -62444848.57447 -48609233.93746  19865646.3834                   19865643.8524
 -43567932.55147 -33903712.82844  22360348.9844                   22360347.6684
 -98581167.01246 -76782158.31644  22518861.2344                   22518858.0744
 11  8  2  0 17  0.0000000  0  8G17G02G12G10G09G04G27G28
 -79743468.97747 -62092228.85245  22026434.8444                   22026432.4924
 -34000486.78147 -26447321.09845  21505364.4924                   21505360.6214
  -2184120.57846  -1658774.69943  23943505.3914                   23943502.9804
 -19580680.47746 -15214391.62144  22391428.6804                   22391427.3204
 -28580214.10247 -22147354.12144  22259730.2034                   22259727.4414
 -60951562.07847 -47445634.06646  20149809.8054                   20149807.3914
 -42078661.22747 -32743241.69944  22643748.6024                   22643747.3284
 -97038829.84046 -75580337.21143  22812356.8914                   22812355.3164
 11  8  2  0 17 30.0000000  0  8G17G02G12G10G09G04G27G28
 -79815420.31647 -62148294.87145  22012743.4774                   22012740.8014
 -34163362.52747 -26574237.22745  21474370.3524                   21474366.2934
  -2388728.16446  -1818209.16043  23904570.1954                   23904567.3204
 -19769652.71146 -15361642.66044  22355468.7034                   22355466.7504
 -28671490.53147 -22218478.64145  22242360.6254                   22242358.6804
 -61033141.23047 -47509202.24646  20134285.5394                   20134283.0004
 -42164310.19147 -32809981.16445  22627449.6254                   22627448.5164
 -97071505.06646 -75605798.48043  22806139.8284                   22806137.3364
 11  8  2  0 18  0.0000000  0  8G17G02G12G10G09G04G27G28
 -79887221.43047 -62204243.81645  21999079.4144                   21999077.3404
 -34325808.24247 -26700818.27346  21443458.3364                   21443453.6884
  -2593205.60246  -1977542.19543  23865659.6174                   23865657.0554
 -19958263.20346 -15508611.80944  22319577.5004                   22319575.7074
 -28762098.69947 -22289082.42644  22225118.6414                   22225116.1994
 -61114164.70748 -47572337.42646  20118867.3524                   20118864.7384
 -42249457.48047 -32876329.72344  22611247.2734                   22611245.2504
 -97103772.08246 -75630941.66043  22799998.8204                   22799997.3834
 11  8  2  0 18 30.0000000  0  8G17G02G12G10G09G04G27G28
 -79958872.61347 -62260075.92645  21985444.9144                   21985442.8714
 -34487823.87547 -26827064.18745  21412627.4064                   21412622.9924
  -2797551.65246  -2136772.82843  23826772.9774                   23826770.8714
 -20146509.30546 -15655297.02744  22283755.3204                   22283753.6994
 -28852040.69147 -22359167.11344  22208002.5634                   22208001.7034
 -61194634.77047 -47635041.37946  20103554.1094                   20103551.5744
 -42334105.01647 -32942288.85944  22595139.0234                   22595137.7194
 -97135632.48046 -75655767.98443  22793937.1804                   22793934.8094
 11  8  2  0 19  0.0000000  0  8G17G02G12G10G09G04G27G28
 -80030374.65647 -62315791.81645  21971838.8914                   21971836.2734
 -34649409.75447 -26952975.22745  21381878.8984                   21381874.1644
  -3001764.67246  -2295899.83243  23787912.2034                   23787910.5354
 -20334388.53146 -15801696.37544  22248003.2424                   22248000.9884
 -28941318.94947 -22428734.61344  22191013.4454                   22191011.5784
 -61274554.09047 -47697316.18446  20088346.2034                   20088343.9654
 -42418255.13747 -33007860.39844  22579126.1094                   22579124.1024
 -97167087.68446 -75680278.62143  22787950.8914                   22787949.1334
 11  8  2  0 19 30.0000000  0  8G17G02G12G10G09G04G27G28
 -80101726.19547 -62371390.41845  21958260.8134                   21958258.9304
 -34810565.05947 -27078550.75045  21351211.6334                   21351207.2464
  -3205842.12946  -2454921.17643  23749077.8364                   23749076.3204
 -20521897.28947 -15947807.03944  22212321.3754                   22212319.5044
 -29029934.44147 -22497785.66844  22174151.4144                   22174148.3554
 -61353923.78547 -47759162.70746  20073242.5394                   20073240.2234
 -42501909.03947 -33073045.28944  22563206.5634                   22563205.8164
 -97198138.53146 -75704474.14543  22782042.6884                   22782040.5904
 11  8  2  0 20  0.0000000  0  8G17G02G12G10G09G04G27G28
 -80172930.19947 -62426874.08245  21944711.3204                   21944708.5164
 -34971291.64547 -27203792.21145  21320627.0314                   21320622.4304
  -3409784.41046  -2613837.17643  23710269.0164                   23710267.4804
 -20709034.65647 -16093628.31644  22176710.3204                   22176708.2814
 -29117891.52347 -22566323.69144  22157413.5004                   22157411.0594
 -61432748.46548 -47820584.52746  20058242.7814                   20058240.3054
 -42585070.80147 -33137846.70744  22547381.5864                   22547380.1094
 -97228788.59046 -75728357.38743  22776209.7734                   22776208.0984
 11  8  2  0 20 30.0000000  0  8G17G02G12G10G09G04G27G28
 -80243984.18047 -62482240.81645  21931190.1884                   21931188.0594
 -35131587.06647 -27328697.69945  21290123.4844                   21290119.0004
  -3613587.11346  -2772644.40643  23671485.8364                   23671485.0904
 -20895795.27047 -16239156.04744  22141171.2814                   22141169.1294
 -29205189.38347 -22634348.02344  22140801.1174                   22140799.1094
 -61511027.79747 -47881581.41046  20043346.8054                   20043344.7894
 -42667739.83247 -33202264.15244  22531650.7664                   22531649.0164
 -97259036.76646 -75751927.44543  22770452.9694                   22770451.5634
 11  8  2  0 21  0.0000000  0  8G17G02G12G10G09G04G27G28
 -80314893.43047 -62537494.78545  21917696.3134                   21917694.4344
 -35291456.84848 -27453271.52745  21259701.2974                   21259696.7894
  -3817254.02746  -2931345.81643  23632729.6564                   23632727.4734
 -21082181.61746 -16384392.10544  22105702.0314                   22105700.5984
 -29291835.80147 -22701864.71144  22124313.2114                   22124310.9694
 -61588769.53148 -47942159.39146  20028552.8364                   20028550.5784
 -42749923.52047 -33266303.43444  22516011.6414                   22516009.6994
 -97288889.97346 -75775189.75843  22764772.9144                   22764771.4884
 11  8  2  0 21 30.0000000  0  8G17G02G12G10G09G04G27G28
 -80385652.82447 -62592631.97745  21904231.0944                   21904229.2664
 -35450895.63747 -27577509.50845  21229360.9694                   21229356.3554
  -4020777.66846  -3089935.60243  23594000.6724                   23593998.3674
 -21268185.15647 -16529329.87944  22070307.1024                   22070306.1214
 -29377826.80547 -22768870.71144  22107949.4144                   22107947.1214
 -61665970.41048 -48002315.92246  20013862.1884                   20013860.1134
 -42831618.25447 -33329961.68744  22500466.0314                   22500464.1214
 -97318344.00446 -75798141.00843  22759167.3914                   22759166.4024
 11  8  2  0 22  0.0000000  0  8G17G02G12G10G09G04G27G28
 -80456263.71947 -62647653.46145  21890794.7584                   21890792.3754
 -35609904.56647 -27701412.53545  21199102.5314                   21199097.7584
  -4224157.79746  -3248413.55143  23555299.2034                   23555296.7664
 -21453804.57847 -16673968.32044  22034984.4694                   22034983.8754
 -29463165.98447 -22835368.79344  22091709.5394                   22091707.9734
 -61742634.03948 -48062053.80946  19999273.6564                   19999271.2274
 -42912827.35547 -33393241.54744  22485012.2504                   22485010.2624
 -97347401.69146 -75820783.42243  22753639.0784                   22753636.8524
 11  8  2  0 22 30.0000000  0  8G17G02G12G10G09G04G27G28
 -80526728.52047 -62702561.10245  21877385.9064                   21877383.1724
 -35768485.87147 -27824982.34845  21168925.3834                   21168920.7074
  -4427394.99246  -3406780.14144  23516624.6564                   23516622.1914
 -21639039.45346 -16818307.13744  21999736.2584                   21999734.1764
 -29547858.09447 -22901362.63344  22075593.5864                   22075591.8094
 -61818765.03148 -48121376.65646  19984786.2344                   19984784.0354
 -42993555.38747 -33456146.53144  22469649.7974                   22469648.2234
 -97376066.55946 -75843119.72743  22748184.5314                   22748181.8164
 11  8  2  0 23  0.0000000  0  8G17G02G12G10G09G04G27G28
 -80597042.32047 -62757351.09445  21864005.7664                   21864003.1414
 -35926634.83247 -27948215.28145  21138830.8594                   21138826.4384
  -4630482.69946  -3565030.25044  23477977.7814                   23477975.5164
 -21823881.87946 -16962340.14844  21964560.9224                   21964560.0744
 -29631900.05547 -22966849.89844  22059601.1954                   22059598.8914
 -61894360.97347 -48180282.59846  19970400.7584                   19970398.4384
 -43073799.43447 -33518674.40644  22454380.1884                   22454378.6804
 -97404336.07446 -75865147.98443  22742804.4774                   22742803.0274
 11  8  2  0 23 30.0000000  0  8G17G02G12G10G09G04G27G28
 -80667207.87947 -62812025.55545  21850653.2114                   21850650.9654
 -36084353.82847 -28071113.16845  21108817.5944                   21108813.2734
  -4833421.35246  -3723164.21144  23439360.0314                   23439357.6804
 -22008331.45347 -17106067.06244  21929462.1884                   21929460.3594
 -29715296.54347 -23031834.18444  22043730.7974                   22043729.0084
 -61969426.66047 -48238775.34446  19956116.1884                   19956114.1524
 -43153564.09847 -33580828.73044  22439201.3284                   22439199.9844
 -97432214.10546 -75886871.16043  22737499.8204                   22737497.5434
 11  8  2  0 24  0.0000000  0  8G17G02G12G10G09G04G27G28
 -80737225.56647 -62866584.81645  21837330.0394                   21837326.8874
 -36241643.49247 -28193676.50845  21078886.4614                   21078882.1604
  -5036209.21546  -3881180.68744  23400770.7274                   23400767.7934
 -22192385.56247 -17249485.81644  21894437.5084                   21894435.8834
 -29798050.07047 -23096317.46544  22027983.4064                   22027981.6724
 -62043964.67248 -48296856.91446  19941932.3674                   19941929.8834
 -43232851.64147 -33642611.27044  22424113.4064                   22424112.0124
 -97459701.79746 -75908290.20743  22732268.6414                   22732267.0164
 11  8  2  0 24 30.0000000  0  8G17G02G12G10G09G04G27G28
 -79231672.37947 -61693426.51245  22123826.8054                   22123824.2194
 -34823077.70347 -27088300.52346  21348830.4694                   21348826.2304
  -3663416.85547  -2811472.33644  23662004.3834                   23662001.3594
 -20800614.18447 -16164988.59444  22159282.8594                   22159280.9384
 -28304739.14547 -21932698.58244  22312150.4384                   22312149.2854
 -60542553.95348 -47126926.48846  20227641.4384                   20227638.8794
 -41736240.59847 -32476420.89144  22708908.7664                   22708907.7894
 -95911379.46546 -74701805.35243  23026904.8834                   23026903.5514
 11  8  2  0 25  0.0000000  0  8G17G02G12G10G09G04G27G28
 -79301389.28147 -61747751.40645  22110559.5314                   22110557.7664
 -34979503.20747 -27210190.50446  21319063.8754                   21319059.7934
  -3865892.73047  -2969245.71544  23623474.8134                   23623472.1254
 -20983863.14547 -16307779.96544  22124411.6254                   22124409.6954
 -28386208.09447 -21996180.89144  22296647.9384                   22296646.3404
 -60616038.11748 -47184186.87946  20213657.6644                   20213655.3794
 -41814574.64847 -32537460.46544  22694002.5864                   22694000.8484
 -95938086.57446 -74722616.11343  23021822.1094                   23021820.6254
 11  8  2  0 25 30.0000000  0  8G17G02G12G10G09G04G27G28
 -79370954.91847 -61801958.41445  22097322.1024                   22097319.7464
 -35135495.83647 -27331743.17646  21289379.5394                   21289374.7734
  -4068209.07047  -3126894.78543  23584974.9384                   23584972.1254
 -21166704.14847 -16450253.43744  22089617.8284                   22089616.6294
 -28467036.82047 -22059164.32844  22281266.6094                   22281264.8714
 -60688998.06248 -47241038.78546  20199774.1254                   20199771.4534
 -41892434.19147 -32598130.26644  22679186.4924                   22679185.3914
 -95964404.83646 -74743123.90243  23016815.0704                   23016812.9804
 11  8  2  0 26  0.0000000  0  8G17G02G12G10G09G04G27G28
 -79440369.26247 -61856047.53945  22084112.9224                   22084110.4304
 -35291055.99247 -27452958.85946  21259777.1564                   21259772.4414
  -4270364.21546  -3284418.26243  23546505.5314                   23546502.5784
 -21349135.14147 -16592407.42244  22054903.2034                   22054900.8364
 -28547228.14847 -22121651.10244  22266007.0634                   22266005.3054
 -60761436.47348 -47297484.30546  20185989.6724                   20185986.9884
 -41969821.55947 -32658432.16844  22664460.8594                   22664458.9614
 -95990336.13746 -74763330.16443  23011880.0864                   23011878.0354
 11  8  2  0 26 30.0000000  0  9G17G02G12G10G09G04G27G05G28
 -79509629.72347 -61910016.74645  22070933.3524                   22070930.8794
 -35446180.46148 -27573835.05146  21230257.9304                   21230253.3054
  -4472352.73446  -3441811.88343  23508068.5004                   23508066.2274
 -21531149.85547 -16734237.02344  22020266.5004                   22020265.3094
 -28626781.35547 -22183640.61744  22250868.0474                   22250866.0704
 -60833352.36748 -47353522.66046  20172304.3284                   20172301.6644
 -42046735.62947 -32718365.23844  22649824.0084                   22649822.7544
   5988267.35556   4711268.75853  24712726.9384                   24712729.4654
 -96015878.52046 -74783233.39143  23007020.0554                   23007017.6844
 11  8  2  0 27  0.0000000  0  9G17G02G12G10G09G04G27G05G28
 -79578741.34047 -61963869.99245  22057781.8134                   22057779.4104
 -35600874.62147 -27694375.92246  21200820.4064                   21200816.0434
  -4674178.40246  -3599078.62143  23469661.9694                   23469659.5664
 -21712750.38347 -16875743.89844  21985707.9384                   21985706.7934
 -28705704.12547 -22245138.91045  22235850.2584                   22235848.5274
 -60904753.38347 -47409159.82446  20158716.7894                   20158714.5634
 -42123183.98047 -32777935.41044  22635276.5314                   22635274.6764
   5776536.44146   4546283.92242  24672435.8914                   24672438.2194
 -96041039.08246 -74802839.08643  23002230.6644                   23002230.1524
 11  8  2  0 27 30.0000000  0  9G17G02G12G10G09G04G27G05G28
 -79647708.23847 -62017610.45745  22044658.1804                   22044655.5634
 -35755142.85947 -27814584.91846  21171464.1024                   21171459.8364
  -4875842.97746  -3756219.77744  23431286.7894                   23431284.6334
 -21893938.39546 -17016929.30944  21951229.9534                   21951228.2734
 -28784002.43047 -22306150.59844  22220950.5004                   22220948.6094
 -60975646.25848 -47464401.02346  20145226.6804                   20145224.4884
 -42199172.81246 -32837147.52744  22620815.9774                   22620814.7774
   5564775.19145   4381275.41842  24632138.3204                   24632141.0944
 -96065823.45346 -74822151.60243  22997515.2424                   22997513.7814
 11  8  2  0 28  0.0000000  0  9G17G02G12G10G09G04G27G05G28
 -79716533.19947 -62071240.32845  22031561.1564                   22031558.9844
 -35908988.15647 -27934464.34846  21142188.7814                   21142183.4804
  -5077347.68046  -3913236.40643  23392941.0234                   23392939.6804
 -22074713.50847 -17157792.98444  21916828.5394                   21916827.6484
 -28861681.53147 -22366679.78544  22206168.7584                   22206166.4804
 -61046035.93748 -47519250.13346  20131831.6174                   20131829.1564
 -42274707.16847 -32896005.50844  22606442.4844                   22606441.1954
   5352982.54745   4216242.43443  24591835.2034                   24591838.3014
 -96090236.05946 -74841174.48043  22992869.8364                   22992868.5084
 11  8  2  0 28 30.0000000  0  9G17G02G12G10G09G04G27G05G28
 -79785213.02047 -62124757.09045  22018492.0004                   22018489.5124
 -36062407.25048 -28054011.67646  21112993.8834                   21112989.3324
  -5278687.35546  -4070124.40244  23354628.2584                   23354626.0234
 -22255069.80146 -17298330.31244  21882509.0634                   21882506.4694
 -28938740.41447 -22426725.69144  22191504.7894                   22191502.4844
 -61115921.72348 -47573706.57846  20118533.3364                   20118530.9224
 -42349785.81647 -32954508.36744  22592156.1954                   22592154.6134
   5141163.90245   4051189.19543  24551527.4384                   24551530.3364
 -96114275.87546 -74859906.87543  22988295.9534                   22988293.6604
 11  8  2  0 29  0.0000000  0  9G17G02G12G10G09G04G27G05G28
 -79853744.85247 -62178158.53945  22005450.3914                   22005448.4184
 -36215397.45347 -28173224.79746  21083880.3134                   21083876.3134
  -5479856.83247  -4226879.80544  23316347.1334                   23316344.9264
 -22435001.57446 -17438536.85544  21848268.5314                   21848267.0784
 -29015178.75847 -22486288.07444  22176958.7664                   22176957.2074
 -61185302.93448 -47627769.85946  20105329.9844                   20105327.7974
 -42424407.99647 -33012655.53544  22577955.5554                   22577953.6804
   4929324.93046   3886120.09443  24511215.9774                   24511218.1294
 -96137940.63346 -74878347.03143  22983792.2034                   22983790.4884
 11  8  2  0 29 30.0000000  0  9G17G02G12G10G09G04G27G05G28
 -79922125.03947 -62231441.83245  21992438.6334                   21992436.3284
 -36367955.11347 -28292100.87546  21054849.5394                   21054845.4534
  -5680850.81247  -4383498.44544  23278098.5554                   23278097.1724
 -22614502.37547 -17578407.56244  21814111.8444                   21814109.4844
 -29090995.22747 -22545365.86344  22162531.2894                   22162529.6374
 -61254178.72348 -47681439.30946  20092223.6804                   20092221.0824
 -42498572.43047 -33070446.03144  22563842.5314                   22563841.6294
   4717471.23046   3721039.49242  24470900.9304                   24470904.0704
 -96161228.85246 -74896493.77043  22979360.0864                   22979358.6884
 11  8  2  0 30  0.0000000  0  9G17G02G12G10G09G04G27G05G28
 -79990354.48447 -62284607.62945  21979455.0234                   21979452.3204
 -36520081.34847 -28410640.77746  21025901.7664                   21025896.6914
  -5881668.27047  -4539979.53544  23239885.1334                   23239882.4064
 -22793570.37547 -17717941.02744  21780035.9924                   21780033.9844
 -29166193.17247 -22603961.71144  22148222.1254                   22148220.4884
 -61322552.14848 -47734717.29746  20079212.2974                   20079210.0274
 -42572282.56647 -33127882.52044  22549815.6804                   22549814.2194
   4505603.95346   3555948.34843  24430584.2814                   24430586.3364
 -96184142.89846 -74914348.96143  22974999.8284                   22974998.2664
 11  8  2  0 30 30.0000000  0  9G17G02G12G10G09G04G27G05G28
 -80058427.32447 -62337651.43445  21966500.8134                   21966498.3714
 -36671770.78547 -28528840.31246  20997035.6024                   20997031.1684
  -6082301.28147  -4696316.91444  23201705.8674                   23201703.0394
 -22972196.67247 -17857130.31644  21746044.4224                   21746042.7194
 -29240769.34047 -22662073.03144  22134030.6094                   22134029.1094
 -61390419.99648 -47787601.33646  20066297.7664                   20066295.3244
 -42645534.53547 -33184962.01244  22535877.1094                   22535875.1094
   4293731.42646   3390853.15243  24390265.7344                   24390268.1914
 -96206678.73446 -74931909.42243  22970712.2814                   22970710.2034
 11  8  2  0 31  0.0000000  0  9G17G02G12G10G09G04G27G05G28
 -80126343.77047 -62390573.35945  21953577.1174                   21953574.6604
 -36823023.83247 -28646699.81246  20968253.5554                   20968248.7344
  -6282748.15247  -4852509.20744  23163561.7344                   23163559.9654
 -23150378.78146 -17995973.48044  21712137.1724                   21712135.2664
 -29314726.19947 -22719701.80144  22119956.9384                   22119955.2344
 -61457785.05948 -47840093.59046  20053478.5864                   20053476.2624
 -42718331.07047 -33241686.59844  22522024.2734                   22522023.0394
   4081855.65645   3225755.39843  24349947.0164                   24349949.5044
 -96228838.50446 -74949176.85243  22966494.5554                   22966493.1954
 11  8  2  0 31 30.0000000  0  9G17G02G12G10G09G04G27G05G28
 -78618678.18747 -61215769.02745  22240475.6884                   22240473.4654
 -35398412.29347 -27536612.87546  21239347.3834                   21239343.2814
  -4907576.68047  -3780946.98044  23425248.2424                   23425246.0164
 -21752684.96147 -16906861.36744  21978109.5164                   21978107.5274
 -27812640.76647 -21549245.64544  22405794.3984                   22405792.6764
 -59949223.68048 -46664591.23046  20340548.2734                   20340545.9414
 -41215248.34447 -32070453.34044  22808050.8914                   22808049.7344
   5445409.37945   4288265.01243  24609422.8914                   24609424.6454
 -94675199.39146 -73738549.03943  23262143.3134                   23262141.7894
 11  8  2  0 32  0.0000000  0  9G17G02G12G10G09G04G27G05G28
 -78686273.96947 -61268441.07845  22227612.6334                   22227610.1334
 -35548785.38748 -27653786.68746  21210732.5004                   21210728.2114
  -5107637.55947  -3936838.52044  23387177.4144                   23387174.9144
 -21929962.80947 -17044999.91444  21944374.4144                   21944372.6374
 -27885359.16047 -21605909.36344  22391956.8444                   22391954.9264
 -60015582.06248 -46716299.07046  20327921.0164                   20327918.4844
 -41287132.46947 -32126466.94944  22794371.9694                   22794370.5084
   5233541.83645   4123173.68443  24569105.1414                   24569107.2664
 -94696603.69546 -73755227.80543  23258070.5394                   23258068.4574
 11  8  2  0 32 30.0000000  0  9G17G02G12G10G09G04G27G05G28
 -78753711.01247 -61320989.43445  22214779.8674                   22214777.5824
 -35698720.17247 -27770618.97346  21182200.9614                   21182196.1294
  -5307504.34447  -4092578.83644  23349144.2814                   23349141.7774
 -22106785.98847 -17182784.15244  21910725.7424                   21910723.7234
 -27957463.73047 -21662094.77044  22378235.2664                   22378233.6764
 -60081442.69148 -46767619.04346  20315387.8984                   20315385.6484
 -41358565.46547 -32182129.03544  22780778.2664                   22780777.2504
   5021679.96946   3958086.73043  24528789.0474                   24528790.9454
 -94717634.60546 -73771615.61343  23254067.2034                   23254066.4064
 11  8  2  0 33  0.0000000  0  9G17G02G12G10G09G04G27G05G28
 -78820984.30947 -61373410.18445  22201978.5634                   22201975.8364
 -35848212.30548 -27887106.33646  21153753.4384                   21153748.7304
  -5507169.84846  -4248162.31244  23311149.1024                   23311146.1684
 -22283146.85547 -17320208.14844  21877165.6174                   21877164.3324
 -28028952.40247 -21717800.26244  22364631.8834                   22364629.7074
 -60146803.16448 -46818549.28146  20302950.2974                   20302948.0044
 -41429544.75447 -32237437.59844  22767270.9534                   22767269.9224
   4809831.19545   3793010.04743  24488475.1804                   24488476.8444
 -94738288.98446 -73787710.03543  23250137.2424                   23250136.1414
 11  8  2  0 33 30.0000000  0  9G17G02G12G10G09G04G27G05G28
 -78888093.15247 -61425702.80145  22189208.3984                   22189206.1994
 -35997261.10547 -28003248.23846  21125390.1564                   21125385.9064
  -5706631.08647  -4403586.59844  23273193.6724                   23273190.1724
 -22459041.81646 -17457269.10944  21843694.0474                   21843692.3954
 -28099826.59847 -21773026.92244  22351145.5704                   22351143.4344
 -60211665.16448 -46869091.12146  20290607.3524                   20290605.1414
 -41500071.87147 -32292393.80544  22753850.7194                   22753848.6214
   4597998.57846   3627945.87543  24448165.5554                   24448166.0904
 -94758567.71546 -73803511.70343  23246278.2504                   23246276.9344
 11  8  2  0 34  0.0000000  0  9G17G02G12G10G09G04G27G05G28
 -78955038.44947 -61477867.96545  22176468.7814                   22176466.4964
 -36145868.00847 -28119045.80546  21097111.3444                   21097107.3324
  -5905887.10547  -4558850.99244  23235275.2814                   23235273.2194
 -22634469.13747 -17593965.68044  21810310.5394                   21810309.2934
 -28170090.13347 -21827777.75844  22337774.3674                   22337772.0864
 -60276032.19148 -46919247.25046  20278359.0084                   20278356.2774
 -41570150.05947 -32347000.22744  22740515.6174                   22740514.0554
   4386183.33246   3462895.27043  24407857.2344                   24407858.9654
 -94778473.46546 -73819022.79743  23242490.8204                   23242489.2664
 11  8  2  0 34 30.0000000  0  9G17G02G12G10G09G04G27G05G28
 -79021816.15647 -61529902.55145  22163761.5164                   22163759.2854
 -36294029.55947 -28234496.35246  21068917.2194                   21068912.8874
  -6104932.53547  -4713951.27344  23197398.7814                   23197395.6024
 -22809422.26247 -17730292.73844  21777018.7584                   21777016.8204
 -28239741.76247 -21882051.76244  22324520.1414                   22324518.5824
 -60339902.81648 -46969016.57446  20266204.6334                   20266202.0204
 -41639778.03146 -32401255.82044  22727265.8524                   22727264.8284
   4174391.58646   3297862.91443  24367555.4614                   24367556.0274
 -94798004.32046 -73834241.70743  23238773.3444                   23238772.6334
 11  8  2  0 35  0.0000000  0  9G17G02G12G10G09G04G27G05G28
 -79088427.68447 -61581807.66445  22151085.4614                   22151083.2854
 -36441747.03947 -28349600.86346  21040807.6174                   21040802.9024
  -6303766.41447  -4868886.71544  23159561.8674                   23159559.5824
 -22983899.64547 -17866249.10244  21743816.9224                   21743814.8754
 -28308785.55947 -21935852.16044  22311380.9144                   22311379.8714
 -60403280.86748 -47018402.07446  20254144.2274                   20254141.8204
 -41708959.28947 -32455163.31644  22714100.9384                   22714099.4534
   3962624.56646   3132849.89143  24327257.7814                   24327258.7854
 -94817163.11346 -73849170.73443  23235128.7424                   23235127.2384
 11  8  2  0 35 30.0000000  0  9G17G02G12G10G09G04G27G05G28
 -79154868.08647 -61633579.43045  22138442.6094                   22138440.3794
 -36589016.18747 -28464356.02046  21012782.8134                   21012778.4964
  -6502381.51647  -5023651.68444  23121766.6174                   23121764.5824
 -23157893.49647 -18001828.69145  21710706.4924                   21710705.2504
 -28377219.33647 -21989177.18444  22298359.0474                   22298357.3874
 -60466164.06648 -47067401.97746  20242177.7034                   20242175.1254
 -41777691.33647 -32508720.79344  22701021.2194                   22701020.8204
   3750889.30946   2967861.58243  24286964.5084                   24286966.6684
 -94835946.94546 -73863807.56643  23231554.0004                   23231552.6764
 11  8  2  0 36  0.0000000  0  9G17G02G12G10G09G04G27G05G28
 -79221136.47747 -61685217.15245  22125832.5944                   22125829.7234
 -36735836.52047 -28578761.44146  20984844.2274                   20984839.6604
  -6700775.35947  -5178244.26644  23084013.7114                   23084011.5204
 -23331400.85247 -18137029.18444  21677689.3444                   21677687.5274
 -28445044.82847 -22042028.24644  22285452.0554                   22285450.1954
 -60528554.31248 -47116017.75446  20230305.1094                   20230303.2344
 -41845976.06246 -32561929.68744  22688027.5474                   22688026.3594
   3539189.28546   2802900.73443  24246679.3054                   24246680.7384
 -94854356.67246 -73878152.87943  23228050.4534                   23228049.5634
 11  8  2  0 36 30.0000000  0  9G17G02G12G10G09G04G27G05G28
 -79287233.32047 -61736721.19145  22113254.7034                   22113252.1764
 -36882208.86347 -28692817.79346  20956990.5004                   20956986.1454
  -6898946.43447  -5332663.25044  23046302.4064                   23046300.0634
 -23504419.44147 -18271848.81244  21644764.6174                   21644763.1414
 -28512265.32447 -22094407.86344  22272660.5394                   22272659.1484
 -60590454.64148 -47164251.78546  20218526.0554                   20218523.7544
 -41913816.28547 -32614792.24244  22675118.6024                   22675117.0394
   3327525.40646   2637968.05143  24206401.3134                   24206402.3834
 -94872395.11346 -73892208.88743  23224617.9694                   23224617.1294
 11  8  2  0 37  0.0000000  0  9G17G02G12G10G09G04G27G05G28
 -79353157.41847 -61788090.63745  22100709.4304                   22100706.8914
 -37028132.54348 -28806524.52746  20929221.9304                   20929217.1994
  -7096891.73447  -5486906.31644  23008635.0634                   23008633.0824
 -23676945.48047 -18406284.67245  21611934.7424                   21611932.5634
 -28578882.73047 -22146317.55544  22259983.6564                   22259981.9494
 -60651866.57848 -47212105.24646  20206840.2584                   20206837.5314
 -41981213.53947 -32667309.60544  22662293.0864                   22662291.3914
   3115901.59446   2473066.59443  24166129.5704                   24166131.5864
 -94890062.90646 -73905976.08243  23221256.1954                   23221255.0514
 11  8  2  0 37 30.0000000  0  9G17G02G12G10G09G04G27G05G28
 -79418905.41847 -61839322.86345  22088197.9224                   22088196.1954
 -37173604.68047 -28919879.41446  20901539.6804                   20901535.4064
  -7294605.59847  -5640969.03544  22971011.3524                   22971008.9344
 -23848972.75847 -18540331.86345  21579198.7114                   21579196.6684
 -28644896.23847 -22197756.68044  22247421.9304                   22247420.1804
 -60712789.16448 -47259577.38746  20195246.9454                   20195244.9104
 -42048166.87947 -32719481.07044  22649551.9614                   22649551.0634
   2904324.17646   2308201.22343  24125868.4694                   24125869.0394
 -94907358.23446 -73919453.00443  23217964.6094                   23217964.2384
 11  8  2  0 38  0.0000000  0  9G17G02G12G10G09G04G27G05G28
 -79484478.88747 -61890419.10245  22075719.8204                   22075717.6844
 -37318626.89148 -29032883.69546  20873942.8134                   20873938.4414
  -7492087.18047  -5794850.75844  22933431.3364                   22933429.1484
 -24020500.30547 -18673989.64845  21546557.7504                   21546556.0634
 -28710310.28147 -22248728.68444  22234974.0234                   22234972.6604
 -60773226.41448 -47306671.34846  20183747.1024                   20183744.3874
 -42114679.99646 -32771309.52744  22636895.1174                   22636893.4774
   2692793.20746   2143372.07443  24085615.4694                   24085615.6174
 -94924284.52746 -73932642.43443  23214744.9144                   23214743.2734
 11  8  2  0 38 30.0000000  0  9G17G02G12G10G09G04G27G05G28
 -79549875.71547 -61941377.68445  22063275.0784                   22063273.0084
 -37463198.02047 -29145536.49646  20846431.9924                   20846427.2464
  -7689333.25047  -5948548.97744  22895897.5394                   22895894.8714
 -24191523.86747 -18807254.73844  21514013.1254                   21514011.5824
 -28775125.68447 -22299234.21944  22222639.7034                   22222638.1884
 -60833179.49648 -47353388.04746  20172336.9534                   20172335.1024
 -42180753.87147 -32822795.69944  22624321.2114                   22624320.3714
   2481312.74246   1978582.25843  24045371.0864                   24045372.5474
 -94940842.20346 -73945544.61343  23211593.7424                   23211592.4884
 11  8  2  0 39  0.0000000  0  9G17G02G12G10G09G04G27G05G28
 -78039675.18747 -60764598.06645  22350656.7664                   22350654.5594
 -36031895.01247 -28030235.42646  21118799.4694                   21118794.8874
  -6310916.54747  -4874458.02044  23158200.7504                   23158198.8054
 -22786616.23047 -17712521.47345  21781358.0234                   21781356.6524
 -27263924.68047 -21121675.02344  22510212.0704                   22510210.1994
 -59317230.16848 -46172128.82846  20460812.7894                   20460809.8954
 -40670969.97747 -31646340.74244  22911623.9844                   22911622.9694
   3845311.04746   3041438.25843  24304932.7344                   24304932.1604
 -93381613.69546 -72730561.42243  23508304.9454                   23508303.7504
 11  8  2  0 39 30.0000000  0  9G17G02G12G10G09G04G27G05G28
 -78104719.83247 -60815282.22345  22338279.0314                   22338276.8444
 -36175566.67247 -28142187.34446  21091459.6564                   21091455.1374
  -6507686.43447  -5027785.19144  23120756.7194                   23120754.1174
 -22956624.96147 -17844995.78144  21749006.1564                   21749004.4574
 -27327553.00847 -21171255.55944  22498104.2114                   22498102.2034
 -59376223.57448 -46218097.71946  20449587.0234                   20449584.5234
 -40736173.94547 -31697149.07044  22899216.0084                   22899214.7464
   3633938.14846   2876732.24643  24264708.5394                   24264709.6994
 -93397440.71946 -72742894.23843  23505293.1024                   23505292.0664
 11  8  2  0 40  0.0000000  0  9G17G02G12G10G09G04G27G05G28
 -78169586.39547 -60865827.62944  22325935.2814                   22325933.6024
 -36318787.19948 -28253787.73046  21064205.8674                   21064201.0664
  -6704212.96947  -5180922.71144  23083359.6334                   23083356.5354
 -23126120.60947 -17977070.28145  21716752.2504                   21716750.4774
 -27390590.23447 -21220375.49244  22486108.0864                   22486106.5394
 -59434739.12548 -46263694.26246  20438451.3524                   20438449.1374
 -40800945.00847 -31747620.07444  22886890.6954                   22886889.7234
   3422624.58646   2712072.48843  24224497.4534                   24224497.9804
 -93412903.31246 -72754943.10243  23502349.9454                   23502349.4384
 11  8  2  0 40 30.0000000  0  9G17G02G12G10G09G04G27G05G28
 -78234274.56647 -60916234.01645  22313625.3674                   22313623.4184
 -36461556.67647 -28365036.65246  21037037.6954                   21037033.2274
  -6900493.71547  -5333868.73844  23046008.3134                   23046004.9344
 -23295099.75047 -18108742.30545  21684596.7974                   21684594.9064
 -27453038.93746 -21269036.85544  22474224.7344                   22474222.8874
 -59492778.93448 -46308920.10246  20427407.1024                   20427404.2704
 -40865285.04747 -31797755.20744  22874647.1414                   22874646.5164
   3211372.88746   2547460.95343  24184297.3834                   24184297.8834
 -93428002.93046 -72766709.09842  23499478.4384                   23499476.5394
 11  8  2  0 41  0.0000000  0  9G17G02G12G10G09G04G27G05G28
 -78298781.67647 -60966499.32844  22301350.1804                   22301348.2424
 -36603873.32048 -28475932.71946  21009955.9694                   21009951.1134
  -7096524.40647  -5486619.88744  23008704.3834                   23008701.5944
 -23463558.03147 -18240008.46545  21652540.4384                   21652538.8954
 -27514899.55146 -21317239.95744  22462452.5394                   22462451.0664
 -59550343.33247 -46353775.47746  20416452.7034                   20416450.5474
 -40929194.25846 -31847554.65644  22862485.6024                   22862484.7584
   3000187.82846   2382901.31343  24144109.5784                   24144110.6484
 -93442738.95346 -72778191.79343  23496673.6094                   23496672.2544
 11  8  2  0 41 30.0000000  0  9G17G02G12G10G09G04G27G05G28
 -78363108.03147 -61016623.78945  22289109.9534                   22289107.2894
 -36745737.85247 -28586476.48046  20982959.7584                   20982955.6334
  -7292302.99247  -5639174.59844  22971449.0554                   22971446.5044
 -23631493.26247 -18370867.05145  21620583.3444                   21620581.5354
 -27576175.27047 -21364987.30544  22450792.7974                   22450790.7154
 -59607435.46948 -46398262.86746  20405588.8594                   20405586.4494
 -40992675.67646 -31897020.73044  22850405.8444                   22850404.2304
   2789071.64146   2218395.40643  24103935.0314                   24103936.2344
 -93457114.24646 -72789393.39143  23493938.1884                   23493937.4574
 11  8  2  0 42  0.0000000  0  9G17G02G12G10G09G04G27G05G28
 -78427252.90247 -61066606.81245  22276903.4844                   22276900.6684
 -36887150.32848 -28696668.00046  20956049.7034                   20956045.3364
  -7487827.13347  -5791531.03944  22934242.1414                   22934239.6334
 -23798901.82847 -18501315.25445  21588726.1724                   21588724.4884
 -27636868.70347 -21412280.91444  22439243.3594                   22439241.8594
 -59664057.30548 -46442383.78546  20394813.7584                   20394811.1844
 -41055731.58247 -31946155.24644  22838406.6724                   22838405.3914
   2578027.05946   2053945.27743  24063774.8524                   24063775.9884
 -93471130.10945 -72800314.98042  23491270.4924                   23491269.7854
 11  8  2  0 42 30.0000000  0  9G17G02G12G10G09G04G27G05G28
 -78491211.81247 -61116444.91845  22264732.7504                   22264730.0274
 -37028106.70747 -28806504.11746  20929226.6564                   20929222.3634
  -7683090.06647  -5943683.92244  22897084.9924                   22897082.2194
 -23965776.87147 -18631347.71544  21556971.0084                   21556969.1414
 -27696978.28547 -21459119.56644  22427805.1334                   22427803.3324
 -59720206.86348 -46486136.69146  20384128.7974                   20384126.3444
 -41118359.63747 -31994956.35544  22826488.4384                   22826487.9534
   2367061.36746   1889556.59043  24023629.3524                   24023630.1524
 -93484783.75445 -72810954.23043  23488672.0314                   23488671.6564
 11  8  2  0 43  0.0000000  0  9G17G02G12G10G09G04G27G05G28
 -78554987.24647 -61166140.07045  22252596.6884                   22252593.8284
 -37168610.50048 -28915987.57046  20902490.0234                   20902485.4144
  -7878092.75447  -6095634.04744  22859977.1024                   22859974.3984
 -24132119.09447 -18760964.98445  21525316.9924                   21525315.7544
 -27756509.81647 -21505507.81244  22416476.5164                   22416475.0354
 -59775889.79348 -46529526.00046  20373532.5164                   20373530.3444
 -41180565.16047 -32043428.23044  22814651.3914                   22814650.5594
   2156174.04346   1725228.98043  23983498.7504                   23983499.5824
 -93498079.86345 -72821314.96143  23486142.1884                   23486141.7894
 11  8  2  0 43 30.0000000  0  9G17G02G12G10G09G04G27G05G28
 -78618577.00047 -61215690.53145  22240495.8594                   22240492.9654
 -37308659.99248 -29025117.03146  20875839.3674                   20875834.7464
  -8072830.68447  -6247377.83244  22822919.8054                   22822917.0124
 -24297923.27747 -18890163.01645  21493765.5314                   21493764.1564
 -27815464.13347 -21551446.28144  22405258.0314                   22405256.3594
 -59831106.57448 -46572552.08246  20363025.2344                   20363023.3244
 -41242348.85246 -32091571.41844  22802894.2034                   22802894.0704
   1945369.29346   1560965.70743  23943383.8364                   23943383.9884
 -93511018.62145 -72831397.20743  23483680.9534                   23483679.6294
 11  8  2  0 44  0.0000000  0  9G17G02G12G10G09G04G27G05G28
 -78681980.46147 -61265095.84045  22228430.5944                   22228427.8714
 -37448254.90647 -29133892.25846  20849275.4454                   20849270.4964
  -8267301.30547  -6398913.35544  22785913.5704                   22785910.4654
 -24463186.36347 -19018939.41844  21462317.4774                   21462315.0084
 -27873843.54347 -21596936.75444  22394148.2034                   22394146.8164
 -59885859.05148 -46615216.35946  20352606.5314                   20352603.9614
 -41303712.48046 -32139387.26244  22791217.9144                   22791216.7384
   1734650.59846   1396769.51643  23903285.4614                   23903285.6844
 -93523601.00445 -72841201.71543  23481285.7344                   23481285.2464
 11  8  2  0 44 30.0000000  0  9G17G02G12G10G09G04G27G05G28
 -78745195.75447 -61314354.52744  22216400.9614                   22216398.2114
 -37587393.92647 -29242312.25846  20822797.8284                   20822793.6294
  -8461500.39547  -6550237.26644  22748958.7814                   22748955.5434
 -24627904.48447 -19147291.17245  21430972.3984                   21430970.6054
 -27931649.52047 -21641980.40244  22383148.0634                   22383146.4844
 -59940148.12148 -46657519.54346  20342275.7274                   20342273.4024
 -41364657.09446 -32186876.63344  22779620.4304                   22779619.1214
   1524022.05546   1232643.54343  23863203.0704                   23863204.4654
 -93535827.68445 -72850729.13742  23478959.4144                   23478958.9884
 11  8  2  0 45  0.0000000  0  9G17G02G12G10G09G04G27G05G28
 -78808222.66847 -61363466.42645  22204407.1254                   22204404.7274
 -37726077.92647 -29350377.68746  20796407.1884                   20796402.7814
  -8655425.64547  -6701347.81644  22712055.4924                   22712052.9694
 -24792075.13347 -19275216.32845  21399731.8444                   21399729.8984
 -27988885.08646 -21686579.58244  22372257.0004                   22372255.3954
 -59993976.70347 -46699463.89846  20332032.0394                   20332030.2034
 -41425185.57047 -32234041.71144  22768102.5394                   22768101.1454
   1313486.10246   1068589.73443  23823140.0554                   23823140.3954
 -93547700.50045 -72859980.73442  23476700.5474                   23476699.7774
 11  8  2  0 45 30.0000000  0  9G17G02G12G10G09G04G27G05G28
 -78871058.34047 -61412429.31244  22192449.7664                   22192447.4694
 -37864304.78148 -29458086.90646  20770103.4534                   20770098.9224
  -8849072.82047  -6852241.68744  22675205.1804                   22675202.4734
 -24955692.96547 -19402710.70344  21368596.5554                   21368594.4964
 -28045550.59046 -21730734.53944  22361473.6954                   22361473.0664
 -60047344.44947 -46741049.17646  20321876.5784                   20321874.4614
 -41485297.70347 -32280882.35544  22756662.7974                   22756662.3714
   1103047.59046    904611.83243  23783094.1884                   23783094.9804
 -93559218.62145 -72868956.02342  23474507.9844                   23474507.7274
 11  8  2  0 46  0.0000000  0  9G17G02G12G10G09G04G27G05G28
 -78933705.00447 -61461244.89545  22180529.0084                   22180526.4924
 -38002077.51247 -29565442.25846  20743886.2814                   20743881.4774
  -9042442.07847  -7002919.00044  22638408.2734                   22638405.9454
 -25118758.12947 -19529774.42645  21337566.4774                   21337564.0164
 -28101651.23847 -21774449.36344  22350797.7274                   22350796.8674
 -60100256.65248 -46782279.47346  20311808.0234                   20311805.2304
 -41544998.30946 -32327402.34844  22745302.4774                   22745301.5274
    892706.74246    740710.04743  23743068.2814                   23743068.2584
 -93570386.61746 -72877658.42243  23472383.7344                   23472382.9224
 11  8  2  0 46 30.0000000  0  9G17G02G12G10G09G04G27G05G28
 -77420738.65647 -60282310.10545  22468436.9454                   22468434.7624
 -36563970.75447 -28444839.57846  21017548.4844                   21017544.1334
  -7660103.17647  -5925771.76644  22901458.6254                   22901456.7274
 -23705841.68747 -18428800.54745  21606435.1804                   21606433.3364
 -26581767.28147 -20590124.23444  22640022.8754                   22640021.7504
 -58577292.66048 -45595554.28946  20601618.2894                   20601615.8484
 -40028866.93746 -31146001.30144  23033812.5164                   23033811.0514
   2257894.44546   1804492.80943  24002854.4144                   24002854.1414
 -92005784.80946 -71658488.30143  23770116.8984                   23770116.9574
 11  8  2  0 47  0.0000000  0  9G17G02G12G10G09G04G27G05G28
 -77483003.12947 -60330827.89145  22456589.1334                   22456586.5124
 -36700832.95747 -28551485.44546  20991504.4304                   20991499.7814
  -7852905.89847  -6076007.61745  22864770.0474                   22864767.0274
 -23867790.65247 -18554994.52045  21575617.4694                   21575615.3524
 -26636744.35547 -20632963.55144  22629561.0234                   22629559.2304
 -58629297.73048 -45636077.73046  20591722.2114                   20591719.7114
 -40087749.09447 -31191883.54344  23022607.3754                   23022606.1884
   2047760.18046   1640751.99243  23962866.5164                   23962867.1174
 -92016254.78546 -71666646.78543  23768124.5394                   23768124.4494
 11  8  2  0 47 30.0000000  0  9G17G02G12G10G09G04G27G05G28
 -77545078.91847 -60379198.64145  22444775.9064                   22444773.8444
 -36837243.82047 -28657779.60246  20965546.8834                   20965542.2274
  -8045424.97747  -6226022.43444  22828135.0314                   22828132.1764
 -24029180.55147 -18680752.85245  21544906.1094                   21544903.6484
 -26691167.00847 -20675370.84044  22619204.1804                   22619203.0704
 -58680856.11748 -45676253.11346  20581910.7274                   20581908.8634
 -40146228.85546 -31237452.20744  23011478.9924                   23011478.5124
   1837730.38346   1477092.55943  23922899.7114                   23922899.3284
 -92026381.84446 -71674538.05142  23766198.8834                   23766197.9654
 11  8  2  0 48  0.0000000  0  9G17G02G12G10G09G04G27G05G28
 -77606960.78147 -60427418.29745  22432999.6334                   22432997.9144
 -36973198.78147 -28763718.51646  20939675.3444                   20939670.4654
  -8237652.92247  -6375810.41844  22791554.1024                   22791552.1134
 -24190003.57047 -18806069.44945  21514301.9924                   21514299.8954
 -26745033.27047 -20717344.57844  22608953.7894                   22608952.8984
 -58731965.03148 -45716078.24646  20572185.1414                   20572182.7344
 -40204303.53946 -31282705.24644  23000428.1954                   23000427.8364
   1627812.80946   1313520.58243  23882953.7344                   23882953.7664
 -92036162.65646 -71682159.57042  23764337.8364                   23764336.5554
 11  8  2  0 48 30.0000000  0  9G17G02G12G10G09G04G27G05G28
 -77668649.12947 -60475487.14845  22421260.8754                   22421258.7734
 -37108698.98047 -28869303.06646  20913890.6484                   20913885.8834
  -8429588.04347  -6525370.22344  22755030.7974                   22755028.2664
 -24350258.43047 -18930943.33245  21483806.7734                   21483804.7424
 -26798347.10947 -20758887.87544  22598808.7504                   22598807.4024
 -58782628.18048 -45755556.02746  20562544.1414                   20562541.7894
 -40261976.86747 -31327645.54744  22989453.5784                   22989452.3554
   1418008.77046   1150037.07843  23843029.1484                   23843029.1724
 -92045600.10246 -71689513.52342  23762542.4694                   23762540.6334
 11  8  2  0 49  0.0000000  0  9G17G02G12G10G09G04G27G05G28
 -77730144.17247 -60523405.40645  22409558.9304                   22409557.1644
 -37243745.23047 -28974533.89146  20888192.1414                   20888187.1374
  -8621228.85247  -6674700.69544  22718562.8134                   22718560.1954
 -24509942.91447 -19055372.77045  21453419.3054                   21453417.5514
 -26851111.68046 -20800003.16444  22588768.5394                   22588766.5044
 -58832848.19547 -45794688.52046  20552987.7424                   20552985.1684
 -40319251.60246 -31372275.24244  22978554.1024                   22978553.6334
   1208320.75046    986643.96543  23803126.5864                   23803126.8054
 -92054696.06646 -71696601.36743  23760810.1484                   23760810.1954
 11  8  2  0 49 30.0000000  0  9G17G02G12G10G09G04G27G05G28
 -77791443.60247 -60571171.21944  22397893.8984                   22397891.7814
 -37378335.89847 -29079409.70746  20862580.2734                   20862575.3954
  -8812571.03547  -6823798.46145  22682151.5944                   22682148.5984
 -24669052.55947 -19179354.28145  21423142.0704                   21423139.9654
 -26903328.24647 -20840691.40244  22578831.3364                   22578829.6214
 -58882625.69548 -45833476.18746  20543515.2424                   20543513.1454
 -40376128.23846 -31416594.73044  22967731.0164                   22967730.4654
    998753.43846    823344.89543  23763246.7034                   23763246.8014
 -92063450.91846 -71703423.41843  23759144.4774                   23759144.3244
 11  8  2  0 50  0.0000000  0  9G17G02G12G10G09G04G27G05G28
 -77852547.39147 -60618784.57844  22386266.5004                   22386264.1684
 -37512472.50847 -29183931.71946  20837054.7894                   20837050.0314
  -9003612.68747  -6972662.04745  22645797.4614                   22645794.6644
 -24827585.63747 -19302886.50445  21392974.1254                   21392972.2934
 -26955000.30947 -20880955.39144  22568998.4614                   22568996.9024
 -58931963.92248 -45871921.55546  20534126.8524                   20534124.5164
 -40432609.98446 -31460606.51244  22956983.0084                   22956982.3834
    789308.87946    660141.54843  23723391.1884                   23723390.7034
 -92071867.22746 -71709981.66442  23757541.8754                   23757543.0354
 11  8  2  0 50 30.0000000  0  9G17G02G12G10G09G04G27G05G28
 -77913454.60247 -60666244.76244  22374676.1644                   22374673.5044
 -37646154.66447 -29288099.62546  20811615.7424                   20811611.4734
  -9194350.32847  -7121288.77345  22609501.2274                   22609498.8634
 -24985538.34047 -19425966.51645  21362916.2894                   21362914.7114
 -27006129.84446 -20920796.60944  22559269.0784                   22559267.8914
 -58980864.25047 -45910025.71146  20524820.9534                   20524818.5984
 -40488698.63746 -31504311.98444  22946309.3594                   22946308.7734
    579990.62146    497036.55543  23683559.6884                   23683559.0634
 -92079945.94145 -71716276.87542  23756005.6254                   23756005.3014
 11  8  2  0 51  0.0000000  0  9G17G02G12G10G09G04G27G05G28
 -77974162.25847 -60713549.45345  22363124.5004                   22363121.1684
 -37779380.14847 -29391911.67646  20786264.2424                   20786259.2304
  -9384779.21547  -7269674.89544  22573263.4924                   22573261.1454
 -25142905.92647 -19548590.57445  21332970.4774                   21332968.1564
 -27056717.72347 -20960215.78144  22549642.8594                   22549641.5944
 -59029326.75448 -45947788.71146  20515598.7274                   20515596.4414
 -40544394.10946 -31547711.10244  22935711.4304                   22935710.6484
    370804.27346    334034.32843  23643751.7344                   23643751.5004
 -92087686.46145 -71722308.54342  23754532.3594                   23754532.6564
 11  8  2  0 51 30.0000000  0  9G17G02G12G10G09G04G27G05G28
 -78034669.61347 -60760698.05145  22351609.6644                   22351607.1954
 -37912149.37547 -29495368.19946  20760998.9774                   20760994.0864
  -9574896.49247  -7417818.20745  22537085.4144                   22537082.6094
 -25299685.84847 -19670756.71145  21303136.4614                   21303134.4494
 -27106766.81246 -20999215.10244  22540118.6724                   22540117.3984
 -59077353.71147 -45985212.31646  20506460.0314                   20506457.7894
 -40599698.88746 -31590805.78544  22925186.3914                   22925186.4414
    161752.35546    171136.89143  23603970.1254                   23603970.5944
 -92095090.57045 -71728078.10542  23753124.3204                   23753124.2234
 11  8  2  0 52  0.0000000  0  9G17G02G12G10G09G04G27G05G28
 -78094976.88747 -60807690.75445  22340134.0704                   22340131.2234
 -38044463.05147 -29598469.74646  20735820.1254                   20735815.2034
  -9764700.53947  -7565717.44545  22500967.3204                   22500964.3364
 -25455876.10547 -19792463.38345  21273414.1564                   21273412.2154
 -27156280.60247 -21037797.30144  22530696.2664                   22530695.1294
 -59124947.93048 -46022298.73046  20497402.9614                   20497400.5554
 -40654615.94346 -31633598.33344  22914736.8754                   22914736.4384
    -47162.76246      8346.02043  23564215.2584                   23564214.6804
 -92102160.47345 -71733587.21142  23751779.1174                   23751778.3484
 11  8  2  0 52 30.0000000  0  9G17G02G12G10G09G04G27G05G28
 -78155085.13347 -60854528.36344  22328695.2734                   22328693.2814
 -38176323.43047 -29701218.07446  20710728.1954                   20710723.4264
  -9954190.34447  -7713371.81245  22464908.0084                   22464905.6054
 -25611475.79747 -19913709.86345  21243804.3914                   21243802.6414
 -27205263.53147 -21075965.84044  22521375.3984                   22521373.7194
 -59172113.51248 -46059051.14846  20488427.9224                   20488425.3244
 -40709149.28146 -31676091.88744  22904359.0944                   22904358.9844
   -255939.82046   -154337.24643  23524486.3284                   23524486.1844
 -92108899.51645 -71738838.45342  23750496.5944                   23750496.0004
 11  8  2  0 53  0.0000000  0  9G17G02G12G10G09G04G27G05G28
 -78214992.68447 -60901209.60545  22317295.8914                   22317292.9494
 -38307729.93747 -29803612.73846  20685722.1804                   20685717.9024
 -10143362.32447  -7860778.53545  22428910.4534                   22428907.1604
 -25766481.09847 -20034493.19145  21214307.6954                   21214305.7894
 -27253717.77047 -21113722.42244  22512154.6484                   22512153.2894
 -59218851.89548 -46095470.67246  20479533.5634                   20479531.6884
 -40763300.48046 -31718287.67244  22894055.1804                   22894054.2854
   -464574.95346   -316909.94943  23484784.7344                   23484783.7034
 -92115309.03545 -71743832.96542  23749276.3204                   23749276.1334
 11  8  2  0 53 30.0000000  0  9G17G02G12G10G09G04G27G05G28
 -78274698.71147 -60947733.81245  22305933.4924                   22305931.5864
 -38438682.59047 -29905653.74246  20660802.4304                   20660798.1484
 -10332213.44547  -8007935.22344  22392973.2344                   22392969.8984
 -25920889.29747 -20154811.23445  21184925.0004                   21184923.2934
 -27301645.78146 -21151068.95744  22503034.0314                   22503032.9654
 -59265164.68048 -46131558.57446  20470720.6724                   20470718.7894
 -40817071.41447 -31760187.15644  22883822.5164                   22883821.6884
   -673064.53546   -479369.21143  23445109.4774                   23445108.7384
 -92121389.75045 -71748571.30142  23748119.7194                   23748120.1094
 11  8  2  0 54  0.0000000  0  9G17G02G12G10G09G04G27G05G28
 -76758782.38347 -59766500.35545  22594402.7424                   22594400.7664
 -36993758.82447 -28779739.10246  20935762.7814                   20935757.3524
  -8945316.50847  -6927236.27745  22656890.4614                   22656888.2814
 -24499274.34047 -19047059.29345  21455449.4064                   21455447.3404
 -25773630.44146 -19960407.69544  22793806.0004                   22793805.0044
 -57735634.70347 -44939717.03546  20761780.8444                   20761778.4734
 -39295044.46946 -30574192.17244  23173454.7584                   23173454.0744
    694019.44946    585891.18443  23705257.5784                   23705256.8134
 -90551725.27745 -70525456.22342  24046815.3594                   24046817.2974
 11  8  2  0 54 30.0000000  0  9G17G02G12G10G09G04G27G05G28
 -76818085.95347 -59812710.96944  22583118.1414                   22583116.0664
 -37123806.96147 -28881075.29746  20911015.3444                   20911010.1844
  -9133520.32047  -7073888.58245  22621076.4844                   22621074.3634
 -24652483.14147 -19166442.75045  21426294.4774                   21426292.8164
 -25820517.01946 -19996942.72544  22784883.7974                   22784882.7194
 -57781106.08647 -44975149.29746  20753127.6724                   20753125.2034
 -39348064.55947 -30615506.56644  23163365.8984                   23163364.6684
    485826.82446    423663.28543  23665639.9144                   23665638.8754
 -90557156.87545 -70529688.73842  24045783.2814                   24045783.4384
 11  8  2  0 55  0.0000000  0  9G17G02G12G10G09G04G27G05G28
 -76877186.76647 -59858763.56645  22571871.6334                   22571869.2154
 -37253403.00847 -28982059.21146  20886353.6174                   20886348.7424
  -9321396.25847  -7220285.38745  22585324.6644                   22585322.0664
 -24805088.03147 -19285355.62545  21397255.3524                   21397253.1174
 -25866887.03146 -20033075.21944  22776059.9144                   22776058.2934
 -57826159.82447 -45010256.12146  20744554.6564                   20744551.9494
 -39400712.50046 -30656530.98044  23153346.8754                   23153346.1644
    277787.48046    261554.84043  23626050.4844                   23626049.9694
 -90562266.20345 -70533670.12542  24044812.0864                   24044811.5474
 11  8  2  0 55 30.0000000  0  9G17G02G12G10G09G04G27G05G28
 -76936082.88747 -59904656.66444  22560663.7274                   22560661.3134
 -37382546.00447 -29082690.09846  20861778.6334                   20861773.8444
  -9508940.11747  -7366423.43045  22549636.6724                   22549633.7234
 -24957084.88747 -19403794.69945  21368330.9534                   21368329.3874
 -25912741.78146 -20068806.22344  22767333.6724                   22767332.2344
 -57870796.42248 -45045037.88346  20736060.0704                   20736057.6214
 -39452989.19146 -30697266.10543  23143398.7584                   23143397.8874
     69906.15246     99569.53544  23586492.5864                   23586491.4104
 -90567053.49245 -70537400.55942  24043899.9844                   24043900.9654
 11  8  2  0 56  0.0000000  0  9G17G02G12G10G09G04G27G05G28
 -76994771.00447 -59950387.67244  22549496.0314                   22549493.4304
 -37511233.50447 -29182966.05946  20837290.5864                   20837285.6564
  -9696146.62147  -7512298.58245  22514012.0554                   22514009.2424
 -25108468.55147 -19521755.96945  21339523.7344                   21339521.1174
 -25958081.73846 -20104136.09044  22758705.9384                   22758704.3484
 -57915015.67248 -45079494.46146  20727645.4694                   20727643.0984
 -39504894.33646 -30737711.72344  23133521.7974                   23133520.7774
   -137811.53946    -62288.27743  23546964.6094                   23546964.9064
 -90571517.64145 -70540879.19542  24043051.5164                   24043051.8754
 11  8  2  0 56 30.0000000  0  9G17G02G12G10G09G04G27G05G28
 -77053254.45747 -59995959.19544  22538366.9454                   22538363.8524
 -37639470.18047 -29282890.72746  20812887.6804                   20812883.3164
  -9883017.35547  -7657912.11345  22478451.8674                   22478448.7154
 -25259240.77347 -19639240.79345  21310832.9614                   21310830.6134
 -26002913.58247 -20139070.02744  22750175.2114                   22750173.5084
 -57958823.93048 -45113630.77046  20719309.0864                   20719306.6214
 -39556434.42646 -30777872.87544  23123713.7034                   23123713.7074
   -345366.95346   -224019.62543  23507468.1564                   23507467.2074
 -90575664.73445 -70544110.76642  24042262.2424                   24042262.7734
 11  8  2  0 57  0.0000000  0  9G17G02G12G10G09G04G27G05G28
 -77111531.66047 -60041370.02744  22527277.6414                   22527274.9344
 -37767255.23847 -29382463.47746  20788570.4304                   20788566.2344
 -10069548.19947  -7803260.79345  22442956.4384                   22442953.2304
 -25409397.57447 -19756246.06245  21282258.4064                   21282256.9104
 -26047239.23447 -20173609.53544  22741739.9614                   22741739.4414
 -58002222.30547 -45147447.69946  20711050.6804                   20711048.4344
 -39607610.71946 -30817750.57443  23113975.5394                   23113974.9654
   -552755.75446   -385621.18443  23468002.8984                   23468002.1374
 -90579495.45745 -70547095.80142  24041532.3364                   24041534.2814
 11  8  2  0 57 30.0000000  0  9G17G02G12G10G09G04G27G05G28
 -77169599.03947 -60086617.33644  22516227.6174                   22516223.9654
 -37894586.21147 -29481682.41046  20764340.7814                   20764335.8634
 -10255733.90647  -7948340.53545  22407526.8364                   22407523.2464
 -25558933.93047 -19872767.86345  21253802.8524                   21253801.2034
 -26091059.22347 -20207755.01244  22733401.8054                   22733401.0634
 -58045210.26648 -45180944.83245  20702870.1884                   20702868.0864
 -39658423.13346 -30857344.68444  23104306.0234                   23104305.2424
   -759972.33646   -547088.55144  23428570.9064                   23428570.6644
 -90583008.98445 -70549833.71542  24040864.6094                   24040865.5514
 11  8  2  0 58  0.0000000  0  9G17G02G12G10G09G04G27G05G28
 -77227455.54747 -60131700.33644  22505217.6564                   22505215.2424
 -38021463.09047 -29580547.49646  20740196.8054                   20740191.9734
 -10441571.02747  -8093148.65645  22372162.5634                   22372159.8954
 -25707846.88347 -19988803.91445  21225465.7274                   21225463.4654
 -26134376.00447 -20241508.38344  22725159.0554                   22725157.6254
 -58087789.70748 -45214123.62545  20694768.2194                   20694765.5554
 -39708873.43446 -30896656.68044  23094705.9694                   23094705.0824
   -967013.00846   -708418.80943  23389172.7424                   23389171.6054
 -90586206.43045 -70552325.38342  24040255.4144                   24040257.1294
 11  8  2  0 58 30.0000000  0  9G17G02G12G10G09G04G27G05G28
 -77285101.23847 -60176619.08244  22494248.2894                   22494245.6604
 -38147887.27347 -29679059.82846  20716139.5314                   20716134.6054
 -10627058.08647  -8237683.99245  22336865.7274                   22336862.5314
 -25856135.28147 -20104353.28145  21197247.4924                   21197245.1684
 -26177193.11747 -20274872.37944  22717011.0784                   22717009.4264
 -58129963.64848 -45246986.44946  20686742.6484                   20686740.0984
 -39758965.19546 -30935689.27043  23085174.3364                   23085172.8674
  -1173875.75446   -869610.45344  23349807.7504                   23349807.0084
 -90589090.36745 -70554572.66042  24039706.7894                   24039708.0204
 11  8  2  0 59  0.0000000  0  9G17G02G12G10G09G04G27G05G28
 -77342536.82847 -60221374.09444  22483318.9224                   22483316.2774
 -38273859.96147 -29777220.35546  20692167.5234                   20692162.5234
 -10812193.44147  -8381945.29745  22301635.6334                   22301632.6024
 -26003797.50447 -20219414.73445  21169147.8834                   21169146.0044
 -26219514.98847 -20307850.51644  22708957.6024                   22708956.6254
 -58171735.21547 -45279535.72745  20678793.2194                   20678790.9414
 -39808701.64846 -30974444.99643  23075709.1954                   23075708.2664
  -1380558.37546  -1030661.71944  23310477.0164                   23310476.5514
 -90591664.06645 -70556578.16442  24039217.3204                   24039218.7664
 11  8  2  0 59 30.0000000  0  9G17G02G12G10G09G04G27G05G28
 -77399762.01647 -60265965.18444  22472429.1414                   22472426.9924
 -38399382.77047 -29875030.31646  20668281.2034                   20668276.3364
 -10996975.16847  -8525931.03945  22266472.7814                   22266470.1564
 -26150831.72747 -20333986.83645  21141168.3284                   21141165.8204
 -26261345.35547 -20340445.62544  22700997.4224                   22700996.1764
 -58213107.63748 -45311773.98846  20670920.7584                   20670918.3714
 -39858086.18746 -31012926.52343  23066312.4224                   23066310.8634
  -1587058.64846  -1191570.90644  23271181.0164                   23271180.8954
 -90593929.84845 -70558343.85242  24038786.4384                   24038787.2504
 11  8  2  1  0  0.0000000  0  9G17G02G12G10G09G04G27G05G28
 -77456775.73447 -60310391.47344  22461579.2734                   22461577.2424
 -38524455.52048 -29972489.59046  20644480.6804                   20644475.9654
 -11181399.97747  -8669638.65245  22231378.1724                   22231375.0474
 -26297235.37947 -20448067.58245  21113308.4694                   21113306.8834
 -26302686.92647 -20372659.87544  22693129.9844                   22693129.3014
 -58254082.73047 -45343702.64546  20663123.2584                   20663121.1094
 -39907120.78946 -31051135.36343  23056981.4064                   23056979.8754
  -1793373.13746  -1352335.32844  23231921.0864                   23231920.4144
 -90595889.50045 -70559870.92642  24038414.2664                   24038414.5124
 11  8  2  1  0 30.0000000  0  9G17G02G12G10G09G04G27G05G28
 -77513576.23047 -60354651.61344  22450770.3524                   22450768.4804
 -38649077.29747 -30069597.45346  20620765.8134                   20620761.0354
 -11365463.87547  -8813065.05145  22196351.7344                   22196348.7344
 -26443004.76247 -20561654.08245  21085569.9844                   21085567.3204
 -26343540.96147 -20404494.19944  22685355.7734                   22685355.6174
 -58294661.46147 -45375322.45346  20655401.4694                   20655398.8754
 -39955806.67646 -31089072.44543  23047716.3054                   23047715.8054
  -1999497.52346  -1512951.61344  23192697.1484                   23192695.7034
 -90597542.99245 -70561159.47742  24038099.2894                   24038100.2814
 11  8  2  1  1  0.0000000  0  9G17G02G12G10G09G04G27G05G28
 -77570163.40647 -60398745.52744  22440002.4224                   22440000.0744
 -38773249.11747 -30166354.70346  20597136.7894                   20597132.1644
 -11549164.80947  -8956208.62145  22161394.6644                   22161391.4494
 -26588137.93447 -20674744.84445  21057951.7734                   21057949.9694
 -26383911.47747 -20435951.80544  22677673.8674                   22677672.5234
 -58334846.57048 -45406635.53545  20647754.5474                   20647752.1414
 -40004146.56646 -31126739.95343  23038517.0474                   23038516.8874
  -2205429.60946  -1673418.05944  23153509.0864                   23153508.5634
 -90598892.70745 -70562211.28542  24037842.5314                   24037842.6604
 11  8  2  1  1 30.0000000  0  9G17G02G12G10G09G04G27G05G28
 -77626536.16047 -60442672.37144  22429275.2504                   22429272.8674
 -38896971.34048 -30262761.61346  20573593.1334                   20573588.4534
 -11732499.57047  -9099066.84445  22126506.3054                   22126504.0044
 -26732632.13747 -20787337.69545  21030455.5164                   21030453.3484
 -26423800.84846 -20467034.48444  22670083.0314                   22670081.8794
 -58374639.90648 -45437643.34845  20640181.9304                   20640179.8404
 -40052142.57846 -31164139.50843  23029383.6804                   23029383.4414
  -2411165.56246  -1833731.68444  23114358.3834                   23114358.0944
 -90599940.32445 -70563027.67642  24037643.1414                   24037643.7934
 11  8  2  1  2  0.0000000  0  9G17G02G12G10G09G04G27G05G28
 -76107272.10247 -59258830.25444  22718381.9774                   22718379.0664
 -37444820.23447 -29131215.28546  20849928.7114                   20849923.7504
 -10340039.74647  -8014033.18745  22391483.1954                   22391480.3674
 -25301061.05547 -19671827.75445  21302874.1334                   21302872.2234
 -24887791.45747 -19270144.08244  22962376.0944                   22962374.7154
 -56838622.84848 -44240746.95345  20932476.3984                   20932474.1374
 -38524376.12946 -29973672.16843  23320108.5234                   23320107.5234
  -1041275.87946   -766285.05944  23375040.7504                   23375039.1884
 -89025268.02345 -69336010.39842  24337294.0004                   24337293.6454
 11  8  2  1  2 30.0000000  0  9G17G02G12G10G09G04G27G05G28
 -76163214.96547 -59302422.12144  22707736.3914                   22707733.6524
 -37567645.34448 -29226923.14846  20826555.2344                   20826550.8014
 -10522635.39847  -8156315.49245  22356736.0554                   22356733.5354
 -25444272.39847 -19783420.98845  21275622.1024                   21275619.8284
 -24926729.10946 -19300485.13744  22954966.3204                   22954965.2464
 -56877640.55947 -44271150.37146  20925051.4534                   20925049.1454
 -38571693.28946 -30010542.73843  23311103.6094                   23311103.1804
  -1246611.57846   -926286.80944  23335965.2114                   23335964.6524
 -89025718.33245 -69336361.38742  24337207.0944                   24337209.4614
 11  8  2  1  3  0.0000000  0  9G17G02G12G10G09G04G27G05G28
 -76218940.63347 -59345844.74644  22697132.0864                   22697129.5474
 -37690021.50848 -29322281.19546  20803267.9454                   20803263.5434
 -10704856.34447  -8298305.82445  22322060.7344                   22322058.2934
 -25586837.65647 -19894510.77045  21248492.9454                   21248490.5314
 -24965194.36746 -19330458.09844  22947646.8284                   22947645.6564
 -56916272.43448 -44301253.14145  20917700.0234                   20917697.5044
 -38618673.48846 -30047150.73843  23302164.5234                   23302162.9964
  -1451741.25446  -1086128.00443  23296930.8134                   23296929.8524
 -89025871.41845 -69336480.71942  24337176.8984                   24337180.6454
 11  8  2  1  3 30.0000000  0  9G17G02G12G10G09G04G27G05G28
 -76274447.44547 -59389096.84044  22686569.2034                   22686567.0044
 -37811948.34048 -29417289.10246  20780066.3984                   20780061.5084
 -10886698.69547  -8440001.12545  22287457.2344                   22287454.9144
 -25728753.49647 -20005094.52345  21221487.1174                   21221484.6914
 -25003189.29346 -19360064.59044  22940416.3284                   22940415.5394
 -56954520.03148 -44331056.46945  20910422.0554                   20910419.7194
 -38665318.66846 -30083497.71143  23293288.1174                   23293287.6374
  -1656661.01646  -1245805.62944  23257935.9304                   23257935.0204
 -89025728.15645 -69336369.16042  24337205.6724                   24337207.3914
 11  8  2  1  4  0.0000000  0  9G17G02G12G10G09G04G27G05G28
 -76329734.18447 -59432177.42644  22676048.2274                   22676046.2194
 -37933425.87948 -29511946.92246  20756949.4224                   20756944.7384
 -11068159.45347  -8581399.10545  22252926.9454                   22252924.3484
 -25870017.55147 -20115170.37945  21194605.6644                   21194603.5164
 -25040716.85247 -19389306.86744  22933275.1334                   22933274.4844
 -56992384.94948 -44360561.60945  20903216.9614                   20903214.5784
 -38711630.75846 -30119585.10943  23284475.5394                   23284474.7074
  -1861367.40246  -1405317.00044  23218980.9844                   23218980.3984
 -89025290.30145 -69336028.09842  24337288.7814                   24337291.1684
 11  8  2  1  4 30.0000000  0  9G17G02G12G10G09G04G27G05G28
 -76384800.32447 -59475086.14144  22665569.8134                   22665567.6024
 -38054454.72748 -29606255.09446  20733918.3674                   20733913.8914
 -11249235.79347  -8722497.51245  22218469.1254                   22218466.6524
 -26010627.38747 -20224736.45745  21167848.6334                   21167846.2704
 -25077779.81246 -19418187.14544  22926222.2424                   22926221.6294
 -57029869.72747 -44389770.53945  20896083.0944                   20896081.1094
 -38757612.18446 -30155414.83643  23275725.0554                   23275724.8444
  -2065857.29746  -1564659.68043  23180067.6174                   23180067.0434
 -89024559.56245 -69335458.64842  24337427.8284                   24337430.3324
 11  8  2  1  5  0.0000000  0  9G17G02G12G10G09G04G27G05G28
 -76439644.57047 -59517821.93444  22655133.6094                   22655131.6094
 -38175034.96948 -29700213.71946  20710972.9384                   20710967.9804
 -11429924.68747  -8863294.02345  22184085.5314                   22184082.3364
 -26150580.60547 -20333790.87545  21141215.8674                   21141213.9804
 -25114380.79346 -19446707.41844  22919257.4064                   22919256.4614
 -57066975.71547 -44418684.30545  20889022.5084                   20889020.0514
 -38803264.80946 -30190988.37543  23267037.9694                   23267037.2664
  -2270127.27746  -1723830.99243  23141196.6334                   23141195.5434
 -89023537.26645 -69334662.18442  24337623.2974                   24337625.3954
 11  8  2  1  5 30.0000000  0  8G17G02G12G10G09G04G27G05
 -76494264.26247 -59560382.75844  22644739.3984                   22644737.8954
 -38295164.98048 -29793821.51646  20688113.0554                   20688108.5204
 -11610221.57447  -9003785.07045  22149775.6724                   22149773.1954
 -26289873.00447 -20442330.38745  21114709.3134                   21114707.3834
 -25150521.00846 -19474868.69944  22912380.2344                   22912379.3914
 -57103703.16848 -44447303.10545  20882033.1954                   20882030.7234
 -38848589.31646 -30226306.22743  23258413.2034                   23258412.7974
  -2474172.02746  -1882826.82044  23102368.1954                   23102366.9184
 11  8  2  1  6  0.0000000  0  8G17G02G12G10G09G04G27G05
 -76548661.64847 -59602770.35944  22634387.7734                   22634386.1294
 -38414848.14548 -29887081.11746  20665337.5474                   20665332.9924
 -11790126.19147  -9143970.44945  22115541.2734                   22115538.0314
 -26428505.35247 -20550355.56645  21088328.7504                   21088326.5354
 -25186206.59446 -19502675.69944  22905589.7424                   22905588.8714
 -57140057.29348 -44475631.01245  20875115.1724                   20875113.2504
 -38893591.09846 -30261372.59044  23249849.2664                   23249849.3014
  -2677991.43046  -2041647.03144  23063582.2504                   23063581.6954
 11  8  2  1  6 30.0000000  0  8G17G02G12G10G09G04G27G05
 -76602830.87147 -59644980.16044  22624080.9924                   22624078.0274
 -38534080.16047 -29979989.17246  20642649.1484                   20642644.4144
 -11969630.54347  -9283843.93045  22081382.5314                   22081379.2624
 -26566469.94147 -20657860.41045  21062074.3754                   21062072.5864
 -25221435.22346 -19530126.63744  22898886.1644                   22898885.0744
 -57176034.91448 -44503665.51645  20868269.1024                   20868266.9224
 -38938267.38746 -30296185.32844  23241348.2504                   23241347.6414
  -2881576.96546  -2200285.01244  23024841.4304                   23024840.6374
 11  8  2  1  7  0.0000000  0  8G17G02G12G10G09G04G27G05
 -76656765.46547 -59687007.14544  22613817.1254                   22613814.7624
 -38652856.07047 -30072541.82446  20620046.4064                   20620042.1764
 -12148726.91447  -9423399.51645  22047301.2664                   22047298.6914
 -26703759.43447 -20764839.21545  21035949.7344                   21035947.3134
 -25256204.62546 -19557219.70743  22892270.2274                   22892268.7194
 -57211633.15648 -44531404.41445  20861495.4384                   20861492.9104
 -38982615.19946 -30330742.13344  23232908.9454                   23232908.6094
  -3084920.10546  -2358734.13744  22986146.7584                   22986145.6094
 11  8  2  1  7 30.0000000  0  8G17G02G12G10G09G04G27G05
 -76710463.78547 -59728850.00444  22603598.2974                   22603596.3754
 -38771175.19948 -30164738.53146  20597531.4774                   20597526.6484
 -12327411.21547  -9562634.00845  22013298.8984                   22013296.2934
 -26840370.75447 -20871289.57445  21009953.4144                   21009950.8674
 -25290516.78146 -19583956.53143  22885739.9304                   22885739.5594
 -57246852.86348 -44558848.35245  20854792.9614                   20854790.4024
 -39026635.94546 -30365044.08243  23224532.3444                   23224532.0394
  -3288016.81646  -2516991.21544  22947498.4454                   22947498.0824
 11  8  2  1  8  0.0000000  0  8G17G02G12G10G09G04G27G05
 -76763924.59447 -59770507.80944  22593425.1334                   22593423.0514
 -38889037.47348 -30256579.25846  20575102.9454                   20575098.3594
 -12505680.35247  -9701544.98445  21979375.0394                   21979372.2384
 -26976301.82047 -20977209.85545  20984086.6484                   20984084.3714
 -25324374.46946 -19610339.19143  22879297.0234                   22879296.0164
 -57281695.57048 -44585998.52345  20848162.4454                   20848160.2664
 -39070331.77846 -30399092.82643  23216216.8444                   23216217.2974
  -3490863.70746  -2675053.62944  22908897.7194                   22908897.0514
 11  8  2  1  8 30.0000000  0  8G17G02G12G10G09G04G27G05
 -76817148.93447 -59811981.33244  22583297.3444                   22583294.1174
 -39006445.21547 -30348065.80546  20552761.0864                   20552756.1174
 -12683533.13747  -9840131.54345  21945530.7194                   21945527.9104
 -27111551.78147 -21082599.42245  20958349.1954                   20958346.5944
 -25357782.44146 -19636371.45743  22872940.3284                   22872939.0004
 -57316165.19948 -44612857.97745  20841603.3524                   20841601.0594
 -39113706.66046 -30432891.51243  23207962.3054                   23207962.7074
  -3693458.94146  -2832919.96544  22870345.4614                   22870344.0204
 11  8  2  1  9  0.0000000  0  8G17G02G12G10G09G04G27G05
 -76870139.15647 -59853272.43044  22573213.0864                   22573210.6764
 -39123402.47747 -30439201.32846  20530504.7734                   20530500.1994
 -12860970.21947  -9978394.17245  21911765.6564                   21911762.8954
 -27246122.15647 -21187459.43445  20932741.0784                   20932738.5784
 -25390747.37546 -19662058.47743  22866667.2734                   22866665.9494
 -57350267.34848 -44639431.09845  20835113.5554                   20835111.9304
 -39156766.77046 -30466444.91843  23199769.1564                   23199769.1764
  -3895802.81646  -2990590.42244  22831840.3364                   22831839.2304
 11  8  2  1  9 30.0000000  0  8G17G02G12G10G09G04G27G05
 -75347468.36347 -58666775.71944  22862967.5314                   22862965.4104
 -37664481.47747 -29302379.76246  20808127.9304                   20808123.3014
 -11462558.30547  -8888722.52745  22177875.0234                   22177871.6094
 -25804582.17647 -20064181.50845  21207056.9454                   21207055.0044
 -23847846.78146 -18459798.32043  23160271.3524                   23160270.8984
 -55808578.59847 -43438115.19945  21128487.1024                   21128485.3094
 -37624088.74646 -29272150.42243  23491427.7344                   23491428.0044
  -2522461.05546  -1920453.89544  23093178.7274                   23093178.2894
 11  8  2  1 10  0.0000000  0  8G17G02G12G10G09G04G27G05
 -75399983.36347 -58707696.51244  22852974.8674                   22852972.6254
 -37780534.61748 -29392810.77046  20786044.1094                   20786039.1954
 -11639150.79747  -9026327.05145  22144270.7814                   22144267.6564
 -25937782.56247 -20167974.00845  21181710.2814                   21181707.7734
 -23879930.10246 -18484798.35943  23154165.6644                   23154165.0744
 -55841947.38747 -43464116.86745  21122137.4774                   21122135.0234
 -37666521.75446 -29305215.19543  23483353.0704                   23483354.0004
  -2724287.76246  -2077721.39144  23054772.4064                   23054771.6684
 11  8  2  1 10 30.0000000  0  8G17G02G12G10G09G04G27G05
 -75452266.26247 -58748436.45344  22843025.4384                   22843023.0124
 -37896143.03947 -29482895.24246  20764044.6564                   20764039.4534
 -11815323.24647  -9163604.26645  22110745.9064                   22110743.1884
 -26070301.35947 -20271235.40245  21156492.5554                   21156490.1764
 -23911583.53146 -18509463.43743  23148142.3364                   23148141.9344
 -55874958.89148 -43489840.11745  21115856.0234                   21115853.7504
 -37708651.33646 -29338043.51243  23475335.7274                   23475336.2934
  -2925857.49246  -2234788.61744  23016415.1804                   23016414.2194
 11  8  2  1 11  0.0000000  0  8G17G02G12G10G09G04G27G05
 -75504314.19147 -58788993.30944  22833120.8444                   22833119.2504
 -38011305.05148 -29572631.86346  20742129.8524                   20742124.9144
 -11991070.86347  -9300550.43745  22077302.5084                   22077299.1484
 -26202134.65247 -20373962.62545  21131405.2344                   21131403.3054
 -23942808.25446 -18533794.41843  23142200.5944                   23142200.0164
 -55907613.37547 -43515285.17245  21109641.9844                   21109639.8244
 -37750478.03946 -29370635.82043  23467376.6174                   23467376.6254
  -3127165.22346  -2391651.70744  22978107.1954                   22978106.0864
 11  8  2  1 11 30.0000000  0  8G17G02G12G10G09G04G27G05
 -75556127.27047 -58829367.16044  22823260.7664                   22823259.1174
 -38126022.32847 -29662021.94146  20720299.7114                   20720294.8554
 -12166391.93447  -9437164.24645  22043939.7814                   22043937.0044
 -26333281.46947 -20476154.91845  21106449.4534                   21106446.6724
 -23973608.30546 -18557794.53143  23136339.2584                   23136339.1764
 -55939913.99248 -43540454.49245  21103495.0554                   21103493.2934
 -37792005.17246 -29402994.68443  23459475.1804                   23459475.1134
  -3328208.70346  -2548308.85944  22939849.8524                   22939848.7854
 11  8  2  1 12  0.0000000  0  8G17G02G12G10G09G04G27G05
 -75607705.57447 -58869558.06244  22813446.7664                   22813443.5704
 -38240296.58247 -29751066.80546  20698554.2424                   20698549.3094
 -12341284.68747  -9573444.29345  22010658.6484                   22010655.9224
 -26463741.04747 -20577811.71545  21081623.2034                   21081621.1844
 -24003987.96146 -18581467.02344  23130558.9144                   23130557.9064
 -55971863.88748 -43565350.52745  21097415.2034                   21097412.8714
 -37833236.53146 -29435123.11343  23451627.6334                   23451628.4494
  -3528985.75046  -2704758.42644  22901642.8754                   22901641.7734
 11  8  2  1 12 30.0000000  0  8G17G02G12G10G09G04G27G05
 -75659049.61747 -58909566.41844  22803676.1484                   22803674.0164
 -38354129.57047 -29839767.82446  20676892.7974                   20676887.6524
 -12515747.24647  -9709389.13345  21977460.0234                   21977456.6564
 -26593512.45347 -20678932.27045  21056928.6174                   21056926.4804
 -24033951.39546 -18604815.23044  23124857.0314                   23124856.5784
 -56003465.96147 -43589975.53945  21091401.6334                   21091399.4844
 -37874175.49646 -29467023.64143  23443838.8674                   23443838.0664
  -3729494.11746  -2860998.62544  22863487.5164                   22863486.3094
 11  8  2  1 13  0.0000000  0  8G17G02G12G10G09G04G27G05
 -75710160.42247 -58949393.02044  22793950.1884                   22793948.0164
 -38467523.76648 -29928126.92646  20655313.8914                   20655309.0124
 -12689778.54747  -9844997.91045  21944342.5474                   21944339.7304
 -26722596.15247 -20779516.95345  21032365.3054                   21032362.5984
 -24063503.96546 -18627843.26243  23119234.0394                   23119233.4574
 -56034724.61747 -43614332.94945  21085453.1484                   21085451.3754
 -37914826.68446 -29498699.93743  23436103.4064                   23436102.8954
  -3929732.82447  -3017028.71544  22825383.5004                   22825382.1374
 11  8  2  1 13 30.0000000  0  8G17G02G12G10G09G04G27G05
 -75761034.01647 -58989034.79744  22784269.4144                   22784267.0634
 -38580476.21147 -30016141.81646  20633820.2504                   20633815.4774
 -12863373.41847  -9980266.62145  21911308.6804                   21911305.4224
 -26850986.57447 -20879561.41845  21007932.4534                   21007930.5704
 -24092645.10546 -18650550.70344  23113687.7894                   23113687.1054
 -56065638.29347 -43638421.53945  21079570.6024                   21079568.2814
 -37955189.11746 -29530151.27043  23428422.5864                   23428422.5204
  -4129695.18046  -3172843.45744  22787331.8524                   22787330.2274
 11  8  2  1 14  0.0000000  0  8G17G02G12G10G09G04G27G05
 -75811673.16847 -59028493.89844  22774632.9144                   22774630.5434
 -38692991.60947 -30103816.14146  20612408.7114                   20612404.3324
 -13036532.23847 -10115195.55945  21878356.9774                   21878354.2624
 -26978685.73047 -20979067.21945  20983632.2894                   20983630.5164
 -24121381.62946 -18672942.85244  23108219.8284                   23108219.2464
 -56096213.02048 -43662246.01245  21073752.4924                   21073750.7894
 -37995269.21946 -29561382.54343  23420795.1804                   23420794.8134
  -4329381.85546  -3328443.38744  22749332.8444                   22749331.2814
 11  8  2  1 14 30.0000000  0  8G17G02G12G10G09G04G27G05
 -75862077.16047 -59067769.75044  22765041.8284                   22765039.1644
 -38805070.51247 -30191150.34046  20591081.3444                   20591076.4534
 -13209252.34047 -10249782.62945  21845490.0234                   21845486.7664
 -27105692.02347 -21078033.13745  20959463.8914                   20959461.6094
 -24149716.81246 -18695022.27344  23102827.5634                   23102826.9494
 -56126450.71948 -43685807.87145  21067998.9454                   21067996.9844
 -38035069.66846 -29592395.94543  23413221.7034                   23413220.6334
  -4528789.58646  -3483825.96944  22711386.3594                   22711385.2774
 11  8  2  1 15  0.0000000  0  8G17G02G12G10G09G04G27G05
 -75912244.48847 -59106861.20744  22755494.2034                   22755493.0554
 -38916712.48047 -30278144.08246  20569836.0704                   20569831.3014
 -13381529.93747 -10384024.88745  21812706.6724                   21812703.7344
 -27232002.70747 -21176457.02745  20935427.8444                   20935425.5204
 -24177653.06246 -18716790.82444  23097512.5704                   23097510.7774
 -56156352.60947 -43709108.06245  21062307.7974                   21062305.7274
 -38074591.77046 -29623192.46143  23405701.4224                   23405699.9654
  -4727914.32047  -3638988.02744  22673494.2034                   22673492.9264
 11  8  2  1 15 30.0000000  0  8G17G02G12G10G09G04G27G05
 -75962177.22746 -59145769.85944  22745992.3834                   22745990.5204
 -39027920.94547 -30364800.02046  20548673.9064                   20548669.3324
 -13553365.05947 -10517922.36745  21780007.1024                   21780004.4144
 -27357618.97347 -21274339.81245  20911524.1804                   20911521.3984
 -24205196.33646 -18738253.17644  23092271.1804                   23092269.6804
 -56185923.50447 -43732150.32845  21056681.0634                   21056678.3674
 -38113840.85946 -29653776.21543  23398232.2194                   23398231.7584
  -4926755.29746  -3793928.98044  22635656.0314                   22635654.5594
 11  8  2  1 16  0.0000000  0  8G17G02G12G10G09G04G27G05
 -76011872.48846 -59184493.46144  22736535.7504                   22736534.1724
 -39138695.00047 -30451117.44946  20527594.7504                   20527589.4734
 -13724753.35247 -10651471.66845  21747393.3834                   21747390.1604
 -27482537.65647 -21371679.03145  20887753.0004                   20887750.2424
 -24232347.97346 -18759410.37144  23087103.5314                   23087103.0904
 -56215163.88747 -43754935.05545  21051117.0314                   21051114.6414
 -38152817.88346 -29684148.02043  23390815.2814                   23390814.6454
  -5125308.09847  -3948645.37144  22597872.6724                   22597871.4774
 11  8  2  1 16 30.0000000  0  8G17G02G12G10G09G04G27G05
 -76061333.40647 -59223034.43744  22727123.6484                   22727122.1254
 -39249039.16848 -30537099.90646  20506596.8204                   20506592.1604
 -13895695.93747 -10784673.66845  21714864.0234                   21714860.6844
 -27606760.50447 -21468476.03945  20864114.0634                   20864111.4734
 -24259114.99646 -18780267.84043  23082010.8914                   23082008.9734
 -56244079.50048 -43777466.70745  21045614.6174                   21045612.1954
 -38191529.11746 -29714312.68443  23383448.7504                   23383448.9774
  -5323573.19146  -4103137.56244  22560143.8834                   22560142.4104
 11  8  2  1 17  0.0000000  0  8G17G02G12G10G09G04G27G05
 -76110557.10547 -59261390.59044  22717757.2274                   22717755.4224
 -39358951.89148 -30622746.17246  20485680.9304                   20485675.6254
 -14066187.67647 -10917524.35245  21682420.4694                   21682417.5354
 -27730283.92647 -21564728.02045  20840608.0164                   20840605.5944
 -24285498.38347 -18800826.37144  23076989.2424                   23076989.2304
 -56272670.22348 -43799745.20745  21040174.4384                   21040171.7344
 -38229974.99246 -29744270.57843  23376133.4064                   23376132.8404
  -5521545.21146  -4257401.40644  22522471.2584                   22522469.9144
 11  8  2  1 17 30.0000000  0  8G17G02G12G10G09G04G27G05
 -74584124.16447 -58071962.33644  23008228.0004                   23008225.2774
 -37893012.99247 -29480456.12546  20764639.8524                   20764634.9534
 -12660802.98847  -9822419.37945  21949856.4534                   21949853.1954
 -26277684.87547 -20432832.63745  21117028.4224                   21117025.8204
 -22736083.31246 -17593490.01643  23371833.6094                   23371833.1804
 -54725520.03947 -42594173.64845  21334586.5784                   21334584.3674
 -36692739.43446 -28546424.77043  23668659.3914                   23668658.8054
  -4143797.03146  -3183831.32444  22784647.5474                   22784646.2504
 11  8  2  1 18  0.0000000  0  8G17G02G12G10G09G04G27G05
 -74632875.37947 -58109950.31244  22998950.5944                   22998948.1484
 -38002069.16448 -29565434.93746  20743887.1564                   20743882.1764
 -12830389.44147  -9954564.66045  21917585.0864                   21917582.2154
 -26399808.82047 -20527994.13745  21093789.3444                   21093786.8754
 -22761713.59046 -17613461.71143  23366956.3834                   23366956.0554
 -54753471.52048 -42615954.03545  21329267.5634                   21329266.0784
 -36730666.43046 -28575978.35543  23661441.7504                   23661442.4184
  -4341177.41046  -3337634.14144  22747087.5944                   22747085.6214
 11  8  2  1 18 30.0000000  0  8G17G02G12G10G09G04G27G05
 -74681391.62547 -58147755.19944  22989718.2194                   22989716.2774
 -38110700.54747 -29650082.77046  20723215.4304                   20723210.6884
 -12999521.47347 -10086355.83645  21885400.1174                   21885397.5124
 -26521232.94547 -20622610.32045  21070682.5234                   21070680.4304
 -22786974.67246 -17633145.73443  23362149.3204                   23362148.6374
 -54781108.90248 -42637489.67245  21324008.4694                   21324006.4924
 -36768340.23046 -28605334.63343  23654273.3134                   23654272.8674
  -4538259.81646  -3491204.76244  22709583.6954                   22709582.6914
 11  8  2  1 19  0.0000000  0  8G17G02G12G10G09G04G27G05
 -74729671.40247 -58185375.82044  22980530.6094                   22980528.8284
 -38218906.94147 -29734399.41846  20702624.8754                   20702619.5744
 -13168195.71947 -10217790.28545  21853302.5474                   21853299.6094
 -26641955.19547 -20716679.58645  21047710.2974                   21047708.3204
 -22811868.51246 -17652543.57843  23357412.0704                   23357411.8834
 -54808433.23847 -42658781.37945  21318809.0234                   21318806.8054
 -36805762.62546 -28634495.00443  23647151.7814                   23647152.2274
  -4735040.03946  -3644539.92644  22672137.6174                   22672136.2424
 11  8  2  1 19 30.0000000  0  8G17G02G12G10G09G04G27G05
 -74777715.98447 -58222813.14544  22971388.6414                   22971386.9144
 -38326691.38748 -29818387.28546  20682113.4064                   20682108.6724
 -13336411.27047 -10348867.33245  21821291.8444                   21821288.7424
 -26761976.11347 -20810202.36345  21024872.1094                   21024868.9064
 -22836400.41846 -17671659.38743  23352743.4694                   23352743.8364
 -54835448.73447 -42679832.41445  21313667.9454                   21313665.6844
 -36842938.17246 -28663463.07043  23640077.7274                   23640077.7344
  -4931517.07446  -3797638.84044  22634749.2814                   22634747.4494
 11  8  2  1 20  0.0000000  0  8G17G02G12G10G09G04G27G05
 -74825526.42647 -58260068.07044  22962290.6564                   22962288.0784
 -38434056.17648 -29902048.14846  20661682.8674                   20661677.7584
 -13504167.72747 -10479586.64145  21789368.9774                   21789366.4574
 -26881296.15247 -20903179.00045  21002165.0394                   21002162.6254
 -22860575.74246 -17690497.35243  23348143.4064                   23348143.7234
 -54862159.35547 -42700645.89845  21308585.3134                   21308583.0944
 -36879871.49646 -28692242.34843  23633049.5234                   23633049.5554
  -5127689.72746  -3950500.56244  22597418.4454                   22597418.0004
 11  8  2  1 20 30.0000000  0  8G17G02G12G10G09G04G27G05
 -74873099.79347 -58297138.24644  22953237.3754                   22953235.0434
 -38540999.77048 -29985380.80146  20641332.2424                   20641326.9734
 -13671459.91847 -10609944.17645  21757534.5234                   21757531.5434
 -26999911.73047 -20995606.70345  20979593.1724                   20979591.2154
 -22884395.48846 -17709058.26643  23343611.2504                   23343610.4654
 -54888564.98047 -42721221.71945  21303560.1644                   21303558.1524
 -36916562.66846 -28720832.98043  23626066.4224                   23626067.0434
  -5323552.48447  -4103120.82444  22560146.9064                   22560145.8204
 11  8  2  1 21  0.0000000  0  9G17G02G12G10G09G04G27G05G25
 -74920440.43747 -58334027.08644  22944228.4384                   22944227.0744
 -38647528.58647 -30068390.25846  20621060.1884                   20621054.8054
 -13838290.24647 -10739941.82045  21725787.8524                   21725784.6024
 -27117826.76247 -21087488.53145  20957154.8524                   20957152.0984
 -22907867.89546 -17727348.51643  23339144.1414                   23339143.8874
 -54914672.79747 -42741565.49245  21298592.5314                   21298590.0904
 -36953019.65246 -28749241.09843  23619129.7734                   23619130.5594
  -5519107.25447  -4255501.10544  22522934.7114                   22522933.1914
  16914243.96956  13233195.70353  24639244.4694                   24639246.9344
 11  8  2  1 21 30.0000000  0  9G17G02G12G10G09G04G27G05G25
 -74967552.55547 -58370737.85544  22935263.4144                   22935261.6844
 -38753647.75448 -30151080.50846  20600866.4694                   20600861.5514
 -14004660.88747 -10869581.26645  21694128.3524                   21694125.6294
 -27235044.39847 -21178826.93045  20934848.6564                   20934846.3754
 -22931001.07046 -17745374.39543  23334742.7114                   23334742.0514
 -54940489.49247 -42761682.40645  21293679.7584                   21293677.2424
 -36989249.60946 -28777472.31243  23612235.7274                   23612235.9224
  -5714355.85947  -4407642.82045  22485780.1414                   22485778.8484
  16713531.62546  13076796.51243  24601051.4144                   24601052.0044
 11  8  2  1 22  0.0000000  0  9G17G02G12G10G09G04G27G05G25
 -75014437.89847 -58407271.89544  22926341.5944                   22926339.9884
 -38859361.11347 -30233454.53946  20580749.8444                   20580744.7854
 -14170572.25447 -10998862.84045  21662556.5704                   21662553.5044
 -27351566.53547 -21269623.38745  20912675.4064                   20912672.7074
 -22953801.42246 -17763140.95343  23330403.8364                   23330402.4844
 -54966020.30147 -42781576.55145  21288820.9224                   21288819.1094
 -37025258.34446 -28805531.16843  23605382.8834                   23605383.4024
  -5909298.30547  -4559545.95745  22448683.6884                   22448682.5124
  16513014.54346  12920549.49643  24562894.4064                   24562894.9774
 11  8  2  1 22 30.0000000  0  9G17G02G12G10G09G04G27G05G25
 -75061097.49246 -58443630.03544  22917462.4844                   22917460.7234
 -38964670.99247 -30315514.17246  20560710.1174                   20560704.7854
 -14336022.91447 -11127785.41445  21631072.4304                   21631069.3674
 -27467393.28947 -21359877.98845  20890634.4304                   20890631.7624
 -22976273.33646 -17780651.59043  23326127.7344                   23326126.7304
 -54991268.16048 -42801250.22745  21284016.3444                   21284014.2664
 -37061049.56246 -28833420.52043  23598571.6254                   23598573.0984
  -6103932.39847  -4711208.82045  22411645.7344                   22411644.8134
  16312694.36346  12764455.91443  24524774.9144                   24524774.7854
 11  8  2  1 23  0.0000000  0  9G17G02G12G10G09G04G27G05G25
 -75107529.36746 -58479810.71544  22908626.6254                   22908624.8284
 -39069576.78547 -30397258.93746  20540747.6254                   20540742.1994
 -14501009.00047 -11256345.99645  21599676.4614                   21599673.8164
 -27582522.00847 -21449588.66845  20868726.2034                   20868723.9844
 -22998418.68746 -17797907.73843  23321913.0784                   23321912.6484
 -55016234.09047 -42820704.21945  21279266.3834                   21279263.5204
 -37096624.69546 -28861141.47743  23591803.5004                   23591802.8014
  -6298253.74647  -4862627.99645  22374668.0704                   22374666.5394
  16112574.87146  12608518.68843  24486694.2974                   24486693.1844
 11  8  2  1 23 30.0000000  0  9G17G02G12G10G09G04G27G05G25
 -75153730.69946 -58515811.76244  22899834.7114                   22899833.4494
 -39174076.75447 -30478687.48046  20520861.3834                   20520856.6564
 -14665525.70747 -11384540.82045  21568369.9924                   21568367.0984
 -27696949.00847 -21538752.55545  20846951.3364                   20846948.6884
 -23020238.75046 -17814910.44343  23317761.0004                   23317760.4304
 -55040917.93047 -42839938.39145  21274568.4844                   21274566.0824
 -37131984.19146 -28888694.35543  23585074.3134                   23585074.7234
  -6492257.01647  -5013799.33244  22337750.5704                   22337749.1994
  15912660.90646  12452741.65643  24448651.0554                   24448651.1414
 11  8  2  1 24  0.0000000  0  9G17G02G12G10G09G04G27G05G25
 -75199700.85546 -58551632.67644  22891087.1884                   22891084.9734
 -39278172.55547 -30559801.08246  20501052.9304                   20501047.9344
 -14829570.59047 -11512367.98445  21537153.1024                   21537150.2664
 -27810673.57447 -21627369.07845  20825310.3674                   20825308.4924
 -23041736.77346 -17831662.20343  23313670.3754                   23313669.5634
 -55065322.12947 -42858954.67245  21269924.8364                   21269922.3594
 -37167131.05146 -28916081.57443  23578385.7034                   23578386.1214
  -6685939.68447  -5164720.84845  22300893.1024                   22300892.2234
  15712954.78546  12297126.60243  24410647.7584                   24410647.8164
 11  8  2  1 24 30.0000000  0  9G17G02G12G10G09G04G27G05G25
 -75245439.89846 -58587273.51644  22882382.6724                   22882381.7584
 -39381865.71948 -30640600.94546  20481320.5084                   20481315.7624
 -14993141.62147 -11639825.92245  21506026.3594                   21506023.2974
 -27923695.42247 -21715438.03145  20803803.0864                   20803800.6294
 -23062917.07046 -17848166.41443  23309640.0784                   23309639.6134
 -55089449.19547 -42877754.98845  21265333.6804                   21265331.3244
 -37202068.46146 -28943305.59443  23571737.9224                   23571737.7034
  -6879299.23847  -5315390.57045  22264098.4844                   22264096.7504
  15513458.35546  12141674.89543  24372685.3284                   24372685.2774
 11  8  2  1 25  0.0000000  0  9G17G02G12G10G09G04G27G05G25
 -75290945.76646 -58622732.66444  22873724.7974                   22873722.2234
 -39485155.77747 -30721086.69946  20461664.7584                   20461660.2734
 -15156235.67647 -11766912.19145  21474990.7974                   21474987.6174
 -28036012.24647 -21802957.62545  20782429.6094                   20782427.3754
 -23083781.96546 -17864424.86343  23305670.0474                   23305669.5944
 -55113300.28947 -42896340.27345  21260794.6724                   21260792.3674
 -37236798.28146 -28970367.85243  23565128.9384                   23565129.4734
  -7072331.57447  -5465805.34045  22227365.6334                   22227363.5594
  15314175.28146  11986389.40243  24334762.5234                   24334762.8874
 11  8  2  1 25 30.0000000  0  9G17G02G12G10G09G04G27G05G25
 -73760797.80946 -57430409.61344  23164902.2424                   23164899.2974
 -38012621.33248 -29573657.24646  20741879.6724                   20741874.0744
 -13743425.73447 -10666021.32045  21743839.8914                   21743837.0354
 -26572200.39147 -20662324.99645  21060983.9774                   21060981.5824
 -21528914.84446 -16652840.14544  23601551.4454                   23601550.3594
 -53561457.51247 -41687112.14145  21556100.4304                   21556098.6254
 -35695902.61346 -27769669.98843  23858350.5234                   23858351.5944
  -5689607.97347  -4388358.32445  22490488.7664                   22490487.3954
  16690533.91846  13058876.71143  24596675.1644                   24596675.7234
 11  8  2  1 26  0.0000000  0  9G17G02G12G10G09G04G27G05G25
 -73805839.55146 -57465507.08244  23156331.0944                   23156327.9694
 -38115111.22748 -29653519.49246  20722376.1644                   20722371.2734
 -13905561.02047 -10792360.49245  21712986.5164                   21712983.3524
 -26683107.28147 -20748745.93445  21039878.5864                   21039876.5594
 -21549161.52046 -16668616.82843  23597698.7894                   23597697.8164
 -53584765.58647 -41705274.30145  21551665.0704                   21551663.1994
 -35730227.62146 -27796416.84443  23851819.4304                   23851820.5784
  -5881979.53547  -4538258.18044  22453882.0704                   22453880.6294
  16491682.52746  12903927.64143  24558835.2974                   24558835.9774
 11  8  2  1 26 30.0000000  0  9G17G02G12G10G09G04G27G05G25
 -73850648.51246 -57500423.17644  23147803.0944                   23147801.4844
 -38217202.84047 -29733071.39146  20702948.4304                   20702943.6174
 -14067213.44147 -10918323.41045  21682225.0784                   21682222.0044
 -26793308.23047 -20834616.79345  21018908.7584                   21018906.0274
 -21569104.59446 -16684156.95343  23593903.1024                   23593902.8284
 -53607805.95347 -41723227.85945  21547280.8204                   21547278.5704
 -35764354.96146 -27823009.67642  23845325.7034                   23845325.3364
  -6074016.89547  -4687897.60545  22417338.2274                   22417336.7894
  16293050.30946  12749149.34843  24521036.2974                   24521037.1254
 11  8  2  1 27  0.0000000  0  9G17G02G12G10G09G04G27G05G25
 -73895224.65246 -57535157.85944  23139320.6334                   23139318.6604
 -38318898.01248 -29812314.38346  20683596.7664                   20683591.5474
 -14228381.19947 -11043908.66445  21651555.8834                   21651552.4304
 -26902803.00847 -20919937.39145  20998072.5554                   20998069.6884
 -21588748.35546 -16699463.84443  23590164.4844                   23590165.3954
 -53630581.16847 -41740974.80145  21542946.8674                   21542944.0474
 -35798288.10946 -27849451.10542  23838868.1174                   23838868.1054
  -6265717.35947  -4837274.52345  22380859.0784                   22380857.4384
  16094639.16846  12594543.35243  24483280.0634                   24483280.8244
 11  8  2  1 27 30.0000000  0  9G17G02G12G10G09G04G27G05G25
 -73939567.29346 -57569710.57444  23130882.9924                   23130881.2464
 -38420197.18048 -29891248.79746  20664320.1024                   20664315.1524
 -14389061.35947 -11169113.96145  21620979.4224                   21620976.3484
 -27011590.28947 -21004706.67245  20977370.8914                   20977368.1024
 -21608095.53946 -16714539.62543  23586483.1414                   23586483.3404
 -53653093.02747 -41758516.52045  21538662.7974                   21538660.9574
 -35832029.08646 -27875742.87943  23832447.0554                   23832447.7854
  -6457077.76247  -4986386.44945  22344443.8914                   22344442.6294
  15896452.18846  12440112.02743  24445566.1094                   24445566.5314
 11  8  2  1 28  0.0000000  0  9G17G02G12G10G09G04G27G05G25
 -73983677.91046 -57604082.52344  23122488.5394                   23122487.0164
 -38521103.53148 -29969877.12146  20645117.9454                   20645113.1094
 -14549254.00447 -11293939.39145  21590495.7504                   21590492.4774
 -27119671.85247 -21088926.06245  20956803.5234                   20956801.0594
 -21627151.77346 -16729388.71943  23582856.8524                   23582857.1764
 -53675345.84447 -41775856.38745  21534428.0164                   21534426.2664
 -35865583.06645 -27901888.96543  23826061.8204                   23826063.6094
  -6648097.15247  -5135232.64845  22308094.7734                   22308092.3094
  15698489.60246  12285855.53943  24407895.2424                   24407895.5004
 11  8  2  1 28 30.0000000  0  9G17G02G12G10G09G04G27G05G25
 -74027553.77746 -57638271.55144  23114139.1094                   23114137.5394
 -38621615.76648 -30048198.34446  20625991.1254                   20625986.3244
 -14708954.25447 -11418381.14145  21560105.7114                   21560102.5594
 -27227044.41447 -21172592.98045  20936371.5084                   20936369.0944
 -21645918.31646 -16744012.09443  23579287.2584                   23579285.4024
 -53697339.45347 -41792994.27745  21530243.3914                   21530241.0904
 -35898950.53146 -27927889.67643  23819713.3284                   23819713.7074
  -6838770.59047  -5283809.28945  22271810.0944                   22271808.3594
  15500756.11346  12131777.53143  24370267.7274                   24370268.3484
 11  8  2  1 29  0.0000000  0  9G17G02G12G10G09G04G27G05G25
 -74071194.63346 -57672277.42644  23105835.8524                   23105833.7034
 -38721735.46948 -30126213.69146  20606938.8054                   20606934.2504
 -14868160.28947 -11542437.77745  21529809.9304                   21529806.5354
 -27333707.73447 -21255707.23045  20916073.9384                   20916071.3674
 -21664398.71546 -16758412.46143  23575769.2974                   23575769.2854
 -53719076.32447 -41809932.12545  21526106.8054                   21526104.9144
 -35932134.53946 -27953747.39143  23813397.8284                   23813398.8094
  -7029095.43747  -5432114.30145  22235593.5944                   22235591.4184
  15303253.99246  11977879.83643  24332683.6414                   24332684.5274
 11  8  2  1 29 30.0000000  0  9G17G02G12G10G09G04G27G05G25
 -74114602.57446 -57706101.82844  23097575.2664                   23097573.0124
 -38821466.21147 -30203925.95746  20587960.9384                   20587956.2384
 -15026872.21947 -11666109.39145  21499607.7344                   21499604.7544
 -27439663.36347 -21338270.05545  20895911.0634                   20895908.7934
 -21682599.48446 -16772594.95743  23572306.2894                   23572305.5354
 -53740561.33647 -41826673.69945  21522017.9694                   21522015.7624
 -35965140.67646 -27979466.61343  23807118.5234                   23807118.6604
  -7219071.39847  -5580147.46545  22199441.0864                   22199439.8164
  15105983.14546  11824162.32043  24295145.0234                   24295145.1764
 11  8  2  1 30  0.0000000  0  9G17G02G12G10G09G04G27G05G25
 -74157777.48846 -57739744.63344  23089359.1484                   23089356.7274
 -38920809.46948 -30281336.29346  20569056.8364                   20569051.6454
 -15185087.93047 -11789394.33645  21469500.3054                   21469497.4184
 -27544911.03947 -21420281.22345  20875883.0864                   20875880.6914
 -21700524.14846 -16786562.28543  23568894.5554                   23568895.0664
 -53761796.56647 -41843220.65645  21517977.4144                   21517975.6414
 -35997971.98446 -28005049.52743  23800869.4534                   23800871.2194
  -7408695.84447  -5727906.68045  22163357.3524                   22163355.7584
  14908945.87546  11670626.85543  24257649.4774                   24257650.2424
 11  8  2  1 30 30.0000000  0  9G17G02G12G10G09G04G27G05G25
 -74200718.87946 -57773205.49244  23081187.5474                   23081185.8874
 -39019766.05147 -30358445.32046  20550226.0704                   20550221.1764
 -15342804.85247 -11912290.63345  21439488.1174                   21439484.8134
 -27649450.10947 -21501740.21145  20855989.5944                   20855987.7274
 -21718176.07446 -16800317.07043  23565536.3594                   23565535.9304
 -53782784.34847 -41859574.77745  21513983.6884                   21513981.1524
 -36030631.03946 -28030498.26643  23794655.6884                   23794656.2734
  -7597965.62947  -5875389.55945  22127340.2584                   22127338.6134
  14712144.86346  11517275.44943  24220199.9454                   24220200.0984
 11  8  2  1 31  0.0000000  0  9G17G02G12G10G09G04G27G05G25
 -74243427.34047 -57806484.84444  23073060.8134                   23073058.6214
 -39118338.77747 -30435255.23846  20531468.1644                   20531463.6724
 -15500022.10547 -12034797.55145  21409570.6024                   21409567.3594
 -27753281.31647 -21582647.63345  20836231.3984                   20836228.9264
 -21735560.25046 -16813863.26243  23562228.2814                   23562227.9614
 -53803528.07447 -41875738.74245  21510036.1414                   21510034.0204
 -36063122.15646 -28055816.09843  23788472.4384                   23788473.3754
  -7786879.34047  -6022594.95345  22091390.7034                   22091389.6294
  14515581.08246  11364108.89543  24182794.5084                   24182794.7464
 11  8  2  1 31 30.0000000  0  9G17G02G12G10G09G04G27G05G25
 -74285904.19146 -57839583.72744  23064977.0864                   23064975.5514
 -39216529.91447 -30511767.81246  20512782.5234                   20512778.3094
 -15656739.41047 -12156914.90645  21379748.2664                   21379745.1134
 -27856405.93447 -21663004.45745  20816607.4924                   20816605.1644
 -21752681.65246 -16827204.68743  23558970.3984                   23558969.3594
 -53824031.36747 -41891715.35245  21506134.5554                   21506132.2934
 -36095449.82846 -28081006.57443  23782321.1804                   23782321.4964
  -7975435.87547  -6169522.06245  22055509.5704                   22055508.0234
  14319255.50046  11211127.94543  24145435.2974                   24145435.5084
 11  8  2  1 32  0.0000000  0  9G17G02G12G10G09G04G27G05G25
 -74328148.91847 -57872501.73444  23056938.7734                   23056937.1564
 -39314340.54747 -30587983.89546  20494169.9454                   20494165.3204
 -15812954.10247 -12278640.61345  21350021.1334                   21350018.3204
 -27958823.35947 -21742810.23445  20797118.3594                   20797116.1254
 -21769543.52746 -16840343.86343  23555761.7504                   23555760.6954
 -53844296.18047 -41907506.13745  21502278.4774                   21502276.3014
 -36127616.65246 -28106071.72743  23776201.0784                   23776200.8364
  -8163632.33647  -6316168.60245  22019697.0084                   22019695.1844
  14123170.95346  11058334.81343  24108121.6254                   24108121.3714
 11  8  2  1 32 30.0000000  0  9G17G02G12G10G09G04G27G05G25
 -74370163.19146 -57905240.14144  23048943.5474                   23048941.4734
 -39411774.31647 -30663906.31646  20475629.0554                   20475624.5354
 -15968666.12947 -12399974.63745  21320390.6644                   21320387.5944
 -28060535.22347 -21822066.20745  20777763.2274                   20777760.7114
 -21786151.52046 -16853285.22743  23552600.9694                   23552601.0704
 -53864326.99647 -41923114.58245  21498467.3134                   21498464.7974
 -36159627.52746 -28131015.38743  23770108.4534                   23770108.9494
  -8351467.70347  -6462533.77745  21983953.6414                   21983951.4024
  13927327.62946  10905729.61743  24070853.7344                   24070853.5394
 11  8  2  1 33  0.0000000  0  9G17G02G12G10G09G04G27G05G25
 -74411947.24246 -57937799.16844  23040991.3674                   23040990.0234
 -39508833.12147 -30739536.55146  20457159.6334                   20457154.5514
 -16123873.82047 -12520915.67645  21290855.5554                   21290852.3984
 -28161541.86747 -21900772.67245  20758541.8914                   20758539.8554
 -21802509.85246 -16866032.05143  23549488.2894                   23549488.5664
 -53884126.52047 -41938542.79345  21494698.6174                   21494696.7154
 -36191486.10946 -28155840.35243  23764046.8984                   23764047.1414
  -8538940.00447  -6608616.03945  21948278.2194                   21948276.4344
  13731727.29746  10753313.78143  24033631.9534                   24033632.0234
 11  8  2  1 33 30.0000000  0  9G17G02G12G10G09G04G27G05G25
 -74453500.06646 -57970177.99644  23033085.3134                   23033082.8094
 -39605517.36747 -30814874.92246  20438761.1094                   20438756.1174
 -16278574.63347 -12641461.73845  21261416.7664                   21261413.6724
 -28261842.44547 -21978928.95345  20739455.6484                   20739453.3484
 -21818621.77046 -16878586.86343  23546422.3674                   23546421.7934
 -53903696.81247 -41953792.38745  21490975.1804                   21490973.0274
 -36223194.75046 -28180548.46543  23758012.6484                   23758012.7854
  -8726046.07047  -6754412.94545  21912673.5394                   21912671.6604
  13536372.74646  10601089.48443  23996457.3524                   23996457.2974
 11  8  2  1 34  0.0000000  0  9G17G02G12G10G09G04G27G05G25
 -72919401.15246 -56774776.25444  23325014.0704                   23325012.3444
 -38126406.10248 -29662320.69946  20720226.6334                   20720222.0554
 -14857342.46947 -11534008.07845  21531868.1174                   21531864.8054
 -26786014.40647 -20828933.06245  21020296.0234                   21020293.7304
 -20259071.21146 -15663352.68443  23843194.6254                   23843194.1884
 -52347620.17247 -40741265.14845  21787086.6024                   21787084.3834
 -34679336.24646 -26977541.95743  24051799.3134                   24051799.9964
  -7337358.02047  -5672318.32045  22176931.9144                   22176930.5394
  14916691.99646  11676662.93843  24259123.4614                   24259124.1024
 11  8  2  1 34 30.0000000  0  9G17G02G12G10G09G04G27G05G25
 -72960492.71946 -56806795.71544  23317194.4534                   23317193.6724
 -38222347.48447 -29737080.21546  20701969.8054                   20701964.9654
 -15011025.05547 -11653760.72345  21502623.1564                   21502620.1294
 -26884904.23847 -20905990.05145  21001477.7734                   21001475.2854
 -20274702.71946 -15675533.11343  23840220.3054                   23840219.7814
 -52366739.89547 -40756163.66045  21783448.4534                   21783446.0274
 -34710755.66846 -27002024.72743  24045819.6334                   24045821.4534
  -7523725.22747  -5817539.46945  22141467.3754                   22141465.2584
  14721834.59446  11524826.02043  24222043.3134                   24222043.1994
 11  8  2  1 35  0.0000000  0  9G17G02G12G10G09G04G27G05G25
 -73001353.76646 -56838635.48444  23309418.6644                   23309417.8364
 -38317919.21147 -29811551.68746  20683782.7974                   20683778.1254
 -15164195.83647 -11773114.55945  21473475.8984                   21473473.1334
 -26983088.46947 -20982497.22745  20982794.7664                   20982791.8094
 -20290099.87946 -15687530.99643  23837290.0164                   23837289.4454
 -52385638.00847 -40770889.46145  21779851.9144                   21779849.9494
 -34742035.62946 -27026398.84842  24039868.5704                   24039868.6174
  -7709719.64147  -5962470.12945  22106073.1564                   22106071.4304
  14527229.07846  11373185.43843  24185010.8984                   24185011.9454
 11  8  2  1 35 30.0000000  0  9G17G02G12G10G09G04G27G05G25
 -73041983.54746 -56870295.07444  23301687.7114                   23301685.8404
 -38413122.91848 -29885736.38746  20665666.4614                   20665661.0234
 -15316852.25847 -11892067.58645  21444426.4144                   21444423.4064
 -27080566.84047 -21058454.38745  20964245.0784                   20964242.0824
 -20305265.92246 -15699348.75043  23834404.3054                   23834404.0784
 -52404316.70747 -40785444.30945  21776297.6414                   21776295.5784
 -34773178.55546 -27050666.13742  24033941.7664                   24033942.2304
  -7895338.12547  -6107107.85545  22070751.8524                   22070749.8674
  14332877.99246  11221743.06343  24148026.6024                   24148027.6914
 11  8  2  1 36  0.0000000  0  9G17G02G12G10G09G04G27G05G25
 -73082383.56646 -56901775.64544  23294000.0084                   23293997.3714
 -38507961.55548 -29959636.61746  20647619.3594                   20647614.0744
 -15468994.48447 -12010619.95345  21415474.8284                   21415471.5594
 -27177341.21547 -21133862.95745  20945828.7424                   20945826.2424
 -20320206.45746 -15710990.73043  23831561.5234                   23831561.9774
 -52422779.99647 -40799831.30545  21772783.9534                   21772781.9804
 -34804189.22346 -27074830.35542  24028041.2894                   24028041.1604
  -8080579.85247  -6251452.00845  22035501.3054                   22035499.3484
  14138781.91846  11070499.39143  24111091.3594                   24111092.3094
 11  8  2  1 36 30.0000000  0  9G17G02G12G10G09G04G27G05G25
 -73122552.75046 -56933076.30544  23286355.7424                   23286353.8134
 -38602435.68748 -30033252.82046  20629640.8984                   20629636.2584
 -15620619.52047 -12128769.31645  21386621.2584                   21386618.1254
 -27273410.37147 -21208722.04345  20927547.8594                   20927545.2584
 -20334924.13746 -15722459.13743  23828760.9224                   23828760.3794
 -52441028.91047 -40814051.25045  21769311.0784                   21769309.3714
 -34835069.89545 -27098893.36342  24022164.3984                   24022165.4304
  -8265441.05947  -6395499.63345  22000323.3754                   22000321.4414
  13944944.27746  10919457.13743  24074206.2344                   24074206.3244
 11  8  2  1 37  0.0000000  0  9G17G02G12G10G09G04G27G05G25
 -73162491.31246 -56964197.25844  23278755.8594                   23278754.0824
 -38696547.11748 -30106586.40246  20611732.4614                   20611727.5044
 -15771725.54747 -12246514.26245  21357866.6334                   21357863.9614
 -27368775.21547 -21283032.27745  20909400.1484                   20909397.6374
 -20349423.04746 -15733757.07843  23826002.3524                   23826001.8164
 -52459066.25847 -40828106.34445  21765878.9694                   21765876.9574
 -34865824.00045 -27122857.70742  24016312.2894                   24016313.4454
  -8449919.94547  -6539249.35545  21965218.0234                   21965216.7194
  13751366.73047  10768617.53943  24037369.6254                   24037369.3404
 11  8  2  1 37 30.0000000  0  9G17G02G12G10G09G04G27G05G25
 -73202199.58646 -56995138.77344  23271199.5554                   23271197.9144
 -38790297.91048 -30179638.96546  20593892.1334                   20593887.0234
 -15922311.70747 -12363854.10546  21329211.1644                   21329208.2504
 -27463436.27047 -21356794.11745  20891386.6564                   20891384.3634
 -20363707.63346 -15744888.01642  23823282.8204                   23823283.2774
 -52476895.20747 -40841999.05145  21762486.4694                   21762484.3674
 -34896455.49245 -27146726.45342  24010481.8134                   24010485.0394
  -8634014.60547  -6682699.68445  21930185.7274                   21930184.4734
  13558051.06346  10617982.02043  24000581.8364                   24000581.9614
 11  8  2  1 38  0.0000000  0  9G17G02G12G10G09G04G27G05G25
 -73241679.12946 -57025902.08244  23263686.9384                   23263685.0594
 -38883690.91447 -30252412.73046  20576120.1414                   20576114.8404
 -16072377.52347 -12480788.50046  21300655.0314                   21300651.5434
 -27557394.93747 -21430008.64545  20873507.4534                   20873504.5434
 -20377783.22346 -15755856.06243  23820605.0394                   23820605.0434
 -52494519.39847 -40855732.19545  21759132.7344                   21759130.3954
 -34926968.67245 -27170503.13342  24004677.2034                   24004678.2974
  -8817724.00447  -6825849.82845  21895227.5944                   21895225.2584
  13364998.03146  10467551.14543  23963845.5784                   23963845.3244
 11  8  2  1 38 30.0000000  0  9G17G02G12G10G09G04G27G05G25
 -73280929.18446 -57056486.59044  23256218.3984                   23256216.3404
 -38976727.00447 -30324908.37546  20558415.7424                   20558411.2584
 -16221920.44147 -12597315.43746  21272197.5784                   21272194.1094
 -27650651.03947 -21502675.71945  20855761.4844                   20855758.8014
 -20391652.83246 -15766663.61743  23817966.6024                   23817966.3594
 -52511940.49647 -40869307.08245  21755817.2274                   21755815.7544
 -34957366.12945 -27194189.62542  23998893.2344                   23998894.1914
  -9001044.87147  -6968697.20745  21860342.2114                   21860340.7234
  13172210.51246  10317327.19143  23927159.7814                   23927159.7154
 11  8  2  1 39  0.0000000  0  9G17G02G12G10G09G04G27G05G25
 -73319950.35546 -57086892.69944  23248792.2274                   23248790.4224
 -39069408.27347 -30397127.53946  20540778.9304                   20540774.5274
 -16370938.75047 -12713433.59445  21243840.0704                   21243837.0004
 -27743205.25847 -21574795.87545  20838148.8674                   20838146.1414
 -20405320.49246 -15777313.87143  23815364.6174                   23815365.4184
 -52529161.31647 -40882725.92245  21752540.2194                   21752538.5354
 -34987651.42245 -27217788.64142  23993129.7114                   23993130.6454
  -9183975.35547  -7111240.38345  21825532.1724                   21825529.9264
  12979690.32046  10167311.53543  23890524.0944                   23890523.6724
 11  8  2  1 39 30.0000000  0  9G17G02G12G10G09G04G27G05G25
 -73358744.43746 -57117121.85944  23241410.0634                   23241408.2934
 -39161738.48047 -30469073.14546  20523209.4144                   20523204.7934
 -16519433.55147 -12829143.82845  21215582.5084                   21215579.5554
 -27835060.13747 -21646371.08645  20820669.3134                   20820666.8014
 -20418792.63746 -15787811.70743  23812801.5944                   23812801.9924
 -52546186.64847 -40895992.43045  21749300.8364                   21749298.9534
 -35017829.95345 -27241304.49243  23987385.8364                   23987387.7814
  -9366515.18747  -7253479.15645  21790795.7114                   21790793.5634
  12787437.33246  10017504.06343  23853939.5084                   23853939.3094
 11  8  2  1 40  0.0000000  0  9G17G02G12G10G09G04G27G05G25
 -73397308.87146 -57147172.05943  23234071.9694                   23234069.0944
 -39253716.61347 -30540744.41446  20505706.3594                   20505701.4224
 -16667400.49247 -12944442.73045  21187425.5474                   21187422.2544
 -27926213.39547 -21717399.57845  20803323.4774                   20803320.6254
 -20432070.38746 -15798158.11743  23810274.7814                   23810274.4534
 -52563015.98447 -40909106.22345  21746098.5234                   21746095.9734
 -35047902.26245 -27264737.55543  23981664.8754                   23981665.2274
  -9548660.14147  -7395410.25445  21756134.6644                   21756132.6054
  12595456.30646   9867908.55543  23817407.0944                   23817406.8134
 11  8  2  1 40 30.0000000  0  9G17G02G12G10G09G04G27G05G25
 -73435645.76246 -57177044.99644  23226776.5234                   23226774.3204
 -39345346.04747 -30612143.97346  20488269.8754                   20488264.9344
 -16814839.60247 -13059330.34446  21159368.6564                   21159365.4064
 -28016667.45347 -21787883.24645  20786110.6024                   20786107.7664
 -20445159.44146 -15808357.44543  23807783.7344                   23807784.3984
 -52579653.62547 -40922070.62145  21742931.9064                   21742930.0704
 -35077873.35545 -27288091.75043  23975960.6804                   23975962.0084
  -9730408.77347  -7537032.51645  21721548.9924                   21721546.6024
  12403747.81346   9718525.39843  23780925.8364                   23780925.4184
 11  8  2  1 41  0.0000000  0  9G17G02G12G10G09G04G27G05G25
 -73473754.44546 -57206740.10244  23219525.0554                   23219523.0234
 -39436628.19947 -30683272.91446  20470899.3284                   20470894.6844
 -16961748.56247 -13173804.85945  21131413.1094                   21131409.8914
 -28106422.34447 -21857822.10545  20769030.2504                   20769028.3914
 -20458063.19546 -15818412.39143  23805329.0084                   23805329.0984
 -52596101.73047 -40934887.34445  21739802.5004                   21739800.6134
 -35107746.03145 -27311369.29743  23970276.3444                   23970277.5704
  -9911758.47747  -7678343.90245  21687039.7584                   21687037.5234
  12212314.23846   9569356.49243  23744496.3754                   23744496.9454
 11  8  2  1 41 30.0000000  0  9G17G02G12G10G09G04G27G05G25
 -73511634.37146 -57236256.94944  23212316.2344                   23212315.0004
 -39527564.00447 -30754131.96946  20453594.7114                   20453590.4104
 -17108124.62547 -13287864.12945  21103558.1724                   21103555.2194
 -28195477.76247 -21927215.92645  20752083.9224                   20752081.4534
 -20470784.76646 -15828325.42243  23802908.3754                   23802908.3524
 -52612361.87147 -40947557.59045  21736707.8524                   21736705.8444
 -35137522.97345 -27334572.25443  23964610.7664                   23964610.9574
 -10092706.27747  -7819342.13745  21652606.1564                   21652603.9224
  12021158.43846   9420403.98043  23708120.5784                   23708121.1524
 11  8  2  1 42  0.0000000  0  9G17G02G12G10G09G04G27G05G25
 -71973863.25046 -56037993.77744  23504944.6174                   23504942.8164
 -38042730.78948 -29597119.06646  20736149.3284                   20736144.5664
 -15678541.60547 -12173903.33245  21375599.1414                   21375595.8484
 -26708410.56247 -20768462.25845  21035063.6254                   21035061.2854
 -18907906.83246 -14610498.52743  24100313.9844                   24100313.7624
 -51053015.10947 -39732482.20745  22033441.7114                   22033439.8244
 -33591785.60946 -26130101.68443  24258754.2114                   24258755.3484
  -8697823.41847  -6732420.39545  21918042.9694                   21918041.4304
  13405709.78146  10499275.19943  23971592.4694                   23971592.6684
 11  8  2  1 42 30.0000000  0  9G17G02G12G10G09G04G27G05G25
 -72011286.68446 -56067154.90644  23497823.2974                   23497821.0274
 -38132979.44147 -29667442.69146  20718975.8284                   20718970.6294
 -15823849.92647 -12287130.59845  21347947.8524                   21347944.9614
 -26796069.75447 -20836768.10545  21018382.9534                   21018380.0744
 -18920276.85246 -14620137.58243  24097960.4454                   24097960.3914
 -51068907.62147 -39744866.00845  22030417.6724                   22030415.1414
 -33621381.67246 -26153163.65243  24253122.6254                   24253123.7704
  -8877962.10247  -6872788.17245  21883764.0314                   21883762.1524
  13215114.88746  10350759.78143  23935323.5474                   23935323.0904
 11  8  2  1 43  0.0000000  0  9G17G02G12G10G09G04G27G05G25
 -72048481.64146 -56096138.01643  23490745.4224                   23490743.4964
 -38222886.80948 -29737500.36746  20701866.8364                   20701862.2664
 -15968621.19147 -12399939.38346  21320398.8364                   21320395.9384
 -26883031.33247 -20904530.36745  21001834.1724                   21001831.5634
 -18932476.40646 -14629643.77343  24095638.2974                   24095637.8914
 -51084619.31247 -39757108.90645  22027427.6724                   22027425.9454
 -33650891.62546 -26176158.59843  24247507.5784                   24247507.6054
  -9057692.30947  -7012837.64545  21849563.1644                   21849559.9774
  13024804.10946  10202465.69943  23899108.5004                   23899107.8754
 11  8  2  1 43 30.0000000  0  9G17G02G12G10G09G04G27G05G25
 -72085449.82046 -56124944.41844  23483710.6174                   23483708.3054
 -38312456.09448 -29807294.60946  20684821.9224                   20684817.2304
 -16112855.53947 -12512329.78546  21292951.6884                   21292948.9224
 -26969297.59447 -20971750.81245  20985418.6334                   20985416.1604
 -18944510.88746 -14639021.39543  24093349.0004                   24093349.1174
 -51100154.37547 -39769214.16845  22024471.4924                   22024469.8164
 -33680320.32446 -26199090.16843  24241907.2664                   24241908.8754
  -9237013.39547  -7152568.32445  21815438.6254                   21815436.9454
  12834778.06646  10054393.51243  23862947.7344                   23862947.3954
 11  8  2  1 44  0.0000000  0  9G17G02G12G10G09G04G27G05G25
 -72122192.05146 -56153574.77343  23476718.8914                   23476716.4024
 -38401689.78548 -29876827.34846  20667842.0554                   20667836.8554
 -16256552.46547 -12624301.41445  21265607.1644                   21265604.0784
 -27054869.75047 -21038430.40645  20969134.5634                   20969131.8204
 -18956385.09046 -14648274.09043  24091089.1174                   24091088.6644
 -51115516.00447 -39781184.28145  22021548.7034                   22021546.3914
 -33709672.15246 -26221961.79343  24236321.8674                   24236323.4924
  -9415923.98847  -7291979.12945  21781393.2344                   21781391.3364
  12645037.78146   9906543.97743  23826841.1024                   23826840.7234
 11  8  2  1 44 30.0000000  0  9G17G02G12G10G09G04G27G05G25
 -72158711.06646 -56182031.18444  23469769.1334                   23469767.5354
 -38490591.85547 -29946101.68446  20650923.8754                   20650919.3914
 -16399712.56647 -12735854.73445  21238364.6884                   21238361.5594
 -27139751.27747 -21104571.83245  20952982.2974                   20952979.3634
 -18968105.45746 -14657406.90243  24088858.5634                   24088857.6684
 -51130709.05147 -39793023.02744  22018657.2504                   22018655.6524
 -33738952.58645 -26244777.84443  24230749.6954                   24230750.7814
  -9594424.44547  -7431070.34445  21747425.4224                   21747422.8714
  12455583.16446   9758917.01643  23790789.6094                   23790788.4304
 11  8  2  1 45  0.0000000  0  9G17G02G12G10G09G04G27G05G25
 -72195005.82446 -56210312.86744  23462863.0944                   23462861.1374
 -38579163.21147 -30015118.31646  20634069.7814                   20634065.0474
 -16542333.57447 -12846987.99246  21211224.8524                   21211221.9024
 -27223942.18447 -21170175.12145  20936960.9534                   20936958.3554
 -18979674.53946 -14666421.85243  24086657.4924                   24086657.0474
 -51145734.86347 -39804731.46145  22015797.5234                   22015796.0434
 -33768163.91045 -26267540.06642  24225192.0554                   24225193.4924
  -9772511.51247  -7569839.44145  21713536.8444                   21713534.8324
  12266417.23046   9611515.00443  23754792.4924                   23754791.9414
 11  8  2  1 45 30.0000000  0  9G17G02G12G10G09G04G27G05G25
 -72231076.22746 -56238419.68043  23455998.5394                   23455996.8244
 -38667405.28148 -30083878.36746  20617278.2584                   20617272.9734
 -16684413.68747 -12957699.77046  21184187.7584                   21184185.1334
 -27307442.66847 -21235240.42245  20921071.3914                   20921068.6684
 -18991096.25846 -14675321.95743  24084483.6024                   24084484.4144
 -51160595.65647 -39816311.31645  22012970.5084                   22012967.9884
 -33797309.08645 -26290250.68442  24219645.5234                   24219647.1134
  -9950182.66447  -7708284.45345  21679727.1484                   21679725.0514
  12077542.35246   9464339.82443  23718849.9844                   23718851.0864
 11  8  2  1 46  0.0000000  0  9G17G02G12G10G09G04G27G05G25
 -72266920.78546 -56266350.55944  23449177.2344                   23449175.6954
 -38755318.30148 -30152382.02046  20600548.7274                   20600543.6414
 -16825949.72347 -13067987.57846  21157254.8594                   21157251.4924
 -27390252.25047 -21299767.36745  20905313.5314                   20905310.5474
 -19002372.98046 -14684109.12143  24082337.6644                   24082338.3834
 -51175292.24247 -39827763.23044  22010173.3754                   22010171.1604
 -33826389.91845 -26312911.23442  24214111.6024                   24214114.0204
 -10127434.36347  -7846402.61745  21645996.9924                   21645994.9694
  11888962.16846   9317394.25043  23682964.3364                   23682964.8794
 11  8  2  1 46 30.0000000  0  9G17G02G12G10G09G04G27G05G25
 -72302542.06646 -56294107.42244  23442399.5234                   23442397.4844
 -38842906.22348 -30220632.34846  20583880.9694                   20583876.2974
 -16966942.76247 -13177852.27345  21130424.0634                   21130421.2424
 -27472374.02047 -21363758.33645  20889686.2274                   20889683.4774
 -19013510.81646 -14692788.04743  24080218.4224                   24080219.2814
 -51189829.07047 -39839090.64844  22007407.0234                   22007405.3204
 -33855411.63745 -26335525.69542  24208589.4144                   24208592.5704
 -10304266.58247  -7984193.88745  21612347.0314                   21612345.0394
  11700676.57446   9170678.23043  23647135.0474                   23647135.6174
 11  8  2  1 47  0.0000000  0  9G17G02G12G10G09G04G27G05G25
 -72337937.83246 -56321688.56643  23435663.1564                   23435661.7504
 -38930168.70748 -30288629.08646  20567275.3204                   20567271.0314
 -17107389.25847 -13287291.10246  21103698.0784                   21103694.9494
 -27553806.30547 -21427212.04345  20874189.7424                   20874187.2074
 -19024511.22346 -14701359.89142  24078125.5164                   24078125.9384
 -51204206.25047 -39850293.65644  22004671.2274                   22004669.0514
 -33884375.55545 -26358095.05942  24203076.3834                   24203080.4964
 -10480674.91447  -8121654.86345  21578778.0944                   21578775.3634
  11512689.93446   9024195.17643  23611362.0554                   23611362.9804
 11  8  2  1 47 30.0000000  0  9G17G02G12G10G09G04G27G05G25
 -72373107.93746 -56349093.91043  23428970.6804                   23428968.6884
 -39017107.18447 -30356373.35246  20550731.4924                   20550726.9654
 -17247287.50848 -13396302.71945  21077077.0784                   21077073.1804
 -27634550.16047 -21490129.32445  20858824.6414                   20858822.0704
 -19035377.91446 -14709827.56643  24076056.7114                   24076058.3324
 -51218426.27347 -39861374.20744  22001965.2274                   22001963.1804
 -33913284.56245 -26380621.60242  24197575.2814                   24197578.8834
 -10656657.03147  -8258783.74645  21545289.1414                   21545286.6954
  11325004.51646   8877946.84043  23575646.9774                   23575647.3204
 11  8  2  1 48  0.0000000  0  9G17G02G12G10G09G04G27G05G25
 -72408053.89846 -56376324.53943  23422320.5474                   23422319.0044
 -39103724.27747 -30423867.18746  20534248.8914                   20534244.1134
 -17386637.13747 -13504886.83645  21050559.0864                   21050556.1524
 -27714607.49647 -21552511.64545  20843590.1884                   20843588.2584
 -19046116.08646 -14718194.99243  24074014.2504                   24074014.4494
 -51232492.39847 -39872334.84044  21999288.6094                   21999286.6684
 -33942143.21545 -26403108.97742  24192084.3914                   24192087.4064
 -10832212.24247  -8395579.95345  21511882.3284                   21511880.0124
  11137621.14546   8731933.84444  23539988.7664                   23539989.5274
 11  8  2  1 48 30.0000000  0  9G17G02G12G10G09G04G27G05G25
 -72442771.16046 -56403376.98043  23415715.0704                   23415712.6334
 -39190017.09048 -30491108.33246  20517828.2034                   20517823.4734
 -17525432.23847 -13613038.84846  21024147.4774                   21024144.1564
 -27793974.62547 -21614356.16045  20828487.8284                   20828484.9804
 -19056724.93446 -14726461.73443  24071994.5634                   24071995.5704
 -51246402.56647 -39883173.94945  21996641.2734                   21996639.7624
 -33970950.18445 -26425556.10942  24186602.7274                   24186605.8674
 -11007333.31647  -8532037.89145  21478558.1024                   21478555.5634
  10950546.71146   8586161.59844  23504390.4774                   23504390.4534
 11  8  2  1 49  0.0000000  0  9G17G02G12G10G09G04G27G05G25
 -72477258.89146 -56430250.55943  23409151.3364                   23409150.3054
 -39275986.86348 -30558097.76246  20501468.6024                   20501463.5594
 -17663670.48848 -13720756.94946  20997841.8984                   20997838.2624
 -27872651.77047 -21675663.01245  20813515.3984                   20813513.2584
 -19067207.30946 -14734629.95342  24070001.1884                   24070001.4614
 -51260157.65647 -39893892.21945  21994024.1024                   21994022.3594
 -33999707.42645 -26447964.57442  24181128.7584                   24181134.3554
 -11182017.38747  -8668155.31645  21445316.5554                   21445314.1994
  10763784.33646   8440632.48444  23468850.7194                   23468850.3444
 11  8  2  1 49 30.0000000  0  9G17G02G12G10G09G04G27G05G25
 -72511521.92246 -56456949.08243  23402632.1484                   23402630.0864
 -39361639.52747 -30624840.09446  20485169.4844                   20485164.4884
 -17801355.27747 -13828043.79746  20971641.3054                   20971637.8634
 -27950644.45347 -21736436.51645  20798673.8984                   20798671.1644
 -19077571.53545 -14742706.09442  24068027.6644                   24068029.8444
 -51273764.88347 -39904495.27044  21991434.4844                   21991432.5554
 -34028422.79745 -26470340.25442  24175665.6954                   24175669.9224
 -11356266.90247  -8803934.11345  21412157.9144                   21412155.7464
  10577331.56347   8295344.62544  23433370.0784                   23433369.9184
 11  8  2  1 50  0.0000000  0  9G17G02G12G10G09G04G27G05G25
 -72545561.58246 -56483473.52343  23396153.7894                   23396153.3634
 -39446978.03948 -30691337.63346  20468929.8524                   20468925.1764
 -17938486.07048 -13934898.94946  20945545.8054                   20945543.0124
 -28027954.69547 -21796678.25845  20783962.7274                   20783959.9964
 -19087822.66046 -14750694.05542  24066078.1024                   24066079.2304
 -51287227.39147 -39914985.56244  21988873.1954                   21988870.8524
 -34057100.63345 -26492686.74642  24170208.3674                   24170212.2274
 -11530080.94547  -8939373.57445  21379082.1564                   21379079.8244
  10391189.37547   8150298.80144  23397947.7114                   23397947.6134
 11  8  2  1 50 30.0000000  0  9G17G02G12G10G09G04G27G05G25
 -71003948.64546 -55282216.75043  23689513.9224                   23689511.2774
 -37956573.16047 -29529983.18446  20752544.4694                   20752539.5314
 -16499628.98047 -12813711.59446  21219351.2504                   21219348.1254
 -26529153.00047 -20628780.82445  21069175.0634                   21069172.1294
 -17522536.10246 -13530990.36342  24363941.8134                   24363942.8444
 -49725119.14147 -38697758.36744  22286131.9924                   22286130.3524
 -32510315.16446 -25287399.45342  24464553.7584                   24464555.3674
 -10128023.57847  -7846861.28145  21645884.6724                   21645882.5944
  11780794.23847   9233107.82044  23662380.1254                   23662380.3284
 11  8  2  1 51  0.0000000  0  9G17G02G12G10G09G04G27G05G25
 -71037534.25446 -55308387.34843  23683122.3594                   23683120.4184
 -38041280.69548 -29595989.05546  20736425.4454                   20736420.6094
 -16635640.42247 -12919694.52046  21193469.3674                   21193465.7544
 -26605094.05947 -20687955.66845  21054723.7114                   21054721.0554
 -17532564.87146 -13538805.06243  24362033.7814                   24362034.1684
 -49738291.74247 -38708022.75044  22283625.6484                   22283623.4454
 -32538919.96946 -25309688.97742  24459110.3754                   24459112.0204
 -10300952.64547  -7981611.16045  21612977.7664                   21612975.1414
  11595287.36747   9088557.00844  23627080.2814                   23627079.8444
 11  8  2  1 51 30.0000000  0  9G17G02G12G10G09G04G27G05G25
 -71070898.82046 -55334385.74243  23676773.4694                   23676771.5354
 -38125681.46147 -29661755.88346  20720364.3594                   20720359.1334
 -16771096.48847 -13025244.69146  21167692.9844                   21167689.4884
 -26680358.26647 -20746603.07445  21040401.3914                   21040398.8364
 -17542493.87146 -13546542.03943  24360144.5164                   24360145.3634
 -49751328.84447 -38718181.53944  22281144.5234                   22281142.3914
 -32567499.08646 -25331958.51242  24453670.8674                   24453673.1804
 -10473442.14847  -8116018.50045  21580153.8984                   21580151.4144
  11410095.19547   8944251.48043  23591839.3834                   23591839.2344
 11  8  2  1 52  0.0000000  0  9G17G02G12G10G09G04G27G05G25
 -71104041.48446 -55360211.19943  23670466.5314                   23670464.4344
 -38209775.80948 -29727283.94146  20704361.9064                   20704356.9694
 -16905994.17647 -13130359.77345  21142022.3364                   21142019.1374
 -26754945.98847 -20804723.36345  21026207.7894                   21026205.6414
 -17552325.68046 -13554203.29343  24358273.8914                   24358274.4264
 -49764231.19147 -38728235.33644  22278689.5004                   22278687.8164
 -32596054.37946 -25354209.46943  24448238.6094                   24448239.1954
 -10645488.88347  -8250080.84845  21547414.5394                   21547412.3014
  11225221.23447   8800193.84044  23556658.9774                   23556658.5164
 11  8  2  1 52 30.0000000  0  9G17G02G12G10G09G04G27G05G25
 -71136961.10946 -55385862.87944  23664202.3134                   23664201.1914
 -38293564.16447 -29792573.55946  20688417.4534                   20688412.6914
 -17040331.29347 -13235038.03546  21116458.9144                   21116456.1844
 -26828856.71147 -20862316.12545  21012143.2584                   21012140.3554
 -17562062.93046 -13561790.85543  24356420.4694                   24356421.2774
 -49776999.87947 -38738184.96144  22276259.5944                   22276258.0084
 -32624587.69946 -25376443.32842  24442807.3914                   24442810.0944
 -10817089.32447  -8383795.42245  21514759.7344                   21514757.1374
  11040668.92646   8656386.85243  23521539.4614                   23521539.1994
 11  8  2  1 53  0.0000000  0  9G17G02G12G10G09G04G27G05G25
 -71169658.15646 -55411341.15243  23657980.0634                   23657978.1994
 -38377048.27747 -29857626.10946  20672530.8284                   20672526.0704
 -17174106.62147 -13339278.54345  21091002.3754                   21090999.3094
 -26902091.66047 -20919382.31645  20998207.3524                   20998204.3284
 -17571709.51646 -13569307.78943  24354585.0944                   24354586.1844
 -49789637.22747 -38748032.27044  22273854.8594                   22273853.0594
 -32653102.36345 -25398662.64543  24437382.2974                   24437383.7234
 -10988241.53147  -8517160.72745  21482190.6484                   21482188.0554
  10856440.28546   8512832.08643  23486482.2974                   23486481.7344
 11  8  2  1 53 30.0000000  0  9G17G02G12G10G09G04G27G05G25
 -71202131.17646 -55436644.83244  23651800.9454                   23651799.5044
 -38460228.34048 -29922441.73446  20656702.5314                   20656697.4614
 -17307317.00448 -13443078.83646  21065652.9064                   21065649.7664
 -26974650.66847 -20975921.77745  20984399.6724                   20984397.1294
 -17581267.46546 -13576755.69143  24352767.5704                   24352767.3244
 -49802143.76647 -38757777.63344  22271475.1564                   22271472.3914
 -32681599.98845 -25420868.68742  24431958.5944                   24431961.1804
 -11158942.02047  -8650174.04345  21449707.4924                   21449704.7734
  10672539.02746   8369532.40243  23451486.6804                   23451486.4454
 11  8  2  1 54  0.0000000  0  9G17G02G12G10G09G04G27G05G25
 -71234384.84846 -55461777.59444  23645663.8204                   23645662.0164
 -38543110.93048 -29987025.56646  20640930.2814                   20640925.0784
 -17439966.13347 -13546441.78546  21040411.2584                   21040407.5164
 -27046539.57847 -21031939.10545  20970719.4534                   20970716.8134
 -17590745.50446 -13584141.23043  24350963.2344                   24350963.9414
 -49814526.57047 -38767426.57844  22269118.9144                   22269117.0984
 -32710088.39845 -25443067.60542  24426537.6644                   24426540.4064
 -11329193.45747  -8782837.44945  21417309.2424                   21417306.9264
  10488962.60246   8226485.84044  23416553.7814                   23416553.6484
 11  8  2  1 54 30.0000000  0  9G17G02G12G10G09G04G27G05G25
 -71266417.23846 -55486737.94944  23639567.8444                   23639566.6024
 -38625695.61747 -30051377.25846  20625214.9304                   20625209.9064
 -17572051.10247 -13649365.13745  21015276.0084                   21015272.7274
 -27117757.65247 -21087433.69945  20957167.3984                   20957164.3984
 -17600145.11745 -13591465.71143  24349174.7274                   24349174.8834
 -49826785.50047 -38776979.00044  22266786.1414                   22266784.3954
 -32738568.65645 -25465260.16442  24421117.1954                   24421122.2664
 -11498991.54747  -8915147.60545  21384997.7034                   21384995.1644
  10305715.29746   8083695.75044  23381682.2664                   23381682.6254
 11  8  2  1 55  0.0000000  0  9G17G02G12G10G09G04G27G05G25
 -71298228.62946 -55511526.06243  23633514.6644                   23633512.4964
 -38707984.03947 -30115498.09846  20609556.0164                   20609551.1294
 -17703570.65647 -13751847.90246  20990248.1414                   20990245.8554
 -27188306.19147 -21142406.57845  20943742.5944                   20943739.5984
 -17609470.12946 -13598732.08242  24347400.7424                   24347400.6884
 -49838922.82847 -38786436.64844  22264476.3834                   22264474.4614
 -32767044.10245 -25487448.93042  24415699.0474                   24415702.8444
 -11668334.32447  -9047102.98045  21352773.0704                   21352770.8364
  10122799.14547   7941163.72744  23346874.3134                   23346875.1134
 11  8  2  1 55 30.0000000  0  9G17G02G12G10G09G04G27G05G25
 -71329819.12146 -55536142.05143  23627502.5164                   23627501.1724
 -38789977.70747 -30179389.26246  20593953.0084                   20593948.1804
 -17834523.05947 -13853888.73046  20965329.8754                   20965325.8364
 -27258186.30547 -21196858.59445  20930444.2424                   20930441.9734
 -17618724.21146 -13605943.14143  24345639.8754                   24345640.0004
 -49850940.57047 -38795801.13744  22262189.5234                   22262187.0474
 -32795517.44945 -25509636.08642  24410281.2894                   24410285.1524
 -11837219.61347  -9178701.85245  21320635.3594                   21320632.5274
   9940216.51246   7798891.58244  23312130.0704                   23312129.8714
 11  8  2  1 56  0.0000000  0  9G17G02G12G10G09G04G27G05G25
 -71361190.75046 -55560587.48043  23621533.1884                   23621531.4304
 -38871679.89847 -30243053.30146  20578405.2664                   20578400.6054
 -17964909.07847 -13955488.22746  20940517.6254                   20940514.5514
 -27327400.85247 -21250791.99645  20917273.2424                   20917270.6954
 -17627912.76245 -13613103.09443  24343890.1414                   24343891.8984
 -49862842.77047 -38805075.58244  22259924.3674                   22259922.2934
 -32823993.69145 -25531825.54742  24404862.9844                   24404866.1454
 -12005647.46547  -9309944.30145  21288583.8134                   21288581.7234
   9757967.82047   7656879.62544  23277449.2114                   23277449.2584
 11  8  2  1 56 30.0000000  0  9G17G02G12G10G09G04G27G05G25
 -71392340.00046 -55584859.66443  23615605.5474                   23615603.5084
 -38953088.98847 -30306488.95746  20562913.9144                   20562909.1524
 -18094723.97347 -14056642.67246  20915814.5004                   20915811.5234
 -27395947.85947 -21304205.23845  20904229.5314                   20904226.5864
 -17637035.75446 -13620212.03143  24342153.9534                   24342155.7974
 -49874627.79747 -38814258.73444  22257681.4304                   22257680.0314
 -32852472.14845 -25554016.68742  24399442.8594                   24399446.6414
 -12173612.21547  -9440825.89545  21256621.4924                   21256619.4924
   9576058.78147   7515132.34844  23242833.8134                   23242833.6414
 11  8  2  1 57  0.0000000  0  9G17G02G12G10G09G04G27G05G25
 -71423269.44546 -55608960.56243  23609720.3054                   23609718.1214
 -39034209.03548 -30369699.37546  20547477.2584                   20547472.3674
 -18223969.05947 -14157353.13346  20891220.4384                   20891217.3204
 -27463831.44947 -21357101.52745  20891311.2814                   20891308.6214
 -17646099.48046 -13627274.76643  24340430.2974                   24340431.0594
 -49886300.10547 -38823354.04744  22255460.4064                   22255458.7774
 -32880958.430 5                  24394022.328
 -12341114.18047  -9571346.86745  21224747.1884                   21224744.9304
   9394489.26647   7373649.64544  23208282.0554                   23208281.9734
 11  8  2  1 57 30.0000000  0  8G17G02G12G10G09G04G05G25
 -71453977.76246 -55632889.12943  23603875.9534                   23603874.8554
 -39115040.43448 -30432684.87146  20532095.4534                   20532090.8204
 -18352641.94147 -14257617.70746  20866734.5554                   20866731.2464
 -27531051.49247 -21409480.77345  20878520.2424                   20878517.2194
 -17655106.12146 -13634293.05943  24338716.6644                   24338717.2704
 -49897860.37547 -38832362.06644  22253260.5864                   22253259.0274
 -12508150.02347  -9701504.63345  21192961.3204                   21192958.7274
   9213262.69947   7232434.14844  23173796.1484                   23173795.6724
 11  8  2  1 58  0.0000000  0  8G17G02G12G10G09G04G05G25
 -71484465.00046 -55656645.48443  23598075.1564                   23598072.7704
 -39195584.21548 -30495446.25046  20516768.5554                   20516763.4964
 -18480740.80947 -14357435.00046  20842358.6254                   20842355.0944
 -27597609.07847 -21461343.82045  20865854.3674                   20865851.5594
 -17664058.67245 -13641269.24242  24337011.8754                   24337014.5274
 -49909310.60547 -38841284.34844  22251082.1564                   22251080.0824
 -12674717.25847  -9831297.23845  21161265.1174                   21161262.0084
   9032381.64847   7091487.91844  23139374.6334                   23139375.3054
 11  8  2  1 58 30.0000000  0  8G17G02G12G10G09G04G05G25
 -71514728.48846 -55680227.46143  23592315.5784                   23592313.4574
 -39275839.48047 -30557982.80546  20501496.4064                   20501491.8524
 -18608261.75847 -14456801.96146  20818091.9774                   20818088.8484
 -27663502.64547 -21512689.43445  20853315.4534                   20853312.7234
 -17672958.27045 -13648204.10242  24335319.6254                   24335320.6454
 -49920649.74647 -38850120.04344  22248923.9064                   22248922.4064
 -12840811.49247  -9960721.27745  21129657.4774                   21129655.4774
   8851851.02047   6950814.73044  23105021.5474                   23105021.6374
 11  8  2  1 59  0.0000000  0  8G17G02G12G10G09G04G05G25
 -69969343.09846 -54476031.04343  23886390.4774                   23886391.2624
 -37780381.08248 -29392690.53546  20786073.0554                   20786067.5744
 -17159775.52347 -13328111.37946  21093729.2424                   21093726.4064
 -26153307.56247 -20335914.03945  21140696.1884                   21140693.3094
 -16106384.08645 -12427497.01642  24633428.6804                   24633429.6724
 -48356455.36347 -37631267.29344  22546580.3754                   22546578.5354
 -11431000.70347  -8862167.38345  21397936.0394                   21397933.4804
  10247103.32447   8038024.35944  23370528.0314                   23370528.8874
 11  8  2  1 59 30.0000000  0  8G17G02G12G10G09G04G05G25
 -69999151.97746 -54499258.78943  23880719.9304                   23880718.8014
 -37860056.82048 -29454775.52046  20770911.1564                   20770905.8954
 -17286130.23047 -13426569.57846  21069684.8754                   21069682.0744
 -26217870.38747 -20386222.72345  21128409.8674                   21128407.4064
 -16115181.14845 -12434352.02042  24631754.4454                   24631756.8054
 -48367570.95347 -37639928.81244  22544464.9694                   22544463.3284
 -11596135.01647  -8990843.40645  21366512.0474                   21366509.4384
  10067287.91447   7897908.52744  23336311.0314                   23336310.7814
 11  8  2  2  0  0.0000000  0  8G17G02G12G10G09G04G05G25
 -70028736.61746 -54522311.81643  23875090.9614                   23875089.0234
 -37939447.75848 -29516638.57846  20755803.4774                   20755798.5004
 -17411903.18047 -13524574.46546  21045750.9454                   21045748.0004
 -26281772.98047 -20436016.94545  21116249.7894                   21116246.7234
 -16123935.18046 -12441173.46542  24630088.7814                   24630090.8364
 -48378580.45347 -37648507.65644  22542370.0314                   22542368.4804
 -11760789.27347  -9119145.38345  21335179.1644                   21335176.6644
   9887830.60247   7758071.69144  23302161.3674                   23302161.3554
 11  8  2  2  0 30.0000000  0  8G17G02G12G10G09G04G05G25
 -70058097.87946 -54545190.75043  23869503.5234                   23869501.5984
 -38018556.32848 -29578281.60546  20740749.6644                   20740744.6644
 -17537093.55147 -13622125.38346  21021927.7974                   21021924.9574
 -26345017.28547 -20485298.23045  21104214.3754                   21104211.8324
 -16132650.37546 -12447964.60242  24628430.8134                   24628431.5904
 -48389486.82047 -37657006.15244  22540294.7504                   22540293.0944
 -11924962.21947  -9247072.30546  21303938.1414                   21303935.5864
   9708732.91046   7618515.07444  23268080.0864                   23268079.9694
 11  8  2  2  1  0.0000000  0  8G17G02G12G10G09G04G05G25
 -70087235.72346 -54567895.57843  23863957.9534                   23863956.8284
 -38097383.96548 -29639705.73846  20725749.7034                   20725744.3364
 -17661700.62547 -13719221.78146  20998216.7504                   20998212.7664
 -26407604.52047 -20534067.49245  21092304.8984                   21092302.5084
 -16141329.73445 -12454727.84442  24626778.9304                   24626780.5204
 -48400291.46947 -37665425.36744  22538238.5004                   22538237.1804
 -12088651.68447  -9374622.49246  21272788.6644                   21272786.6414
   9529997.27046   7479240.62543  23234067.2034                   23234067.3284
 11  8  2  2  1 30.0000000  0  8G17G02G12G10G09G04G05G25
 -70116148.60246 -54590425.10943  23858456.7734                   23858455.2154
 -38175930.71548 -29700910.98446  20710802.4614                   20710797.1994
 -17785721.44547 -13815861.37145  20974615.9454                   20974612.5004
 -26469535.15647 -20582325.12545  21080519.6254                   21080517.0124
 -16149975.43746 -12461464.89542  24625133.5554                   24625135.5474
 -48410994.96547 -37673765.78544  22536202.3754                   22536200.0434
 -12251853.83247  -9501792.95345  21241732.9064                   21241730.1374
   9351627.52746   7340251.25443  23200125.0084                   23200125.2894
 11  8  2  2  2  0.0000000  0  8G17G02G12G10G09G04G05G25
 -70144842.94946 -54612784.37543  23852996.2814                   23852994.9574
 -38254204.12148 -29761903.22346  20695907.2274                   20695902.0594
 -17909160.93447 -13912047.97746  20951126.0704                   20951122.9694
 -26530816.56647 -20630076.86345  21068858.2814                   21068855.8634
 -16158597.34446 -12468183.31642  24623493.1024                   24623494.9884
 -48421605.25047 -37682033.57444  22534183.0784                   22534180.9304
 -12414573.03947  -9628587.09845  21210768.3754                   21210765.5204
   9173619.71147   7201543.91444  23166251.0784                   23166251.3134
 11  8  2  2  2 30.0000000  0  8G17G02G12G10G09G04G05G25
 -70173314.99646 -54634970.38743  23847577.7664                   23847576.0314
 -38332202.05948 -29822680.81246  20681064.5164                   20681059.5864
 -18032014.26647 -14007777.82846  20927747.7734                   20927744.7074
 -26591446.68047 -20677321.09845  21057321.0314                   21057318.0744
 -16167194.79346 -12474882.76243  24621857.6094                   24621859.0864
 -48432120.36747 -37690227.19544  22532182.2734                   22532180.0434
 -12576803.64847  -9755000.51645  21179896.7734                   21179893.8094
   8995980.04347   7063123.44144  23132447.9694                   23132448.0664
 11  8  2  2  3  0.0000000  0  8G17G02G12G10G09G04G05G25
 -70201566.39146 -54656984.44143  23842202.4694                   23842200.0824
 -38409927.80548 -29883246.30946  20666274.0314                   20666268.9734
 -18154282.29747 -14103051.60946  20904480.8984                   20904477.7424
 -26651428.80947 -20724060.41445  21045906.4614                   21045903.8634
 -16175773.15645 -12481567.32043  24620224.9454                   24620226.5744
 -48442543.87547 -37698349.41844  22530197.9384                   22530196.4654
 -12738545.66447  -9881033.21146  21149117.4534                   21149115.5554
   8818708.87147   6924990.11344  23098714.3364                   23098713.5664
 11  8  2  2  3 30.0000000  0  8G17G02G12G10G09G04G05G25
 -70229597.05146 -54678826.50843  23836868.3594                   23836866.9064
 -38487382.23848 -29943600.39146  20651535.2504                   20651529.6994
 -18275963.29347 -14197867.95346  20881326.1334                   20881323.0984
 -26710763.82047 -20770295.48045  21034615.6954                   21034612.5164
 -16184334.94546 -12488238.95742  24618596.4844                   24618597.4734
 -48452876.88347 -37706401.12544  22528232.4384                   22528230.6254
 -12899796.07847 -10006682.84445  21118433.1334                   21118430.9344
   8641809.35547   6787146.39144  23065051.3594                   23065051.4344
 11  8  2  2  4  0.0000000  0  8G17G02G12G10G09G04G05G25
 -70257410.43046 -54700499.30143  23831576.0394                   23831574.1454
 -38564570.54348 -30003747.10946  20636846.3364                   20636841.3284
 -18397060.06247 -14292229.05946  20858281.7344                   20858278.6484
 -26769457.03147 -20816030.44145  21023446.7344                   21023443.9184
 -16192887.59446 -12494903.49642  24616968.9144                   24616969.3714
 -48463125.18047 -37714386.85244  22526281.8914                   22526280.8524
 -13060556.90647 -10131950.96945  21087841.8284                   21087838.7074
   8465279.84047   6649590.98044  23031458.4924                   23031458.7074
 11  8  2  2  4 30.0000000  0  8G17G02G12G10G09G04G05G25
 -70285006.14146 -54722002.46943  23826324.8914                   23826323.2774
 -38641493.73048 -30063687.23846  20622208.4614                   20622203.3284
 -18517570.82047 -14386133.53545  20835349.1724                   20835346.5664
 -26827509.50047 -20861266.11745  21012399.3834                   21012397.2424
 -16201434.00445 -12501563.06242  24615340.6254                   24615343.2544
 -48473289.51247 -37722307.12544  22524348.1334                   22524346.1454
 -13220825.37947 -10256835.45745  21057343.1484                   21057340.4804
   8289123.37947   6512326.24644  22997937.5634                   22997938.0234
 11  8  2  2  5  0.0000000  0  8G17G02G12G10G09G04G05G25
 -70312381.00446 -54743333.53943  23821114.8204                   23821113.2504
 -38718150.03148 -30123419.40646  20607621.2664                   20607616.3014
 -18637491.30947 -14479578.05946  20812528.5084                   20812525.2774
 -26884919.68747 -20906001.30545  21001475.0314                   21001472.2504
 -16209974.08646 -12508217.79743  24613716.8444                   24613717.9454
 -48483368.68447 -37730161.02744  22522429.6724                   22522427.9574
 -13380596.71147 -10381332.56645  21026939.6254                   21026937.2154
   8113345.42247   6375356.46544  22964487.6414                   22964488.0984
 11  8  2  2  5 30.0000000  0  8G17G02G12G10G09G04G05G25
 -70339539.05146 -54764495.65243  23815946.8284                   23815945.9104
 -38794544.83648 -30182947.80546  20593083.8674                   20593078.8164
 -18756824.57047 -14572564.99246  20789820.9144                   20789817.8244
 -26941693.09847 -20950240.32445  20990671.0704                   20990668.3754
 -16218515.05546 -12514873.24243  24612091.6644                   24612093.2814
 -48493368.23847 -37737952.91844  22520526.8444                   22520525.0554
 -13539872.96947 -10505443.90645  20996630.3594                   20996627.6954
   7937944.40247   6238680.37544  22931109.5084                   22931110.1134
 11  8  2  2  6  0.0000000  0  8G17G02G12G10G09G04G05G25
 -70366477.27046 -54785486.49643  23810821.5554                   23810819.6094
 -38870676.23048 -30242270.95746  20578596.3834                   20578591.3954
 -18875566.56247 -14665091.20746  20767225.1094                   20767221.8634
 -26997828.11347 -20993981.87945  20979989.1564                   20979986.6644
 -16227056.91845 -12521529.31642  24610465.5084                   24610467.2034
 -48503286.70347 -37745681.60544  22518639.3594                   22518637.8204
 -13698648.20347 -10629164.83245  20966416.8674                   20966414.1644
   7762925.87547   6102302.33244  22897804.9844                   22897805.2154
 11  8  2  2  6 30.0000000  0  8G17G02G12G10G09G04G05G25
 -70393197.05146 -54806307.10943  23805736.1644                   23805734.8364
 -38946547.13748 -30301391.13346  20564158.8594                   20564153.7664
 -18993717.32847 -14757156.72746  20744742.4384                   20744738.9694
 -27053327.83247 -21037228.40245  20969427.8674                   20969425.0514
 -16235604.48045 -12528189.91843  24608839.6484                   24608842.0204
 -48513127.04347 -37753349.37944  22516767.5634                   22516765.0084
 -13856922.38747 -10752495.33245  20936298.0474                   20936295.1214
   7588290.85247   5966223.13744  22864573.6954                   22864573.0044
 11  8  2  2  7  0.0000000  0  8G17G02G12G10G09G04G05G25
 -70419698.72746 -54826957.76243  23800693.3444                   23800691.4654
 -39022159.41048 -30360309.77046  20549769.9924                   20549764.8874
 -19111276.49247 -14848761.26646  20722370.9844                   20722367.7274
 -27108194.05547 -21079981.28545  20958986.8134                   20958984.3244
 -16244161.59845 -12534857.88742  24607211.9694                   24607213.8714
 -48522891.45347 -37760958.02744  22514908.3834                   22514907.3874
 -14014693.80147 -10875434.06646  20906275.2344                   20906272.1764
   7414041.26247   5830444.26244  22831414.4454                   22831414.0044
 11  8  2  2  7 30.0000000  0  8G17G02G12G10G09G04G05G25
 -68870562.47346 -53619838.61343  24095484.4454                   24095482.5594
 -37522092.70747 -29191426.61346  20835223.1024                   20835218.1294
 -17652819.80147 -13712301.49646  20999906.3524                   20999903.0204
 -25587007.78547 -19894641.32845  21248459.9384                   21248456.5274
 -14677311.63745 -11313935.94542  24905373.3054                   24905375.4024
 -46957161.89147 -36540909.04744  22812857.1954                   22812855.7274
 -12596536.09447  -9770376.07445  21176141.5164                   21176139.3244
   8815604.46547   6922571.45744  23098123.1414                   23098122.8484
 11  8  2  2  8  0.0000000  0  8G17G02G12G10G09G04G05G25
 -68896631.54346 -53640152.21943  24090523.6954                   24090521.2734
 -37597194.80948 -29249947.73046  20820931.9144                   20820926.9924
 -17769195.49247 -13802983.84046  20977760.7584                   20977757.5354
 -25640615.79747 -19936413.79345  21238257.7814                   21238255.4614
 -14685900.20345 -11320628.48842  24903738.2504                   24903741.3984
 -46966782.19947 -36548405.39144  22811026.9384                   22811025.1134
 -12753299.56247  -9892529.39146  21146310.3754                   21146307.6724
   8642129.68047   6787396.29744  23065112.1174                   23065111.6024
 11  8  2  2  8 30.0000000  0  8G17G02G12G10G09G04G05G25
 -68922483.64146 -53660296.74243  24085604.3524                   24085601.8954
 -37672043.69148 -29308271.52746  20806688.3914                   20806683.6724
 -17884977.83247 -13893203.82846  20955727.7974                   20955724.3874
 -25693596.84847 -19977697.73045  21228176.1024                   21228173.1254
 -14694509.04745 -11327336.81642  24902100.8444                   24902103.2814
 -46976332.17247 -36555846.94544  22809209.0944                   22809207.3834
 -12909555.70747 -10014287.38746  21116575.5704                   21116573.1524
   8469046.28947   6652526.13344  23032175.6724                   23032174.7774
 11  8  2  2  9  0.0000000  0  8G17G02G12G10G09G04G05G25
 -68948118.77746 -53680272.18043  24080726.2814                   24080724.3794
 -37746640.12948 -29366398.61346  20792493.2974                   20792488.4534
 -18000165.21947 -13982960.22746  20933808.1564                   20933805.1884
 -25745952.31247 -20018494.18745  21218213.2424                   21218209.8094
 -14703140.92245 -11334063.01242  24900457.0394                   24900461.1214
 -46985813.24247 -36563234.79744  22807404.9924                   22807403.5434
 -13065302.25047 -10135648.29746  21086937.9694                   21086935.6524
   8296357.05147   6517963.09844  22999313.5784                   22999312.8594
 11  8  2  2  9 30.0000000  0  8G17G02G12G10G09G04G05G25
 -68973539.77746 -53700080.71943  24075887.5944                   24075886.1564
 -37820988.23448 -29424332.19146  20778345.1804                   20778340.2624
 -18114760.01647 -14072254.86346  20912002.6174                   20911998.6724
 -25797686.65647 -20058806.64545  21208367.9224                   21208365.7304
 -14711801.73045 -11340811.87942  24898810.3054                   24898812.9384
 -46995229.98847 -36570572.53144  22805612.8594                   22805611.4454
 -13220540.16447 -10256612.87146  21057397.3284                   21057394.6214
   8124061.56347   6383706.89144  22966527.1254                   22966526.2344
 11  8  2  2 10  0.0000000  0  8G17G02G12G10G09G04G05G25
 -68998745.72746 -53719721.77343  24071091.2344                   24071090.6994
 -37895088.89148 -29482072.94946  20764244.3834                   20764239.5944
 -18228760.17647 -14161086.14546  20890308.1334                   20890304.8554
 -25848801.05947 -20098636.03145  21198641.0234                   21198638.4964
 -14720493.95345 -11347585.19942  24897156.7424                   24897159.3094
 -47004582.83647 -36577860.47344  22803834.2274                   22803831.9494
 -13375266.78147 -10377179.03146  21027953.4384                   21027951.0554
   7952162.81347   6249759.81344  22933815.9144                   22933814.8794
 11  8  2  2 10 30.0000000  0  8G17G02G12G10G09G04G05G25
 -69023739.26246 -53739197.26643  24066335.5864                   24066334.2704
 -37968945.77048 -29539623.74646  20750189.8984                   20750184.5274
 -18342167.26647 -14249455.29346  20868727.5004                   20868724.4304
 -25899299.57847 -20137985.52345  21189031.9064                   21189029.2504
 -14729223.25845 -11354387.28542  24895495.3444                   24895497.9694
 -47013876.02347 -36585101.91444  22802064.9224                   22802062.6884
 -13529482.54747 -10497347.12946  20998607.1804                   20998604.7934
   7780660.84447   6116121.93044  22901180.0634                   22901179.7074
 11  8  2  2 11  0.0000000  0  7G17G02G12G10G04G05G25
 -69048517.33646 -53758504.86743  24061620.0554                   24061619.1764
 -38042557.17248 -29596983.27046  20736181.9534                   20736177.3094
 -18454977.87547 -14337359.66446  20847260.3914                   20847257.4344
 -25949181.01647 -20176854.16845  21179539.6414                   21179537.2304
 -47023107.82047 -36592295.53144  22800308.2894                   22800306.5474
 -13683182.54347 -10617113.32446  20969359.3914                   20969356.9184
   7609560.98447   5982797.36344  22868620.9304                   22868619.9774
 11  8  2  2 11 30.0000000  0  7G17G02G12G10G04G05G25
 -69073080.44146 -53777644.95343  24056946.3284                   24056944.7664
 -38115924.70348 -29654152.77046  20722221.0084                   20722215.6334
 -18567191.24247 -14424798.63746  20825906.9064                   20825903.7544
 -25998447.36347 -20215243.53145  21170165.0164                   21170162.1994
 -47032279.92247 -36599442.62944  22798562.9694                   22798561.1954
 -13836365.18747 -10736476.39846  20940209.2194                   20940206.7774
   7438865.43047   5849787.84844  22836138.7114                   22836137.8554
 11  8  2  2 12  0.0000000  0  7G17G02G12G10G04G05G25
 -69097426.92246 -53796616.24243  24052313.6564                   24052311.8634
 -38189047.88348 -29711131.86746  20708306.0164                   20708301.0354
 -18678804.45347 -14511769.96546  20804667.7734                   20804664.6214
 -26047098.92247 -20253153.82445  21160906.7814                   21160903.9144
 -47041392.25847 -36606543.17644  22796828.8834                   22796828.0944
 -13989027.18447 -10855433.77346  20911159.1094                   20911156.4384
   7268578.15647   5717096.46944  22803733.9304                   22803733.3634
 11  8  2  2 12 30.0000000  0  7G17G02G12G10G04G05G25
 -69121554.35946 -53815416.85243  24047722.3754                   24047720.8594
 -38261925.60548 -29767919.68746  20694437.4614                   20694432.9384
 -18789814.24647 -14598271.09846  20783543.1254                   20783539.7234
 -26095135.13747 -20290584.62945  21151765.7274                   21151763.1094
 -47050443.77047 -36613596.31644  22795106.8054                   22795105.0594
 -14141164.33647 -10973982.16846  20882208.0784                   20882205.5664
   7098703.98847   5584726.97744  22771407.6024                   22771407.3634
 11  8  2  2 13  0.0000000  0  7G17G02G12G10G04G05G25
 -69145464.21946 -53834047.91443  24043171.6254                   24043170.7464
 -38334560.75848 -29824518.50446  20680615.8914                   20680610.9454
 -18900221.63347 -14684302.82446  20762533.4304                   20762530.3284
 -26142559.54747 -20327538.70745  21142741.0164                   21142738.2934
 -47059437.59447 -36620604.46944  22793394.9144                   22793393.4494
 -14292775.96547 -11092121.06246  20853357.4064                   20853355.0434
   6929243.85947   5452680.15244  22739160.7974                   22739160.1374
 11  8  2  2 13 30.0000000  0  7G17G02G12G10G04G05G25
 -69169156.68046 -53852509.59843  24038663.0554                   24038662.5234
 -38406954.89548 -29880929.50446  20666839.3984                   20666834.2384
 -19010025.97347 -14769864.63746  20741638.9844                   20741635.1174
 -26189374.08647 -20364017.55545  21133832.4774                   21133829.5744
 -47068375.02347 -36627568.73844  22791694.1414                   22791693.0124
 -14443860.62147 -11209849.32446  20824606.4384                   20824604.0394
   6760199.96147   5320957.64844  22706992.4614                   22706992.3524
 11  8  2  2 14  0.0000000  0  7G17G02G12G10G04G05G25
 -69192631.79346 -53870801.90243  24034195.7974                   24034194.6994
 -38479109.43747 -29937153.82046  20653109.3524                   20653104.0234
 -19119226.38747 -14854955.85946  20720858.0394                   20720854.8594
 -26235580.45747 -20400022.50845  21125039.3674                   21125037.1844
 -47077257.59846 -36634490.23843  22790003.7974                   22790002.5474
 -14594416.52347 -11327165.59445  20795957.1954                   20795953.7734
   6591574.61747   5189561.28944  22674904.2114                   22674904.1094
 11  8  2  2 14 30.0000000  0  7G17G02G12G10G04G05G25
 -69215892.88346 -53888927.43743  24029769.8594                   24029768.7074
 -38551028.23047 -29993194.42646  20639423.0784                   20639418.1414
 -19227825.55547 -14939578.58646  20700192.2974                   20700189.3204
 -26281183.66047 -20435557.47345  21116361.8984                   21116358.9844
 -47086089.84447 -36641372.50444  22788323.2974                   22788321.7854
 -14744444.85247 -11444070.74246  20767407.6174                   20767405.0514
   6423367.14147   5058490.54344  22642895.5314                   22642895.3874
 11  8  2  2 15  0.0000000  0  7G17G02G12G10G04G05G25
 -69238939.98446 -53906886.20743  24025384.2974                   24025383.1884
 -38622712.69547 -30049052.44146  20625782.4614                   20625777.2934
 -19335822.02747 -15023731.68046  20679641.6644                   20679638.3984
 -26326185.59847 -20470623.91845  21107798.1174                   21107795.1174
 -47094873.02046 -36648216.54344  22786651.3204                   22786650.1844
 -14893943.89147 -11560563.48046  20738959.0234                   20738956.2544
   6255579.90647   4927747.27044  22610966.0784                   22610966.7624
 11  8  2  2 15 30.0000000  0  7G17G02G12G10G04G05G25
 -69261774.57446 -53924679.43043  24021039.5394                   24021037.6334
 -38694165.62948 -30104730.04746  20612184.8524                   20612180.0164
 -19443216.47747 -15107415.65246  20659204.9454                   20659201.7624
 -26370589.82047 -20505224.60945  21099348.5084                   21099345.7974
 -47103609.82847 -36655024.48844  22784989.4454                   22784987.9734
 -15042913.24647 -11676643.46546  20710611.3834                   20710608.4104
   6088213.88747   4797332.21144  22579117.7274                   22579117.7114
 11  8  2  2 16  0.0000000  0  7G17G02G12G10G04G05G25
 -67708975.55946 -52714706.17243  24316527.3444                   24316525.3204
 -37189965.93448 -28932626.38346  20898424.6724                   20898419.7504
 -17974585.41447 -13963027.80946  20938676.0554                   20938673.3054
 -24838976.51247 -19311759.69145  21390804.4064                   21390802.5204
 -45536881.21547 -35434196.99244  23083127.8754                   23083125.8914
 -13615926.14547 -10564705.42646  20982157.3754                   20982154.8554
   7496697.10247   5894851.64144  22847143.4454                   22847143.3914
 11  8  2  2 16 30.0000000  0  7G17G02G12G10G04G05G25
 -67731386.12946 -52732168.96143  24312262.5084                   24312260.5664
 -37260960.99648 -28987947.21546  20884914.9384                   20884909.9924
 -18080776.60547 -14045774.18746  20918468.6334                   20918465.5664
 -24882192.48847 -19345434.47345  21382580.7894                   21382577.8204
 -45545530.69547 -35440936.83643  23081481.8364                   23081479.7424
 -13763832.52047 -10679957.11746  20954012.0004                   20954009.1294
   7330179.16047   5765097.44144  22815456.0634                   22815456.0434
 11  8  2  2 17  0.0000000  0  7G17G02G12G10G04G05G25
 -67753586.41846 -52749467.91443  24308038.1644                   24308036.2704
 -37331730.29747 -29043092.11746  20871447.6724                   20871443.1994
 -18186366.19947 -14128051.79346  20898375.2734                   20898371.9304
 -24924818.69947 -19378649.71145  21374469.3524                   21374466.5354
 -45554139.91846 -35447645.32844  23079843.5164                   23079842.0554
 -13911206.16847 -10794793.69946  20925966.8754                   20925964.3874
   7164087.46147   5635675.37144  22783849.3674                   22783850.0354
 11  8  2  2 17 30.0000000  0  7G17G02G12G10G04G05G25
 -67775575.67246 -52766602.42743  24303853.3984                   24303851.9534
 -37402274.22748 -29098061.41046  20858023.9144                   20858018.7974
 -18291352.73847 -14209859.48446  20878397.2344                   20878393.8014
 -24966856.17247 -19411406.18745  21366469.8914                   21366466.7344
 -45562709.30147 -35454322.78944  23078213.0864                   23078211.4654
 -14058044.44547 -10909213.09846  20898024.9304                   20898022.3954
   6998425.14547   5506587.88344  22752325.0944                   22752324.7074
 11  8  2  2 18  0.0000000  0  7G17G02G12G10G04G05G25
 -67797354.17646 -52783572.72743  24299709.3054                   24299707.1524
 -37472594.29347 -29152856.26646  20844642.4384                   20844637.4414
 -18395735.70747 -14291196.85546  20858533.9534                   20858530.5394
 -25008307.27047 -19443705.73045  21358581.5634                   21358579.0904
 -45571240.29347 -35460970.29344  23076590.3524                   23076587.5984
 -14204345.94547 -11023214.23046  20870184.4534                   20870182.0124
   6833194.36347   5377836.66844  22720882.2734                   22720882.6134
 11  8  2  2 18 30.0000000  0  7G17G02G12G10G04G05G25
 -67818924.35546 -52800380.67643  24295605.3284                   24295603.0394
 -37542694.16047 -29207479.53146  20831303.2664                   20831297.8014
 -18499517.16847 -14372065.52746  20838785.1954                   20838782.0664
 -25049176.69147 -19475552.05145  21350804.7734                   21350802.0744
 -45579736.60947 -35467590.79744  23074973.2274                   23074970.6414
 -14350111.55947 -11136797.79746  20842446.5474                   20842444.1054
   6668394.93847   5249421.59044  22689522.6884                   22689522.6294
 11  8  2  2 19  0.0000000  0  7G17G02G12G10G04G05G25
 -67840285.34846 -52817025.60243  24291539.7814                   24291538.0234
 -37612573.85247 -29261931.23846  20818005.2344                   20817999.9924
 -18602695.32047 -14452464.07846  20819150.7424                   20819147.5434
 -25089465.05947 -19506945.59045  21343138.4924                   21343135.4844
 -45588198.52747 -35474184.51244  23073362.3054                   23073360.4614
 -14495338.30147 -11249961.46146  20814810.3754                   20814807.8674
   6504030.47347   5121345.41845  22658244.6484                   22658244.7894
 11  8  2  2 19 30.0000000  0  7G17G02G12G10G04G05G25
 -67861440.06646 -52833509.87943  24287514.1334                   24287512.5164
 -37682237.81247 -29316214.84446  20804748.2584                   20804743.4384
 -18705272.97347 -14532394.71946  20799630.9534                   20799627.6454
 -25129177.73847 -19537890.52745  21335580.6254                   21335577.8954
 -45596630.41447 -35480754.80144  23071758.1564                   23071756.2894
 -14640027.97347 -11362706.63346  20787276.9614                   20787274.6524
   6340099.85947   4993607.31645  22627049.9454                   22627049.6054
 11  8  2  2 20  0.0000000  0  8G17G02G12G10G29G04G05G25
 -67882387.53946 -52849832.55143  24283529.2814                   24283526.5744
 -37751685.91847 -29370330.23846  20791533.2194                   20791528.1134
 -18807248.19147 -14611855.91846  20780225.4774                   20780222.5744
 -25168315.54747 -19568387.52345  21328133.6644                   21328130.9304
  28104768.07455  21996498.55952  24655370.7114                   24655370.9144
 -45605032.10946 -35487301.56243  23070159.0394                   23070157.6334
 -14784177.57447 -11475030.96946  20759846.1484                   20759843.7974
   6176606.90247   4866210.23044  22595938.3914                   22595938.0944
 11  8  2  2 20 30.0000000  0  8G17G02G12G10G29G04G05G25
 -67903131.89545 -52865997.07043  24279580.3364                   24279579.0124
 -37820922.94547 -29424281.16046  20778357.5004                   20778352.6094
 -18908623.64547 -14690849.78146  20760934.5474                   20760931.5274
 -25206884.55547 -19598441.30545  21320794.2114                   21320791.1804
  27933934.85545  21863381.89842  24622861.1334                   24622861.9844
 -45613408.50846 -35493828.60944  23068565.3834                   23068563.4694
 -14927789.27047 -11586936.15246  20732517.9224                   20732515.0474
   6013550.17247   4739153.07044  22564909.4844                   22564909.6564
 11  8  2  2 21  0.0000000  0  8G17G02G12G10G29G04G05G25
 -67923675.29346 -52882004.93043  24275671.4144                   24275670.4184
 -37889952.66048 -29478070.54746  20765221.4844                   20765216.7274
 -19009402.26647 -14769378.55946  20741756.9844                   20741753.7274
 -25244889.26647 -19628055.35945  21313561.6334                   21313559.1844
  27763047.73045  21730223.12543  24590344.3754                   24590343.5784
 -45621763.49646 -35500339.00044  23066975.5474                   23066973.7344
 -15070863.95747 -11698422.89546  20705291.5234                   20705288.7624
   5850929.41447   4612435.62945  22533963.5554                   22533963.2274
 11  8  2  2 21 30.0000000  0  8G17G02G12G10G29G04G05G25
 -67944020.88346 -52897858.64842  24271799.2504                   24271798.6724
 -37958779.52347 -29531701.86746  20752124.2504                   20752119.6724
 -19109586.67647 -14847444.32446  20722692.7584                   20722689.6764
 -25282334.69147 -19657233.62145  21306436.5394                   21306433.9844
  27592104.07445  21597020.27043  24557814.5474                   24557813.6764
 -45630101.09846 -35506835.82044  23065388.7194                   23065387.2894
 -15213403.28147 -11809492.47746  20678167.4454                   20678164.5784
   5688743.86747   4486057.31345  22503101.0554                   22503100.8324
 11  8  2  2 22  0.0000000  0  8G17G02G12G10G29G04G05G25
 -67964166.90646 -52913556.82842  24267965.5634                   24267964.6564
 -38027402.28147 -29585174.13746  20739065.7034                   20739061.0434
 -19209173.43447 -14925044.37946  20703741.4924                   20703738.2154
 -25319220.96147 -19685976.17245  21299417.0394                   21299414.7584
  27421106.36345  21463775.34843  24525275.4454                   24525274.0314
 -45638420.27346 -35513318.34043  23063805.9454                   23063804.4494
 -15355403.16847 -11920141.70346  20651145.2974                   20651143.1724
   5526998.09847   4360021.67245  22472321.7894                   22472320.6724
 11  8  2  2 22 30.0000000  0  8G17G02G12G10G29G04G05G25
 -67984112.36746 -52929098.78143  24264170.2194                   24264168.5434
 -38095821.41047 -29638487.73446  20726046.6174                   20726041.1804
 -19308161.85547 -15002178.20746  20684904.8834                   20684901.8164
 -25355549.59447 -19714284.19945  21292504.1254                   21292501.2274
  27250055.89545  21330489.33643  24492724.7584                   24492723.7194
 -45646721.53146 -35519786.83443  23062225.6804                   23062224.3484
 -15496861.47747 -12030368.93746  20624227.0234                   20624224.0354
   5365695.05947   4234331.02345  22441626.9694                   22441626.5704
 11  8  2  2 23  0.0000000  0  8G17G02G12G10G29G04G05G25
 -68003855.99246 -52944483.42643  24260413.2664                   24260412.2464
 -38164036.27047 -29691642.16046  20713065.2114                   20713059.9884
 -19406549.90247 -15078844.21146  20666182.3284                   20666179.0354
 -25391320.90647 -19742157.95345  21285696.7274                   21285694.5864
  27078954.58255  21197163.62152  24460164.3834                   24460164.6764
 -45655004.75846 -35526241.30544  23060649.5164                   23060648.4304
 -15637775.37147 -12140171.93446  20597412.0314                   20597408.9024
   5204838.57047   4108988.32044  22411016.7974                   22411016.5514
 11  8  2  2 23 30.0000000  0  8G17G02G12G10G29G04G05G25
 -68023398.53546 -52959711.37943  24256694.9384                   24256692.8284
 -38232048.59847 -29744638.77346  20700122.8984                   20700117.9384
 -19504337.61747 -15155042.41446  20647574.0634                   20647570.7384
 -25426537.66447 -19769599.58645  21278995.5474                   21278992.5824
  26907802.51645  21063798.41443  24427595.3524                   24427594.7934
 -45663271.08446 -35532682.60343  23059077.0784                   23059075.1214
 -15778143.57447 -12249549.72346  20570700.7734                   20570697.9614
   5044430.60247   3983995.11745  22380492.1804                   22380491.8014
 11  8  2  2 24  0.0000000  0  8G17G02G12G10G29G04G05G25
 -68042737.95346 -52974781.02043  24253014.2974                   24253012.1764
 -38299857.64547 -29797476.98046  20687219.0554                   20687214.2624
 -19601522.74247 -15230771.08246  20629080.4694                   20629076.9064
 -25461200.19947 -19796609.35545  21272399.3914                   21272396.5274
  26736602.02046  20930395.46942  24395017.5784                   24395015.9384
 -45671519.87946 -35539110.24643  23057507.3134                   23057505.8244
 -15917962.58647 -12358499.57846  20544093.7664                   20544091.0164
   4884475.27747   3859354.62944  22350053.4774                   22350053.1374
 11  8  2  2 24 30.0000000  0  8G17G02G12G10G29G04G05G25
 -68061874.97746 -52989692.99243  24249371.4224                   24249370.8054
 -38367465.19947 -29850158.18746  20674353.8674                   20674349.1524
 -19698105.30947 -15306030.21146  20610701.0704                   20610697.9844
 -25495311.55147 -19823189.62945  21265908.1564                   21265905.6724
  26565353.12546  20796954.75043  24362430.8524                   24362429.9184
 -45679752.87946 -35545525.56643  23055939.9144                   23055938.5944
 -16057231.69147 -12467020.93446  20517592.0234                   20517588.9774
   4724974.28547   3735068.16444  22319701.2114                   22319701.2814
 11  8  2  2 25  0.0000000  0  8G17G02G12G10G29G04G05G25
 -66505387.55546 -51776845.69143  24545562.7734                   24545561.0044
 -36859448.68047 -28675080.36346  20961320.0634                   20961315.2154
 -18218660.62947 -14153216.16046  20892229.7194                   20892226.9614
 -23953451.29747 -18621740.08245  21559314.6484                   21559312.3714
  27969483.48046  21891082.33843  24629627.2894                   24629626.9344
 -44112549.00846 -34324327.78544  23354169.4844                   23354168.6174
 -14620523.43047 -11347507.96946  20790988.4144                   20790985.3444
   6141356.64547   4838742.75445  22589229.9454                   22589229.6134
 11  8  2  2 25 30.0000000  0  8G17G02G12G10G29G04G05G25
 -66524119.98446 -51791442.37142  24541997.3674                   24541996.2774
 -36926656.28947 -28727449.92646  20948531.0944                   20948526.0704
 -18314037.53947 -14227535.81646  20874080.2734                   20874077.4964
 -23986466.55947 -18647466.25845  21553031.7274                   21553028.9184
  27798139.44546  21757567.50043  24597021.5554                   24597020.8674
 -44120752.94146 -34330720.46143  23352608.4064                   23352606.4924
 -14758688.10547 -11455168.73046  20764696.4694                   20764693.8284
   5982771.31647   4715169.77745  22559052.7194                   22559052.2854
 11  8  2  2 26  0.0000000  0  8G17G02G12G10G29G04G05G25
 -66542651.77345 -51805882.78942  24538470.9614                   24538469.9924
 -36993667.25047 -28779666.25046  20935779.1564                   20935774.1604
 -18408812.41847 -14301386.36746  20856045.2664                   20856041.8674
 -24018938.44547 -18672769.04745  21546852.9694                   21546849.9224
  27626747.18846  21624015.05943  24564406.4694                   24564405.4224
 -44128945.61746 -34337104.37943  23351048.4064                   23351047.4384
 -14896300.05147 -11562398.79346  20738509.7734                   20738507.2114
   5824645.63747   4591954.98045  22528962.0634                   22528961.8204
 11  8  2  2 26 30.0000000  0  8G17G02G12G10G29G04G05G25
 -66560984.00445 -51820167.60242  24534982.7814                   24534981.2974
 -37060483.11347 -28831730.54746  20923064.1644                   20923059.1094
 -18502986.24647 -14374768.55946  20838124.6804                   20838121.6024
 -24050870.16847 -18697650.89845  21540776.4224                   21540773.6254
  27455306.46146  21490424.90243  24531782.4304                   24531781.3364
 -44137128.80946 -34343480.91443  23349492.0084                   23349490.2424
 -15033358.73047 -11669197.73446  20712428.3364                   20712425.8164
   5666981.07847   4469099.50845  22498959.4384                   22498959.5124
 11  8  2  2 27  0.0000000  0  8G17G02G12G10G29G04G05G25
 -66579114.79746 -51834295.52342  24531533.4844                   24531531.0634
 -37127102.84447 -28883642.01646  20910387.2344                   20910382.0234
 -18596556.25447 -14447680.23846  20820318.8594                   20820315.5904
 -24082261.91847 -18722112.01645  21534803.2424                   21534800.2704
  27283819.78146  21356798.92643  24499149.7974                   24499148.6804
 -44145301.59846 -34349849.33243  23347936.0234                   23347935.0514
 -15169860.40247 -11775562.64146  20686452.9614                   20686450.3554
   5509781.93047   4346606.66445  22469045.5084                   22469045.2234
 11  8  2  2 27 30.0000000  0  8G17G02G12G10G29G04G05G25
 -66597042.98046 -51848265.53542  24528120.4774                   24528120.1094
 -37193526.36747 -28935400.60246  20897746.9534                   20897741.9104
 -18689521.07047 -14520120.34846  20802628.6414                   20802625.0434
 -24113114.57047 -18746153.02745  21528931.8204                   21528928.7894
  27112289.43046  21223138.94943  24466508.2664                   24466507.4614
 -44153463.39846 -34356209.22343  23346383.5164                   23346382.1994
 -15305802.59047 -11881491.58246  20660584.1564                   20660581.5554
   5353051.76647   4224479.30145  22439221.0554                   22439220.5164
 11  8  2  2 28  0.0000000  0  8G17G02G12G10G29G04G05G25
 -66614769.55946 -51862078.49242  24524747.5164                   24524746.9104
 -37259755.98047 -28987008.07846  20885143.9844                   20885139.0594
 -18781881.86347 -14592089.78946  20785052.2274                   20785049.1684
 -24143431.81647 -18769776.85945  21523161.8444                   21523159.7034
  26940714.39846  21089444.09042  24433858.3444                   24433857.1334
 -44161616.43446 -34362562.24643  23344832.6724                   23344830.3524
 -15441185.34447 -11986984.62146  20634821.4924                   20634818.9734
   5196791.52347   4102718.09445  22409485.7274                   22409484.8164
 11  8  2  2 28 30.0000000  0  8G17G02G12G10G29G04G05G25
 -66632294.37545 -51875734.20343  24521412.0944                   24521411.0204
 -37325792.12547 -29038464.80146  20872577.8134                   20872572.9064
 -18873637.79347 -14663587.89846  20767591.7734                   20767588.9414
 -24173215.46547 -18792984.90245  21517494.5004                   21517492.1094
  26769096.06345  20955715.50842  24401200.7664                   24401199.7034
 -44169761.18746 -34368908.80143  23343282.3134                   23343280.1454
 -15576006.22747 -12092039.82046  20609166.2344                   20609163.3874
   5041004.15247   3981325.35545  22379839.7974                   22379839.7974
 11  8  2  2 29  0.0000000  0  7G02G12G10G29G04G05G25
 -37391638.91848 -29089773.98846  20860047.5394                   20860043.0704
 -18964791.44947 -14734616.72346  20750246.0084                   20750242.6414
 -24202470.74247 -18815781.23445  21511927.6414                   21511925.1484
  26597431.86345  20821951.19942  24368534.1414                   24368533.4384
 -44177901.78146 -34375252.16043  23341733.3204                   23341731.6214
 -15710267.60947 -12196659.05146  20583616.8524                   20583614.0434
   4885688.62547   3860300.29745  22350284.1414                   22350284.1914
 11  8  2  2 29 30.0000000  0  7G02G12G10G29G04G05G25
 -37457297.10547 -29140936.20346  20847552.9924                   20847547.7424
 -19055342.97347 -14805176.34846  20733014.6414                   20733011.2304
 -24231200.03547 -18838167.69545  21506460.4924                   21506457.8754
  26425722.93445  20688152.05142  24335858.9224                   24335858.8094
 -44186038.77346 -34381592.71543  23340184.5634                   23340183.5514
 -15843967.40647 -12300840.68046  20558174.6724                   20558171.4734
   4730847.51647   3739644.91845  22320819.1094                   22320818.4454
 11  8  2  2 30  0.0000000  0  7G02G12G10G29G04G05G25
 -37522764.15647 -29191949.47746  20835095.4454                   20835090.2854
 -19145288.62147 -14875263.86346  20715898.3364                   20715895.0124
 -24259402.39547 -18860143.54745  21501094.2034                   21501091.2664
  26253973.21545  20554321.05942  24303175.6884                   24303176.0044
 -44194169.59046 -34387928.43043  23338637.6954                   23338635.5474
 -15977101.21547 -12404581.28146  20532840.1094                   20532837.0704
   4576486.31647   3619363.48045  22291445.0704                   22291444.8524
 11  8  2  2 30 30.0000000  0  7G02G12G10G29G04G05G25
 -37588037.20748 -29242811.59046  20822674.2814                   20822669.1844
 -19234624.17647 -14944875.98046  20698898.1954                   20698895.1134
 -24287075.60947 -18881707.09445  21495827.7504                   21495825.3634
  26082187.67646  20420462.18442  24270486.3524                   24270486.2344
 -44202291.25846 -34394257.00443  23337092.2504                   23337090.3794
 -16109663.46947 -12507876.52746  20507614.0944                   20507611.8834
   4422611.35947   3499460.94545  22262164.1024                   22262163.5704
 11  8  2  2 31  0.0000000  0  7G02G12G10G29G04G05G25
 -37653117.34048 -29293523.37146  20810289.6334                   20810284.6134
 -19323349.79747 -15014012.83246  20682014.3204                   20682011.2344
 -24314222.43047 -18902860.44545  21490661.6024                   21490659.2854
  25910366.74246  20286575.74243  24237790.2114                   24237789.4454
 -44210404.73846 -34400579.20743  23335548.0944                   23335546.8204
 -16241653.21147 -12610725.64846  20482497.9224                   20482494.5744
   4269224.57847   3379938.81345  22232975.3134                   22232974.9964
 11  8  2  2 31 30.0000000  0  7G02G12G10G29G04G05G25
 -37718006.09048 -29344086.02346  20797941.6804                   20797936.9414
 -19411465.93747 -15082674.75046  20665246.5864                   20665243.6884
 -24340845.80147 -18923605.93045  21485595.2664                   21485592.7664
  25738510.30545  20152661.65243  24205086.2424                   24205085.9304
 -44218511.65246 -34406896.32443  23334005.5634                   23334003.7584
 -16373070.31247 -12713128.56246  20457489.6564                   20457486.8204
   4116327.47747   3260798.24245  22203879.4774                   22203879.1254
 11  8  2  2 32  0.0000000  0  7G02G12G10G29G04G05G25
 -37782706.44947 -29394501.87546  20785629.6174                   20785624.4344
 -19498974.45347 -15150863.20746  20648594.4454                   20648590.9804
 -24366950.27047 -18943947.08245  21480628.2114                   21480625.9224
  25566617.19146  20018719.02743  24172376.1254                   24172375.7934
 -44226614.66446 -34413210.39143  23332464.1414                   23332462.1174
 -16503915.03947 -12815085.47346  20432590.4534                   20432588.0784
   3963920.39547   3142039.50845  22174877.6334                   22174877.0004
 11  8  2  2 32 30.0000000  0  7G02G12G10G29G04G05G25
 -37847222.07447 -29444773.78546  20773353.1804                   20773348.1174
 -19585878.56647 -15218580.69946  20632057.1884                   20632053.5204
 -24392540.82847 -18963887.76645  21475758.7584                   21475755.8674
  25394685.36746  19884746.18043  24139658.5314                   24139658.4304
 -44234717.29346 -34419524.18043  23330921.4774                   23330920.3914
 -16634189.25447 -12916597.81646  20407800.5784                   20407797.7704
   3812002.66047   3023662.09045  22145968.6334                   22145968.4694
 11  8  2  2 33  0.0000000  0  7G02G12G10G29G04G05G25
 -37911553.87547 -29494902.45346  20761110.5314                   20761105.8164
 -19672177.54347 -15285826.65646  20615634.8914                   20615631.4844
 -24417619.54747 -18983429.62945  21470986.3284                   21470983.8594
  25222716.12145  19750744.23043  24106934.1334                   24106933.8204
 -44242820.43746 -34425838.36743  23329380.4304                   23329378.5004
 -16763891.33647 -13017664.34446  20383118.6174                   20383115.6374
   3660576.59847   2905667.78145  22117152.8054                   22117152.3134
 11  8  2  2 33 30.0000000  0  7G02G12G10G29G04G05G25
 -36400279.82047 -28317286.29746  21048696.9064                   21048691.6524
 -18182447.93447 -14124998.39146  20899120.7814                   20899117.8204
 -22866767.41847 -17774973.41045  21766103.6094                   21766100.7894
  26626136.58246  20844318.67243  24373996.3444                   24373995.0474
 -42675503.66846 -33204552.56643  23627630.0314                   23627628.7814
 -15317594.94947 -11890680.12946  20658339.6094                   20658336.4264
   5085070.17647   4015662.81345  22388225.3204                   22388224.7274
 11  8  2  2 34  0.0000000  0  7G02G12G10G29G04G05G25
 -36464249.30147 -28367132.63346  21036523.7504                   21036519.1094
 -18267539.85247 -14191303.77746  20882928.6024                   20882925.5904
 -22890832.99247 -17793725.80945  21761524.2424                   21761521.3014
  26454091.67646  20710257.73443  24341257.8524                   24341255.7344
 -42683612.67646 -33210871.30543  23626087.4924                   23626085.8794
 -15446151.83247 -11990854.29346  20633876.3524                   20633873.3524
   4934631.18447   3898437.66045  22359597.5004                   22359596.5234
 11  8  2  2 34 30.0000000  0  7G02G12G10G29G04G05G25
 -36528040.63347 -28416840.16046  21024384.6334                   21024379.8834
 -18352030.31247 -14257140.49246  20866850.1564                   20866847.4614
 -22914397.48447 -17812087.73845  21757040.2734                   21757037.3524
  26282008.36346  20576166.91443  24308511.1804                   24308509.6844
 -42691727.69546 -33217194.74243  23624543.2814                   23624541.5274
 -15574136.68047 -12090582.71946  20609521.9924                   20609518.3674
   4784686.98847   3781598.05545  22331063.8134                   22331063.2544
 11  8  2  2 35  0.0000000  0  7G02G12G10G29G04G05G25
 -36591654.36347 -28466409.29746  21012279.3364                   21012274.5904
 -18435918.53147 -14322507.93446  20850887.3054                   20850883.7274
 -22937462.46147 -17830060.44945  21752650.6334                   21752648.1054
  26109887.87546  20442047.11743  24275757.6644                   24275756.3284
 -42699848.57846 -33223522.73843  23622997.3524                   23622996.3984
 -15701547.53547 -12189863.88346  20585276.3054                   20585272.6484
   4635240.41047   3665146.19945  22302625.0394                   22302624.5984
 11  8  2  2 35 30.0000000  0  7G02G12G10G29G04G05G25
 -36655090.65647 -28515840.15646  21000207.9534                   21000203.0704
 -18519203.99247 -14387405.69546  20835038.0474                   20835035.2424
 -22960029.77747 -17847645.37145  21748356.5084                   21748353.8444
  25937731.94546  20307899.71943  24242997.3914                   24242995.9224
 -42707975.75046 -33229855.60543  23621450.9534                   23621448.8164
 -15828382.54747 -12288696.33646  20561140.3134                   20561137.1054
   4486294.16047   3549084.21145  22274281.9614                   22274281.2934
 11  8  2  2 36  0.0000000  0  7G02G12G10G29G04G05G25
 -36718351.51647 -28565134.33246  20988169.6564                   20988165.0084
 -18601887.97747 -14451834.77046  20819304.1094                   20819300.9924
 -22982102.84847 -17864845.15245  21744155.8524                   21744153.5984
  25765540.36746  20173724.51643  24210229.7584                   24210228.9574
 -42716110.77746 -33236194.62943  23619903.9694                   23619901.3164
 -15954641.84047 -12387080.18046  20537113.2894                   20537110.6724
   4337849.32847   3433412.94545  22246033.9384                   22246032.8954
 11  8  2  2 36 30.0000000  0  7G02G12G10G29G04G05G25
 -36781438.00447 -28614292.62946  20976164.8444                   20976159.9844
 -18683970.93047 -14515795.50846  20803684.1954                   20803680.9064
 -23003684.42247 -17881661.95745  21740048.9694                   21740046.5434
  25593313.69946  20039522.02043  24177456.0314                   24177455.8714
 -42724254.65646 -33242540.50443  23618353.4694                   23618351.3594
 -16080324.41447 -12485014.61746  20513196.9534                   20513193.9614
   4189907.69547   3318133.78545  22217881.0634                   22217881.0394
 11  8  2  2 37  0.0000000  0  7G02G12G10G29G04G05G25
 -36844352.94147 -28663317.24246  20964192.4384                   20964187.3444
 -18765454.97347 -14579289.55546  20788178.5704                   20788175.0594
 -23024779.33647 -17898099.56245  21736034.7894                   21736032.1764
  25421050.81346  19905291.26243  24144676.1484                   24144674.7814
 -42732410.17246 -33248895.48043  23616801.3364                   23616800.3954
 -16205431.41847 -12582500.57046  20489390.1724                   20489387.1484
   4042469.27047   3203246.74645  22189824.4774                   22189823.7154
 11  8  2  2 37 30.0000000  0  7G02G12G10G29G04G05G25
 -36907095.87947 -28712207.84046  20952252.4924                   20952247.9734
 -18846338.94547 -14642316.01646  20772786.3984                   20772783.7114
 -23045388.36347 -17914158.52745  21732113.1954                   21732110.5554
  25248754.02046  19771034.05943  24111888.5314                   24111887.9024
 -42740576.80546 -33255259.12543  23615247.6804                   23615245.5984
 -16329960.80547 -12679536.42246  20465692.8834                   20465690.2624
   3895537.55947   3088754.52045  22161864.2344                   22161863.9494
 11  8  2  2 38  0.0000000  0  7G02G12G10G29G04G05G25
 -36969668.68047 -28760965.85546  20940345.5554                   20940340.4224
 -18926623.75847 -14704875.59846  20757508.8674                   20757505.5744
 -23065515.11747 -17929841.70344  21728282.6644                   21728280.6054
  25076423.01246  19636750.27743  24079094.7344                   24079094.3794
 -42748755.91446 -33261632.45743  23613691.3134                   23613689.5634
 -16453911.90647 -12776121.66846  20442105.4694                   20442103.0634
   3749113.60547   2974657.98045  22134001.0234                   22134000.2894
 11  8  2  2 38 30.0000000  0  7G02G12G10G29G04G05G25
 -37032071.91847 -28809591.75446  20928470.9064                   20928465.6134
 -19006309.78547 -14766968.60546  20742345.2194                   20742341.9024
 -23085161.87947 -17945150.85945  21724544.3364                   21724541.9884
  24904059.03946  19502440.73443  24046295.5944                   24046294.9574
 -42756948.05546 -33268015.95343  23612132.7424                   23612130.3244
 -16577283.90247 -12872255.66446  20418628.5004                   20418625.8754
   3603199.58647   2860958.77045  22106234.5474                   22106233.9574
 11  8  2  2 39  0.0000000  0  7G02G12G10G29G04G05G25
 -37094308.35947 -28858087.66846  20916627.7424                   20916622.9414
 -19085399.13347 -14828596.65646  20727294.7814                   20727292.0124
 -23104333.21547 -17960089.56245  21720896.3284                   21720893.4064
  24731660.98445  19368104.62143  24013489.0004                   24013488.3794
 -42765156.14146 -33274411.86343  23610570.5004                   23610568.3204
 -16700078.03547 -12967939.37146  20395261.7974                   20395258.9454
   3457795.44947   2747656.87945  22078565.0864                   22078564.4064
 11  8  2  2 39 30.0000000  0  7G02G12G10G29G04G05G25
 -37156377.34047 -28906453.10246  20904815.9694                   20904811.2894
 -19163890.61747 -14889758.84846  20712358.4384                   20712355.6374
 -23123029.59447 -17974658.15644  21717338.6024                   21717335.4734
  24559231.54346  19233744.09843  23980677.4694                   23980676.4924
 -42773378.83646 -33280819.14143  23609005.6254                   23609003.6374
 -16822291.44947 -13063170.57846  20372005.1414                   20372002.6994
   3312904.99247   2634755.25045  22050992.8834                   22050992.9024
 11  8  2  2 40  0.0000000  0  7G02G12G10G29G04G05G25
 -37218280.62947 -28954689.42246  20893036.4144                   20893031.9734
 -19241785.82047 -14950456.40646  20697535.8204                   20697532.6024
 -23141255.18747 -17988859.93744  21713869.8284                   21713867.6804
  24386770.46145  19099358.88343  23947858.5554                   23947857.7234
 -42781618.20746 -33287239.46543  23607436.9454                   23607435.8524
 -16943924.84847 -13157949.82446  20348859.4304                   20348856.1954
   3168528.77047   2522254.33645  22023519.6954                   22023518.9884
 11  8  2  2 40 30.0000000  0  7G02G12G10G29G04G05G25
 -37280016.98847 -29002795.67246  20881288.3134                   20881283.3594
 -19319082.24247 -15010687.36746  20682826.7194                   20682823.6604
 -23159009.72347 -18002694.63744  21710491.8524                   21710489.0084
  24214281.07446  18964951.59843  23915034.8914                   23915034.0274
 -42789872.40646 -33293671.32843  23605866.3674                   23605864.7274
 -17064974.55147 -13252274.23846  20325824.6174                   20325820.7114
   3024671.41447   2410157.73045  21996143.8444                   21996143.4144
 11  8  2  2 41  0.0000000  0  7G02G12G10G29G04G05G25
 -37341588.79347 -29050773.68746  20869571.6414                   20869566.3094
 -19395782.63347 -15070453.90646  20668231.3054                   20668227.9844
 -23176297.89547 -18016165.93744  21707201.9774                   21707199.3954
  24041762.57046  18830521.66443  23882205.9844                   23882204.7854
 -42798143.89146 -33300116.62943  23604293.2814                   23604291.4924
 -17185441.89147 -13346144.87146  20302899.7894                   20302896.8484
   2881332.73847   2298465.29345  21968867.3284                   21968866.9454
 11  8  2  2 41 30.0000000  0  7G02G12G10G29G04G05G25
 -37402996.57047 -29098623.89146  20857885.6174                   20857881.0314
 -19471887.02747 -15129756.02745  20653748.6174                   20653745.6954
 -23193121.87947 -18029275.52744  21704000.4844                   21703997.6334
  23869216.19546  18696069.99643  23849371.9384                   23849370.5634
 -42806433.12546 -33306575.82043  23602715.1174                   23602714.2074
 -17305325.52347 -13439560.65646  20280086.7814                   20280083.9264
   2738515.04747   2187178.82045  21941690.2584                   21941689.4804
 11  8  2  2 42  0.0000000  0  7G02G12G10G29G04G05G25
 -35888820.94547 -27918746.75846  21146024.3284                   21146019.3094
 -17971974.97747 -13960993.38346  20939172.4924                   20939169.4024
 -21634065.68047 -16814426.54344  22000678.6024                   22000676.0314
  25272066.82846  19789200.39843  24116324.9224                   24116324.0554
 -41239322.10746 -32085450.34743  23900926.9224                   23900925.2034
 -15849202.61347 -12304919.40646  20557177.8594                   20557174.4884
   4171643.21147   3303902.10545  22214405.1564                   22214404.9694
 11  8  2  2 42 30.0000000  0  7G02G12G10G29G04G05G25
 -35949904.48047 -27966344.32446  21134400.4304                   21134395.7664
 -18046889.59447 -14019368.40646  20924916.4224                   20924913.3404
 -21649970.49647 -16826819.91044  21997652.4614                   21997649.3834
  25099466.06346  19654706.32043  24083479.7194                   24083479.0984
 -41247649.48046 -32091939.23043  23899342.2424                   23899340.7034
 -15967917.93747 -12397424.83246  20534587.3524                   20534584.0274
   4029872.05947   3193431.10945  22187427.2814                   22187426.3404
 11  8  2  2 43  0.0000000  0  7G02G12G10G29G04G05G25
 -36010828.33647 -28013817.45346  21122806.9454                   21122801.9384
 -18121211.28947 -14077281.40646  20910773.6564                   20910770.9304
 -21665420.84047 -16838859.13344  21994711.9454                   21994709.0824
  24926838.45746  19520191.38743  24050629.5084                   24050628.6174
 -41255998.07446 -32098444.64143  23897753.4534                   23897752.3834
 -16086049.18047 -12489475.11746  20512107.2734                   20512104.7074
   3888625.74647   3083369.09445  22160548.5554                   22160548.6134
 11  8  2  2 43 30.0000000  0  7G02G12G10G29G04G05G25
 -36071594.17647 -28061167.45745  21111243.4774                   21111238.5434
 -18194941.43747 -14134733.47346  20896743.2504                   20896740.7544
 -21680420.10947 -16850546.88744  21991857.8204                   21991855.2194
  24754184.64146  19385655.96943  24017774.7344                   24017773.9844
 -41264369.35246 -32104967.71143  23896160.5634                   23896159.3594
 -16203596.58247 -12581070.47346  20489738.9694                   20489735.9384
   3747905.25447   2973716.79745  22133770.8364                   22133770.3204
 11  8  2  2 44  0.0000000  0  7G02G12G10G29G04G05G25
 -36132201.17247 -28108393.66846  21099710.1644                   21099705.5944
 -18268079.38747 -14191724.07445  20882825.4454                   20882822.7074
 -21694969.57047 -16861884.12144  21989089.0164                   21989086.4454
  24581506.60946  19251101.69543  23984914.4454                   23984914.0554
 -41272762.59846 -32111507.96143  23894563.2034                   23894561.9064
 -16320558.60947 -12672209.68446  20467482.2664                   20467478.9884
   3607713.56347   2864476.56345  22107092.9694                   22107092.4614
 11  8  2  2 44 30.0000000  0  7G02G12G10G29G04G05G25
 -36192650.87147 -28155497.31645  21088207.3444                   21088202.4884
 -18340625.50847 -14248253.52045  20869020.4614                   20869017.4574
 -21709072.44947 -16872873.37544  21986405.4924                   21986402.6884
  24408804.63346  19116528.80143  23952051.2664                   23952050.5704
 -41281178.95346 -32118066.21543  23892961.9694                   23892960.1994
 -16436934.25847 -12762891.97746  20445336.4534                   20445333.3054
   3468052.16447   2755649.53545  22080516.2664                   22080515.7664
 11  8  2  2 45  0.0000000  0  7G02G12G10G29G04G05G25
 -36252943.04747 -28202478.22345  21076733.7894                   21076729.2774
 -18412580.35947 -14304322.23846  20855328.0704                   20855324.9104
 -21722730.18447 -16883515.75844  21983806.4844                   21983803.6954
  24236080.97346  18981939.05543  23919182.9534                   23919182.2344
 -41289617.69946 -32124641.87543  23891356.2974                   23891354.3714
 -16552722.07847 -12853116.23046  20423302.6564                   20423299.5554
   3328923.91047   2647237.94945  22054041.0944                   22054040.9454
 11  8  2  2 45 30.0000000  0  7G02G12G10G29G04G05G25
 -36313079.00448 -28249337.39845  21065290.3914                   21065285.6684
 -18483944.41847 -14359930.58646  20841748.2114                   20841744.8554
 -21735946.02347 -16893813.81644  21981291.8594                   21981289.0234
  24063336.03946  18847332.65243  23886309.7034                   23886310.2934
 -41298080.07046 -32131235.93743  23889745.5314                   23889743.6484
 -16667922.21547 -12942882.53946  20401380.4774                   20401377.6994
   3190329.76247   2539242.57045  22027667.6724                   22027667.0044
 11  8  2  2 46  0.0000000  0  7G02G12G10G29G04G05G25
 -36373058.94948 -28296075.02345  21053877.5004                   21053871.9924
 -18554717.83647 -14415078.71146  20828280.0084                   20828276.9534
 -21748721.96547 -16903769.08644  21978860.2584                   21978857.5864
  23890571.50046  18712711.00843  23853435.1724                   23853433.8444
 -41306566.07846 -32137848.44543  23888130.0084                   23888128.9384
 -16782533.44947 -13032189.96546  20379570.7504                   20379568.0314
   3052272.20747   2431665.28945  22001395.7034                   22001395.5474
 11  8  2  2 46 30.0000000  0  7G02G12G10G29G04G05G25
 -36432885.53148 -28342693.12945  21042492.1804                   21042486.5704
 -18624903.91847 -14469769.16046  20814924.1334                   20814921.2664
 -21761062.90247 -16913385.39144  21976512.2274                   21976509.2624
  23717786.52746  18578073.43843  23820554.6174                   23820554.3484
 -41315078.50846 -32144481.52743  23886510.9844                   23886509.2814
 -16896557.43747 -13121039.79346  20357872.6024                   20357869.3834
   2914750.76247   2324505.76245  21975226.4144                   21975226.1524
 11  8  2  2 47  0.0000000  0  7G02G12G10G29G04G05G25
 -36492559.23447 -28389192.12145  21031135.5634                   21031131.5514
 -18694502.46147 -14524001.78546  20801680.2894                   20801676.8444
 -21772971.37547 -16922664.71944  21974246.3594                   21974243.1214
  23544982.23046  18443420.81343  23787671.0234                   23787669.8324
 -41323617.34846 -32151135.20343  23884886.2734                   23884884.4184
 -17009993.42247 -13209431.45346  20336286.3594                   20336283.5274
   2777767.59047   2217765.66845  21949159.1954                   21949158.9454
 11  8  2  2 47 30.0000000  0  7G02G12G10G29G04G05G25
 -36552079.82447 -28435571.78145  21019809.6644                   21019804.6994
 -18763513.51247 -14577776.64146  20788547.8364                   20788544.0474
 -21784449.16447 -16931608.44144  21972061.8914                   21972059.0124
  23372160.72346  18308754.74643  23754784.6724                   23754783.2344
 -41332182.08246 -32157809.03943  23883256.2114                   23883254.7734
 -17122839.62547 -13297363.52746  20314812.5784                   20314809.9884
   2641325.23847   2111446.98445  21923195.3284                   21923195.0354
 11  8  2  2 48  0.0000000  0  7G02G12G10G29G04G05G25
 -36611450.11747 -28481834.33646  21008512.6414                   21008507.4614
 -18831939.68047 -14631095.72746  20775526.3054                   20775523.4804
 -21795500.42247 -16940219.81244  21969959.3834                   21969956.4884
  23199321.34846  18174074.78143  23721894.4694                   23721893.1724
 -41340775.30146 -32164505.06643  23881621.5634                   23881619.1724
 -17235097.86347 -13384837.46146  20293450.7894                   20293447.3014
   2505423.52047   2005549.57845  21897334.0314                   21897333.3284
 11  8  2  2 48 30.0000000  0  7G02G12G10G29G04G05G25
 -36670670.77347 -28527980.28945  20997243.3834                   20997238.2074
 -18899781.72347 -14683959.65646  20762616.5784                   20762613.6914
 -21806128.02747 -16948501.06244  21967936.3444                   21967933.6454
  23026464.99646  18039381.56643  23689000.6024                   23688999.2704
 -41349397.49246 -32171223.68443  23879980.1334                   23879978.6954
 -17346767.87947 -13471853.03946  20272200.1884                   20272197.1254
   2370064.05147   1900074.69545  21871575.2734                   21871575.2344
 11  8  2  2 49  0.0000000  0  7G02G12G10G29G04G05G25
 -36729742.54347 -28574010.22345  20986002.1024                   20985997.1644
 -18967040.33247 -14736368.96546  20749817.8754                   20749815.0204
 -21816334.68047 -16956454.28144  21965994.2814                   21965991.5744
  22853593.14146  17904676.30143  23656103.7974                   23656102.6644
 -41358048.94146 -32177965.07843  23878334.0084                   23878332.6804
 -17457848.32847 -13558409.20746  20251062.4774                   20251059.3914
   2235248.54747   1795023.69145  21845920.7424                   21845920.8594
 11  8  2  2 49 30.0000000  0  7G02G12G10G29G04G05G25
 -36788668.78948 -28619926.77746  20974789.0864                   20974783.7974
 -19033719.20347 -14788326.53146  20737129.6644                   20737126.0634
 -21826125.90247 -16964083.79744  21964130.7274                   21964128.5784
  22680703.84046  17769957.41043  23623204.3284                   23623203.1334
 -41366732.85246 -32184731.81643  23876681.5784                   23876680.1684
 -17568342.15647 -13644508.27346  20230036.1484                   20230033.1844
   2100975.82847   1690395.63345  21820369.8594                   21820369.2304
 11  8  2  2 50  0.0000000  0  7G02G12G10G29G04G05G25
 -36847447.91447 -28665728.69146  20963603.4144                   20963598.6684
 -19099816.84047 -14839831.19146  20724551.3524                   20724548.1994
 -21835502.02747 -16971389.87544  21962346.7734                   21962343.5984
  22507800.26246  17635227.39143  23590302.0004                   23590300.4064
 -41375447.74246 -32191522.67643  23875023.3834                   23875021.6604
 -17678246.43747 -13730147.94946  20209122.1804                   20209118.9104
   1967249.66047   1586193.44945  21794922.8054                   21794922.2304
 11  8  2  2 50 30.0000000  0  7G02G12G10G29G04G05G25
 -36906079.39547 -28711415.53545  20952446.1724                   20952441.1684
 -19165332.64147 -14890882.46546  20712084.7194                   20712080.7624
 -21844464.18047 -16978373.35544  21960641.3984                   21960638.3014
  22334885.64146  17500488.78543  23557397.9224                   23557395.0864
 -41384192.37146 -32198336.67643  23873359.2734                   23873357.4384
 -17787559.68047 -13815327.06646  20188320.5704                   20188317.7194
   1834073.12547   1482419.55145  21769580.0784                   21769579.7274
 11  8  2  2 51  0.0000000  0  7G02G12G10G29G04G05G25
 -35389144.82447 -27529388.57445  21241109.2814                   21241104.2504
 -17654848.61347 -13713881.93046  20999519.6334                   20999516.5664
 -20277598.13747 -15757438.78144  22258805.7504                   22258803.5474
  23737383.60246  18593344.35943  23824284.1254                   23824281.5784
 -39817550.03146 -30977576.43043  24171481.8754                   24171479.8834
 -16320861.00847 -12672444.96946  20467424.2034                   20467420.9574
   3276869.01247   2606676.12145  22044134.7504                   22044134.1914
 11  8  2  2 51 30.0000000  0  7G02G12G10G29G04G05G25
 -35447486.82048 -27574849.86345  21230007.2584                   21230001.9964
 -17719207.75847 -13764031.91446  20987272.9534                   20987269.7544
 -20285745.20347 -15763787.13344  22257255.7894                   22257253.1054
  23564445.48446  18458587.45343  23791374.6644                   23791372.6884
 -39826359.85946 -30984441.28143  24169805.4454                   24169803.0554
 -16428995.41847 -12756705.52346  20446846.9924                   20446843.5354
   3144792.08647   2503759.05545  22019001.3914                   22019000.9494
 11  8  2  2 52  0.0000000  0  7G02G12G10G29G04G05G25
 -35505685.82047 -27620199.71545  21218932.3594                   21218927.1994
 -17782990.60247 -13813732.82846  20975135.2584                   20975132.0594
 -20293489.66047 -15769821.75444  22255781.6954                   22255778.7074
  23391496.64146  18323822.18443  23758462.9454                   23758462.0784
 -39835203.55546 -30991332.52743  24168122.4614                   24168121.1054
 -16536540.84047 -12840507.13346  20426380.7344                   20426378.2974
   3013266.44147   2401271.57045  21993972.4384                   21993972.2664
 11  8  2  2 52 30.0000000  0  7G02G12G10G29G04G05G25
 -35563741.07447 -27665437.57445  21207884.3204                   21207879.2464
 -17846196.32847 -13862984.04345  20963107.3674                   20963104.1844
 -20300832.60547 -15775543.53144  22254384.8984                   22254381.7664
  23218540.08646  18189050.91043  23725550.4384                   23725549.0634
 -39844080.00846 -30998249.25043  24166432.8524                   24166431.7194
 -16643494.90647 -12923847.94946  20406028.6024                   20406025.4844
   2882295.46147   2299216.27745  21969050.0864                   21969049.4694
 11  8  2  2 53  0.0000000  0  7G02G12G10G29G04G05G25
 -35621654.11748 -27710564.59845  21196863.8594                   21196858.9924
 -17908827.75447 -13911787.75045  20951189.2114                   20951185.6524
 -20307777.91447 -15780955.44944  22253063.2424                   22253059.9104
  23045575.62946  18054273.48443  23692636.5944                   23692635.0634
 -39852990.65246 -31005192.65643  24164737.1644                   24164735.6484
 -16749858.79747 -13006728.87946  20385788.4224                   20385785.2894
   2751879.28547   2197593.30945  21944233.0394                   21944231.9694
 11  8  2  2 53 30.0000000  0  7G02G12G10G29G04G05G25
 -35679426.57047 -27755582.07845  21185870.5164                   21185864.8404
 -17970886.35947 -13960145.10946  20939379.8524                   20939376.3554
 -20314328.87947 -15786060.10544  22251816.2114                   22251813.4734
  22872603.60246  17919490.14543  23659721.5864                   23659719.5634
 -39861936.86346 -31012163.74243  24163035.2344                   24163034.5664
 -16855633.18747 -13089150.46546  20365660.1884                   20365657.1134
   2622018.47347   2096403.08245  21919520.8204                   21919520.2974
 11  8  2  2 54  0.0000000  0  7G02G12G10G29G04G05G25
 -35737059.80148 -27800491.07845  21174903.3984                   21174897.9144
 -18032373.73847 -14008057.35245  20927678.7114                   20927675.5314
 -20320489.19947 -15790860.35944  22250643.8054                   22250641.2814
  22699624.95746  17784701.69543  23626803.9534                   23626802.8484
 -39870919.78146 -31019163.46943  24161324.9694                   24161324.9144
 -16960818.56247 -13171113.08646  20345643.8524                   20345641.0824
   2492713.85947   1995646.26645  21894915.2034                   21894914.6454
 11  8  2  2 54 30.0000000  0  7G02G12G10G29G04G05G25
 -35794553.90647 -27845291.67245  21163962.4144                   21163957.2704
 -18093290.39547 -14055524.87945  20916086.8204                   20916084.3204
 -20326260.62947 -15795357.57844  22249546.2194                   22249543.0354
  22526641.15646  17649909.22343  23593886.0394                   23593885.1844
 -39879939.05546 -31026191.49643  24159609.8134                   24159608.5434
 -17065414.37547 -13252616.29346  20325740.3674                   20325737.3364
   2363967.40247   1895324.37545  21870415.7814                   21870414.9574
 11  8  2  2 55  0.0000000  0  7G02G12G10G29G04G05G25
 -35851910.21947 -27889984.89545  21153047.8984                   21153042.4844
 -18153638.31247 -14102549.22345  20904603.3204                   20904599.9144
 -20331646.82847 -15799554.62144  22248520.1954                   22248518.5474
  22353652.73846  17515113.13343  23560967.9534                   23560966.0864
 -39888995.94946 -31033248.87943  24157886.4384                   24157884.8364
 -17169421.10548 -13333660.47346  20305948.1644                   20305944.9574
   2235779.63347   1795437.81645  21846022.2114                   21846021.6724
 11  8  2  2 55 30.0000000  0  7G02G12G10G29G04G05G25
 -35909128.48047 -27934570.53545  21142159.4224                   21142154.5004
 -18213417.67247 -14149130.53945  20893227.3984                   20893224.2074
 -20336650.34047 -15803453.45744  22247569.1644                   22247565.9574
  22180661.78546  17380315.07044  23528049.2894                   23528047.2154
 -39898090.10246 -31040335.31642  24156156.0474                   24156154.3324
 -17272837.97347 -13414245.01646  20286268.3984                   20286265.3794
   2108152.65647   1695988.24645  21821735.7194                   21821734.8364
 11  8  2  2 56  0.0000000  0  7G02G12G10G29G04G05G25
 -35966210.07047 -27979049.68745  21131297.4924                   21131292.1454
 -18272630.28147 -14195270.22745  20881959.7894                   20881956.4924
 -20341274.21147 -15807056.46144  22246689.2894                   22246685.9844
  22007668.95346  17245515.52744  23495129.4614                   23495127.7544
 -39907221.98846 -31047450.99242  24154418.1804                   24154416.6644
 -17375665.35947 -13494370.23046  20266700.9774                   20266698.2274
   1981087.30547   1596976.30145  21797555.7034                   21797555.3134
 11  8  2  2 56 30.0000000  0  7G02G12G10G29G04G05G25
 -36023153.66847 -28023421.30546  21120461.1254                   21120456.0434
 -18331275.56647 -14240967.84446  20870800.1094                   20870796.8134
 -20345519.27347 -15810364.33244  22245881.2894                   22245877.9574
  21834677.52746  17110717.11743  23462209.4534                   23462208.3914
 -39916390.65246 -31054595.45742  24152673.3364                   24152672.2464
 -17477901.23847 -13574034.53546  20247246.1414                   20247243.8014
   1854586.75047   1498404.44945  21773483.2734                   21773482.8324
 11  8  2  2 57  0.0000000  0  7G02G12G10G29G04G05G25
 -36079963.83647 -28067688.95745  21109650.7114                   21109645.4534
 -18389358.41447 -14286227.19545  20859746.9614                   20859744.0084
 -20349392.21947 -15813382.19944  22245143.6414                   22245141.0394
  21661684.87946  16975917.69543  23429290.8134                   23429288.7464
 -39925600.15646 -31061771.71143  24150920.8754                   24150918.6764
 -17579549.66047 -13653241.07046  20227903.2584                   20227900.2934
   1728648.39847   1400270.69145  21749518.0634                   21749517.7464
 11  8  2  2 57 30.0000000  0  7G02G12G10G29G04G05G25
 -36136638.25847 -28111850.83245  21098865.5704                   21098860.6414
 -18446877.12147 -14331046.97745  20848801.5394                   20848798.7664
 -20352893.08247 -15816110.15244  22244478.1484                   22244474.9734
  21488695.09446  16841120.53143  23396371.2424                   23396370.0434
 -39934847.74246 -31068977.71943  24149160.7274                   24149159.5864
 -17680607.69147 -13731987.56246  20208672.4614                   20208669.6214
   1603276.46547   1302578.29745  21725660.7894                   21725660.0394
 11  8  2  2 58  0.0000000  0  7G02G12G10G29G04G05G25
 -36193177.50447 -28155907.37945  21088106.4844                   21088101.6844
 -18503832.82047 -14375428.04346  20837963.3054                   20837960.6214
 -20356024.37147 -15818550.12144  22243882.5394                   22243879.2814
  21315709.22746  16706326.37943  23363453.8834                   23363451.4184
 -39944134.02046 -31076213.79342  24147393.7344                   24147392.7504
 -17781075.27347 -13810273.96546  20189554.2114                   20189551.0514
   1478472.10947   1205328.16445  21701911.0634                   21701910.2974
 11  8  2  2 58 30.0000000  0  7G02G12G10G29G04G05G25
 -36249582.66047 -28199859.42645  21077373.5474                   21077368.0514
 -18560227.75847 -14419372.14845  20827231.9694                   20827228.6254
 -20358789.59847 -15820704.84044  22243355.0944                   22243352.9694
  21142728.26646  16571536.06343  23330537.0474                   23330533.9064
 -39953459.69546 -31083480.55943  24145618.3914                   24145618.1804
 -17880953.35547 -13888101.02046  20170548.4144                   20170544.8554
   1354236.05547   1108520.87145  21678269.9614                   21678269.2114
 11  8  2  2 59  0.0000000  0  7G02G12G10G29G04G05G25
 -36305854.84047 -28243707.86345  21066664.8984                   21066660.1414
 -18616063.50847 -14462880.52745  20816606.5554                   20816603.4774
 -20361191.99247 -15822576.84844  22242898.7894                   22242896.1374
  20969752.99246  16436750.16443  23297620.3444                   23297618.6454
 -39962825.51646 -31090778.63743  24143837.2504                   24143835.9924
 -17980242.23847 -13965468.95346  20151653.8594                   20151650.6094
   1230568.96547   1012156.93045  21654736.2034                   21654735.7074
 11  8  2  2 59 30.0000000  0  7G02G12G10G29G04G05G25
 -34786573.57047 -27059852.32445  21355774.6334                   21355769.7974
 -17095920.22347 -13278353.28945  21105879.8754                   21105876.7304
 -18787815.24247 -14596568.98444  22542302.1804   22542299.2304   22372209.82446
  17529573.73443                  23564499.2974                   23564496.8554
 -38396812.34446 -29870508.70743  24441840.0004                   24441838.4064
 -16503519.57447 -12814775.94146  20432665.0394                   20432662.0514
   2682895.37947   2143839.86745  21931105.5704                   21931104.6884
 11  8  2  3  0  0.0000000  0  7G02G12G10G29G04G05G25
 -34842583.75447 -27103496.60945  21345116.1334                   21345111.3134
 -17150643.71547 -13320994.96145  21095466.8134                   21095463.1524
 -18789502.90247 -14597884.06244                  22541980.8284   22541978.1604
  22199247.77346  17394798.14843  23531584.5864                   23531583.2624
 -38406261.88846 -29877872.00842  24440041.6804                   24440040.5354
 -16601632.83647 -12891227.82046  20413994.4304                   20413991.2114
   2560367.46547   2048363.59845  21907788.5864                   21907788.4384
 11  8  2  3  0 30.0000000  0  7G02G12G10G29G04G05G25
 -34898463.38747 -27147039.17245  21334482.5474                   21334477.2194
 -17204812.46547 -13363204.37945  21085158.6024                   21085155.5274
 -18790837.00847 -14598923.62944  22541727.3444   22541724.4964   22026294.83246
                  17260029.64843  23498673.2034                   23498670.9184
 -38415753.25846 -29885267.90642  24438234.6024                   24438234.1884
 -16699158.07847 -12967221.50046  20395436.2034                   20395432.7704
   2438411.27347   1953332.80545  21884581.7344                   21884581.2544
 11  8  2  3  1  0.0000000  0  8G26G02G12G10G29G04G05G25
  35980094.14155  28166974.64852  24890905.7894                   24890904.3204
 -34954214.51647 -27190481.59445  21323873.6174                   21323868.5234
 -17258429.52747 -13404983.90645  21074955.9844                   21074952.4344
 -18791821.64547 -14599690.87944  22541539.4614   22541537.2504   21853350.72346
                  17125268.05543  23465763.0314                   23465760.7734
 -38425288.30546 -29892697.84042  24436420.7274                   24436419.6524
 -16796096.94147 -13042758.25046  20376989.1094                   20376986.0664
   2317026.32047   1858747.15645  21861482.4384                   21861482.2074
 11  8  2  3  1 30.0000000  0  8G26G02G12G10G29G04G05G25
  35796370.09445  28023813.19942  24855944.5164                   24855944.2734
 -35009838.33247 -27233824.83245  21313288.7584                   21313283.3244
 -17311496.90247 -13446335.11745  21064857.3364                   21064854.3594
 -18792460.23847 -14600188.50444  22541417.9304   22541416.2384   21680416.60246
                  16990514.25843  23432854.2274                   23432852.4494
 -38434867.60246 -29900162.21542  24434597.4844                   24434597.1454
 -16892450.25847 -13117838.73046  20358653.5864                   20358650.2814
   2196213.34047   1764607.18045  21838492.5784                   21838492.4734
 11  8  2  3  2  0.0000000  0  8G26G02G12G10G29G04G05G25
  35612530.91845  27880562.03942  24820960.9384                   24820960.6374
 -35065337.59847 -27277071.01245  21302727.2814                   21302722.3094
 -17364018.74247 -13487261.22745  21054862.3984                   21054859.4774
 -18792758.11747 -14600420.63744  22541362.6174   22541359.2424   21507491.18046
                  16855767.23444  23399947.5554                   23399946.6844
 -38444494.12946 -29907663.41842  24432766.7194                   24432765.3554
 -16988220.41047 -13192464.81246  20340429.4144                   20340426.3874
   2075970.79747   1670911.71945  21815611.1024                   21815610.5594
 11  8  2  3  2 30.0000000  0  8G26G02G12G10G29G04G05G25
  35428575.61745  27737220.30542  24785955.2894                   24785955.2344
 -35120716.82447 -27320223.64845  21292189.3444                   21292184.6604
 -17415999.70347 -13527765.87145  21044970.6644                   21044967.5124
 -18792721.96147 -14600392.46944  22541368.7584   22541366.4184   21334572.10946
                  16721025.19544  23367043.0784                   23367040.9494
 -38454171.83646 -29915204.53942  24430924.3054                   24430923.3874
 -17083411.58647 -13266639.72746  20322315.0004                   20322311.5984
   1956295.99647   1577658.66445  21792838.1174                   21792837.2464
 11  8  2  3  3  0.0000000  0  8G26G02G12G10G29G04G05G25
  35244509.66845  27593792.37942  24750928.3364                   24750929.4734
 -35175974.10247 -27363281.25445  21281674.2424                   21281669.0394
 -17467439.10547 -13567848.52745  21035182.3524                   21035179.4694
 -18792351.73447 -14600104.00444  22541439.2034   22541437.0944   21161663.13746
                  16586290.99644  23334139.8134                   23334137.5314
 -38463898.50846 -29922783.77042  24429073.8524                   24429072.2584
 -17178021.91047 -13340362.03946  20304311.0004                   20304307.9064
   1837192.35247   1484850.63745  21770173.1884                   21770172.7664
 11  8  2  3  3 30.0000000  0  8G26G02G12G10G29G04G05G25
  35060335.66045  27450280.34442  24715881.1094                   24715882.3364
 -35231110.16847 -27406244.41445  21271182.0314                   21271177.0634
 -17518338.71947 -13607510.56245  21025496.2814                   21025493.5274
 -18791651.01246 -14599557.98844  22541572.2814   22541569.5394   20988765.54746
                  16451565.68044  23301237.5784                   23301235.9774
 -38473674.65246 -29930401.59842  24427213.0864                   24427211.7464
 -17272051.91047 -13413632.14146  20286417.7114                   20286414.7154
   1718660.52047   1392488.20345  21747617.3134                   21747617.1414
 11  8  2  3  4  0.0000000  0  8G26G02G12G10G29G04G05G25
  34876057.67245  27306687.22742  24680814.1564                   24680815.1804
 -35286124.43047 -27449112.66045  21260713.3914                   21260708.0664
 -17568698.82047 -13646752.21145  21015913.5234                   21015910.2584
 -18790621.59847 -14598755.86344  22541768.6094   22541765.2274   20815881.48046
                  16316850.90644  23268339.0864                   23268336.6174
 -38483499.58246 -29938057.32042  24425343.2424                   24425342.8794
 -17365500.54747 -13486449.23846  20268635.6334                   20268632.1484
   1600702.54747   1300572.91045  21725170.4774                   21725170.2034
 11  8  2  3  4 30.0000000  0  8G26G02G12G10G29G04G05G25
  34691677.75045  27163014.62542  24645727.7274                   24645728.3524
 -35341018.45347 -27491887.23445  21250266.8524                   21250262.2154
 -17618522.13347 -13685575.57845  21006432.0944                   21006429.4694
 -18789267.04746 -14597700.39544  22542025.9774   22542023.3244   20643011.75046
                  16182147.33244  23235442.5394                   23235441.0474
 -38493374.36346 -29945752.00442  24423464.3364                   24423463.6174
 -17458369.59447 -13558814.70746  20250962.5704                   20250959.3204
   1483318.34447   1209104.71945  21702833.0314                   21702832.7464
 11  8  2  3  5  0.0000000  0  8G26G02G12G10G29G04G05G25
  34507202.93845  27019268.05942  24610623.8914                   24610623.7894
 -35395788.80947 -27534565.43045  21239844.0634                   21239839.4414
 -17667806.21147 -13723978.76245  20997054.3284                   20997051.1024
 -18787586.22746 -14596390.67244  22542345.6484   22542343.1174   20470161.67646
                  16047459.05544  23202551.0234                   23202548.8284
 -38503295.36746 -29953482.68443  24421575.9454                   24421575.3284
 -17550655.12547 -13630725.50046  20233401.7894                   20233398.5354
   1366512.83647   1118087.44945  21680605.9614                   21680605.2854
 11  8  2  3  5 30.0000000  0  8G26G02G12G10G29G04G05G25
  34322635.49245  26875449.39542  24575500.7894                   24575501.5234
 -35450436.48447 -27577148.03945  21229445.6174                   21229440.5474
 -17716553.27047 -13761963.48845  20987777.4534                   20987774.5594
 -18785582.39546 -14594829.27744  22542726.7734   22542724.3134   20297332.00846
                  15912786.68844  23169662.6254                   23169660.6604
 -38513263.24246 -29961249.85543  24419680.1724                   24419679.0434
 -17642358.10248 -13702182.34846  20215951.0084                   20215947.8054
   1250286.33647   1027521.37545  21658489.1174                   21658487.8634
 11  8  2  3  6  0.0000000  0  8G26G02G12G10G29G04G05G25
  34137976.85945  26731559.69942  24540361.5084                   24540361.1684
 -35504963.69947 -27619636.76645  21219069.4774                   21219064.3054
 -17764766.78547 -13799532.47346  20978603.2344                   20978600.0474
 -18783260.48046 -14593020.00044  22543169.7344   22543166.4184   20124522.63746
                  15778130.13743  23136777.7344                   23136775.3714
 -38523279.93446 -29969055.09843  24417773.8444                   24417772.6724
 -17733480.90647 -13773187.10246  20198611.0164                   20198607.5124
   1134637.90647    937405.72345  21636481.4924                   21636480.6764
 11  8  2  3  6 30.0000000  0  8G26G02G12G10G29G04G05G25
  33953232.83646  26587603.35942  24505205.7274                   24505205.8134
 -35559368.23047 -27662029.89845  21208716.5944                   21208711.6484
 -17812445.57447 -13836684.78546  20969530.3834                   20969527.0984
 -18780620.35246 -14590962.75843  22543671.3594   22543668.8794   19951737.71546
                  15643492.61743  23103897.2584                   23103895.7074
 -38533343.12746 -29976896.52542  24415858.3524                   24415857.8714
 -17824021.30947 -13843738.04746  20181381.5314                   20181378.4024
   1019571.18047    847743.35545  21614584.6174                   21614584.2304
 11  8  2  3  7  0.0000000  0  8G26G02G12G10G29G04G05G25
  33768404.37545  26443581.26242  24470034.2034                   24470034.5274
 -35613652.72347 -27704329.48845  21198386.1334                   21198381.4184
 -17859592.97747 -13873423.03145  20960557.9614                   20960554.8054
 -18777666.79346 -14588661.29744  22544234.2734   22544230.4104   19778976.82446
                  15508873.85243  23071022.1724                   23071020.0824
 -38543454.44946 -29984775.50042  24413934.6884                   24413934.2234
 -17913981.50047 -13913836.87546  20164262.6644                   20164259.3954
    905085.07447    758533.41045  21592798.7034                   21592798.0394
 11  8  2  3  7 30.0000000  0  8G26G02G12G10G29G04G05G25
  33583494.93845  26299496.03942  24434847.2894                   24434846.8164
 -35667817.14147 -27746535.52045  21188079.5474                   21188074.1454
 -17906210.62147 -13909748.48045  20951687.3444                   20951684.0474
 -18774402.42246 -14586117.65644  22544854.7664   22544851.9694   19606241.41446
                  15374274.92243  23038151.1094                   23038149.2384
 -38553614.42246 -29992692.34042  24412000.1484                   24412000.4304
 -18003362.06247 -13983484.04346  20147253.9534                   20147250.7344
    791180.43047    669776.55145  21571123.6724                   21571122.8134
 11  8  2  3  8  0.0000000  0  8G26G02G12G10G29G04G05G25
  33398509.23045  26155351.35542  24399646.0164                   24399645.4414
 -35721860.25447 -27788647.02745  21177795.6174                   21177790.1764
 -17952298.26247 -13945660.93445  20942917.0314                   20942913.8444
 -18770828.36746 -14583332.69144  22545534.6724   22545532.1884   19433534.76246
                  15239698.38343  23005286.3444                   23005284.2034
 -38563821.46146 -30000645.85942  24410057.8914                   24410058.1454
 -18092161.48847 -14052678.37946  20130356.5554                   20130352.7934
    677859.73447    581474.71945  21549559.2974                   21549558.6414
 11  8  2  3  8 30.0000000  0  8G26G02G12G10G29G04G05G25
  34788876.09445  27238754.19542  24664224.1094                   24664224.8054
 -34200361.22347 -26603063.35945  21467327.2974                   21467321.8874
 -16422436.79347 -12753561.09045  21234039.8984                   21234036.6524
 -17191528.19146 -13352709.20744  22846065.5864   22846062.7934   20836283.77046
                  16332749.64544  23272221.1724                   23272218.7734
 -36998655.63746 -28781036.09442  24707900.1334                   24707899.0274
 -16604958.06247 -12893818.54746  20413361.5004                   20413358.3634
   2140547.02047   1721231.05545  21827899.5634                   21827899.0234
 11  8  2  3  9  0.0000000  0  8G26G02G12G10G29G04G05G25
  34603746.02746  27094497.07442  24628994.2894                   24628995.6094
 -34254164.33647 -26644987.86745  21457088.8364                   21457083.4414
 -16467471.49647 -12788653.07445  21225469.7584                   21225466.8594
 -17187344.88746 -13349449.49644  22846861.4144   22846859.4414   20663638.06646
                  16198220.58644  23239367.8984                   23239365.3404
 -37008958.14846 -28789064.01242  24705939.1094                   24705938.5314
 -16692598.45747 -12962109.73846  20396684.0704                   20396680.8874
   2028395.23447   1633840.07045  21806558.3834                   21806557.1134
 11  8  2  3  9 30.0000000  0  8G26G02G12G10G29G04G05G25
  34418545.63746  26950185.14842  24593752.6724                   24593752.1294
 -34307851.16847 -26686821.73845  21446871.9774                   21446866.8914
 -16511984.75447 -12823338.74245  21216999.3204                   21216996.1374
 -17182863.84446 -13345957.81244  22847714.3674   22847711.8914   20491022.50846
                  16063715.04744  23206519.6094                   23206517.1484
 -37019311.40246 -28797131.51642  24703968.6094                   24703968.8754
 -16779663.19147 -13029952.36746  20380116.2504                   20380113.1454
   1916826.23447   1546903.19145  21785327.1024                   21785326.5354
 11  8  2  3 10  0.0000000  0  8G26G02G12G10G29G04G05G25
  34233280.26646  26805822.58642  24558496.0864                   24558497.3834
 -34361419.64847 -26728563.39845  21436678.7424                   21436673.6604
 -16555976.57447 -12857618.09845  21208627.6884                   21208624.9414
 -17178085.43746 -13342234.38744  22848623.8284   22848621.2664   20318440.70346
                  15929235.78144  23173678.4384                   23173676.1174
 -37029713.64846 -28805237.11342  24701989.7814                   24701989.0234
 -16866150.56247 -13097345.10546  20363658.1564                   20363654.6374
   1805842.75447   1460422.58245  21764207.4774                   21764206.7074
 11  8  2  3 10 30.0000000  0  8G26G02G12G10G29G04G05G25
  34047953.04746  26661411.85542  24523229.6804                   24523230.5084
 -34414870.00047 -26770213.02345  21426507.3054                   21426502.0164
 -16599448.45747 -12891492.28945  21200356.0944                   21200352.5004
 -17173012.35946 -13338281.35544  22849589.3834   22849586.5164   20145894.22346
                  15794784.05144  23140843.5554                   23140841.3754
 -37040164.65246 -28813380.79342  24700002.0394                   24700000.2814
 -16952061.06247 -13164288.34046  20347310.0864                   20347307.0204
   1695445.58247   1374398.83645  21743199.5314                   21743198.6954
 11  8  2  3 11  0.0000000  0  8G26G02G12G10G29G04G05G25
  33862566.66446  26516954.95342  24487952.8914                   24487952.9304
 -34468203.37547 -26811771.49245  21416358.1414                   21416352.9184
 -16642402.54347 -12924963.01645  21192182.0864                   21192178.3674
 -17167648.17646 -13334101.52043  22850609.9384   22850607.6214   19973384.14546
                  15660360.69144  23108016.5314                   23108013.7194
 -37050664.97746 -28821562.88342  24698002.8054                   24698002.2464
 -17037395.71547 -13230782.84446  20331071.5004                   20331068.5274
   1585634.97347   1288832.14845  21722303.2344                   21722302.2464
 11  8  2  3 11 30.0000000  0  8G26G02G12G10G29G04G05G25
  33677123.43046  26372453.78142  24452664.3674                   24452663.2814
 -34521421.14547 -26853239.87945  21406230.9534                   21406226.2854
 -16684842.10247 -12958032.80545  21184105.5084                   21184102.6564
 -17161996.81247 -13329697.86743  22851685.3444   22851682.6764   19800910.95346
                  15525966.09044  23075195.6334                   23075193.9384
 -37061215.91846 -28829784.37942  24695995.2034                   24695994.7934
 -17122156.53147 -13296830.22346  20314941.8984                   20314938.6294
   1476410.23447   1203721.97745  21701518.5394                   21701517.4224
 11  8  2  3 12  0.0000000  0  8G26G02G12G10G29G04G05G25
  33491625.25446  26227909.82443  24417363.8984                   24417363.9024
 -34574524.87147 -26894619.39845  21396126.0234                   21396120.9104
 -16726769.62547 -12990703.60245  21176127.5234                   21176124.3874
 -17156061.94147 -13325073.31244  22852814.5234   22852811.9924   19628475.48446
                  15391600.83644  23042381.9924                   23042379.4344
 -37071818.70346 -28838046.25042  24693978.2114                   24693977.6454
 -17206345.16447 -13362431.73046  20298921.2344                   20298917.9884
   1367770.96547   1119068.01245  21680845.0554                   21680844.0824
 11  8  2  3 12 30.0000000  0  7G26G02G12G10G29G05G25
  33306077.74646  26083327.36342  24382056.6644                   24382055.2544
 -34627512.48047 -26935908.43045  21386042.2114                   21386037.8524
 -16768184.67647 -13022975.09045  21168246.4774                   21168243.5434
 -17149844.02747 -13320228.21943  22853997.8834   22853995.2704   19456081.51646
                  15257267.95344  23009576.3134                   23009574.8484
 -17289959.82447 -13427585.99646  20283010.0234                   20283006.4844
   1259720.14847   1034872.59445  21660284.0864                   21660283.1334
 11  8  2  3 13  0.0000000  0  7G26G02G12G10G29G05G25
  33120482.55546  25938707.78542  24346737.9304                   24346737.3524
 -34680386.02747 -26977108.59045  21375981.1024                   21375976.4804
 -16809091.00047 -13054850.15645  21160461.6724                   21160458.8484
 -17143347.75046 -13315166.20743  22855234.3134   22855231.5944   19283729.07846
                  15122967.41844  22976779.0474                   22976777.0044
 -17373003.03947 -13492294.97346  20267207.1954                   20267204.1604
   1152256.58248    951134.77345  21639834.0864                   21639833.0084
 11  8  2  3 13 30.0000000  0  7G26G02G12G10G29G05G25
  32934845.63745  25794055.74242  24311412.1884                   24311412.1024
 -34733142.77747 -27018217.75045  21365942.0234                   21365936.6134
 -16849487.48047 -13086327.92645  21152774.8674                   21152771.6564
 -17136572.71946 -13309887.00443  22856524.0554   22856521.4414   19111422.82046
                  14988702.86744  22943989.5004                   22943988.2624
 -17455472.65647 -13556557.00046  20251514.4454                   20251510.7504
   1045383.76647    867857.27745  21619496.4064                   21619495.4694
 11  8  2  3 14  0.0000000  0  7G26G02G12G10G29G05G25
  32749172.50446  25649375.48442  24276078.9534                   24276079.8444
 -34785781.08247 -27059234.59445  21355924.6484                   21355920.0234
 -16889373.90647 -13117408.25845  21145184.9064                   21145181.7274
 -17129519.72746 -13304391.15643  22857865.7274   22857863.2504   18939166.33246
                  14854477.07844  22911209.9844                   22911208.1804
 -17537367.28147 -13620370.97746  20235929.8594                   20235926.6954
    939104.16048    785042.01645  21599272.6724                   21599271.5554
 11  8  2  3 14 30.0000000  0  7G26G02G12G10G29G05G25
  32563467.82046  25504670.62542  24240741.8834                   24240742.0984
 -34838299.83247 -27100158.30145  21345931.4384                   21345926.2624
 -16928750.84447 -13148091.60245  21137691.5314                   21137688.3364
 -17122190.27047 -13298679.89843  22859260.8134   22859258.0944   18766962.46146
                  14720292.28944  22878440.8444                   22878438.7774
 -17618686.91447 -13683736.91446  20220455.2894                   20220452.0554
    833419.65248    702690.47745  21579161.4144                   21579160.6374
 11  8  2  3 15  0.0000000  0  7G26G02G12G10G29G05G25
  32377733.79346  25359942.84042  24205398.1484                   24205397.1764
 -34890700.28147 -27140989.82045  21335959.9224                   21335954.6024
 -16967620.95747 -13178380.00045  21130295.0084                   21130291.6724
 -17114587.83246 -13292755.95343  22860706.5634   22860704.3204   18594812.05546
                  14586149.14544  22845681.7894                   22845679.4064
 -17699432.79747 -13746655.77746  20205089.9844                   20205086.6954
    728329.70747    620802.23045  21559163.1884                   21559162.8094
 11  8  2  3 15 30.0000000  0  7G26G02G12G10G29G05G25
  32191971.35546  25215193.00042  24170048.3914                   24170047.8524
 -34942985.44147 -27181731.48845  21326010.4064                   21326005.3054
 -17005989.22347 -13208277.36345  21122993.4614                   21122990.3984
 -17106717.90246 -13286623.56643  22862205.2504   22862201.8404   18422714.30946
                  14452047.06344  22812932.9224                   22812930.8794
 -17779608.29347 -13809130.17646  20189832.6414                   20189829.1214
    623832.25447    539375.66445  21539278.2344                   21539277.4494
 11  8  2  3 16  0.0000000  0  7G26G02G12G10G29G05G25
  32006184.77745  25070424.29742  24134693.6804                   24134693.1764
 -34995154.10247 -27222382.39845  21316082.7814                   21316077.7274
 -17043856.39547 -13237784.26245  21115787.8134                   21115784.5164
 -17098582.17246 -13280284.05143  22863753.5394   22863750.3094   18250672.33246
                  14317988.42644  22780194.5784                   22780192.3714
 -17859213.02347 -13871159.81646  20174684.6174                   20174681.7304
    519928.92647    458412.05545  21519505.8594                   21519504.9654
 11  8  2  3 16 30.0000000  0  7G26G02G12G10G29G05G25
  31820375.71546  24925638.12542  24099336.1024                   24099335.1724
 -35047208.55547 -27262944.30545  21306177.2974                   21306172.4734
 -17081225.80547 -13266903.27745  21108676.6024                   21108673.3324
 -17090184.84446 -13273740.71143  22865351.1414   22865348.2114   18078685.99246
                  14183973.14144  22747465.3134                   22747464.2854
 -17938249.55147 -13932746.70746  20159644.3984                   20159641.3484
    416618.24648    377910.23045  21499846.7584                   21499845.7154
 11  8  2  3 17  0.0000000  0  7G26G02G12G10G29G05G25
  31634545.30546  24780835.30143  24063973.7424                   24063972.8714
 -35099151.11347 -27303419.01645  21296292.5864                   21296287.7734
 -17118101.21147 -13295637.36345  21101659.6094                   21101656.0864
 -17081530.68746 -13266997.19943  22866998.3444   22866995.4534   17906754.92246
                  14050000.88344  22714749.7194                   22714746.6994
 -18016720.97747 -13993893.27046  20144711.9144                   20144708.3554
    313898.64547    297869.01245  21480299.6334                   21480298.7034
 11  8  2  3 17 30.0000000  0  7G26G02G12G10G29G05G25
  33024124.46946  25863624.33642  24328402.3134                   24328400.8594
 -33575559.26247 -26116204.58645  21586222.9064                   21586217.3794
 -15579062.92247 -12096386.75845  21394528.7814                   21394525.4804
 -15497201.85546 -12032455.28943  23168485.3984   23168483.4964   19310307.69546
                  15143678.39144  22981835.8134                   22981833.9144
 -16519204.27347 -12826997.12546  20429679.7344                   20429676.2274
   1787194.90647   1445892.07845  21760658.6884                   21760657.8014
 11  8  2  3 18  0.0000000  0  7G26G02G12G10G29G05G25
  32838262.33246  25718796.77342  24293033.3754                   24293032.3014
 -33627278.39147 -26156505.19545  21576380.8594                   21576375.5084
 -15614956.59447 -12124355.85245  21387698.5554                   21387695.3954
 -15488042.05146 -12025317.79743  23170228.8524   23170226.0474   19138493.04346
                  15009796.90644  22949141.1334                   22949138.5984
 -16596547.55147 -12887264.59846  20414961.9774                   20414958.5044
   1685658.87547   1366773.10945  21741337.0944                   21741335.7934
 11  8  2  3 18 30.0000000  0  7G26G02G12G10G29G05G25
  32652389.31646  25573960.76243  24257662.9844                   24257661.2464
 -33678885.93047 -26196718.86345  21566559.9454                   21566554.9184
 -15650362.48447 -12151944.86345  21380960.4384                   21380957.5234
 -15478633.23446 -12017986.25843  23172018.8134   23172016.1914   18966739.25047
                  14875962.81644  22916457.4534                   22916455.1134
 -16673328.24248 -12947093.70346  20400351.3984                   20400348.1524
   1584715.10948   1288115.63745  21722127.5554                   21722127.2034
 11  8  2  3 19  0.0000000  0  7G26G02G12G10G29G05G25
  32466508.96946  25429119.04343  24222290.2344                   24222289.1374
 -33730382.09847 -26236845.73445  21556760.8134                   21556756.0474
 -15685282.56247 -12179155.32445  21374315.7814                   21374312.8634
 -15468978.27746 -12010462.92243  23173856.5164   23173853.4024   18795048.27347
                  14742177.67244  22883785.2894                   22883783.1994
 -16749547.39547 -13006485.23846  20385846.5634                   20385843.5744
   1484363.83647   1209919.84845  21703031.4924                   21703030.9924
 11  8  2  3 19 30.0000000  0  7G26G02G12G10G29G05G25
  32280622.09446  25284272.21543  24186916.6564                   24186916.3834
 -33781769.68747 -26276888.00445  21546982.0704                   21546976.9654
 -15719721.41847 -12205990.80945  21367762.0554                   21367759.2934
 -15459082.45346 -12002751.88343  23175739.3834   23175736.6094   18623419.11746
                  14608440.71144  22851125.8134                   22851123.1884
 -16825208.41047 -13065441.85946  20371448.8364                   20371445.8364
   1384602.76647   1132183.96545  21684047.7114                   21684046.9454
 11  8  2  3 20  0.0000000  0  7G26G02G12G10G29G05G25
  32094733.35946  25139423.93442  24151543.4144                   24151543.0594
 -33833047.81647 -26316844.97745  21537224.1804                   21537219.3524
 -15753679.66047 -12232451.78145  21361300.2114                   21361297.1024
 -15448946.82447 -11994853.99643  23177668.4144   23177665.7704   18451855.12146
                  14474754.52744  22818477.9384                   22818475.6374
 -16900310.92247 -13123963.29746  20357157.5704                   20357154.3014
   1285433.35947   1054909.10945  21665176.6884                   21665175.6914
 11  8  2  3 20 30.0000000  0  7G26G02G12G10G29G05G25
  31908843.92645  24994575.08643  24116170.2344                   24116169.3054
 -33884218.56247 -26356718.28545  21527486.8204                   21527481.9734
 -15787161.60247 -12258541.61345  21354928.3674                   21354925.5784
 -15438576.60246 -11986773.33643  23179641.6414   23179639.5274   18280355.95347
                  14341118.86744  22785843.0944                   22785840.6294
 -16974858.18747 -13182052.05946  20342971.9454                   20342968.3404
   1186853.88347    978093.94145  21646417.5004                   21646416.5234
 11  8  2  3 21  0.0000000  0  7G26G02G12G10G29G05G25
  31722960.48445  24849730.96942  24080797.6884                   24080797.0234
 -33935279.08647 -26396505.69145  21517769.9614                   21517765.0204
 -15820166.62147 -12284259.82045  21348648.3204                   21348645.0634
 -15427971.37546 -11978509.53943  23181659.3754   23181657.2854   18108926.41047
                  14207537.46944  22753220.9304                   22753218.7974
 -17048847.93047 -13239706.39146  20328891.9694                   20328888.4614
   1088867.43447    901740.87545  21627771.2424                   21627770.5234
 11  8  2  3 21 30.0000000  0  7G26G02G12G10G29G05G25
  31537086.12146  24704893.85543  24045427.4304                   24045425.9884
 -33986230.05947 -26436207.74245  21508074.7974                   21508069.3874
 -15852697.00447 -12309608.17645  21342457.5164                   21342454.1054
 -15417133.91446 -11970064.75443  23183722.4064   23183719.8594   17937567.94147
                  14074011.44944  22720612.3834                   22720609.9804
 -17122281.81647 -13296927.59446  20314917.6954                   20314914.5784
    991473.80547    825849.73845  21609238.2974                   21609236.9654
 11  8  2  3 22  0.0000000  0  7G26G02G12G10G29G05G25
  31351221.49646  24560064.35242  24010058.5314                   24010056.7814
 -34037074.17247 -26475826.52045  21498399.5554                   21498394.0124
 -15884757.08647 -12334590.07445  21336357.0944                   21336354.0594
 -15406069.54746 -11961443.18443  23185827.0634   23185825.3674   17766280.01646
                  13940540.40244  22688016.9304                   22688014.6804
 -17195163.41047 -13353718.44146  20301049.0474                   20301045.3554
    894670.68447    750418.75045  21590816.5164                   21590816.0824
 11  8  2  3 22 30.0000000  0  7G26G02G12G10G29G05G25
  31165371.43046  24415246.20343  23974692.0784                   23974690.8714
 -34087810.26647 -26515361.14545  21488744.5784                   21488739.3054
 -15916348.04747 -12359206.41045  21330345.3984                   21330342.5744
 -15394780.09846 -11952646.23443  23187976.8524   23187973.5434   17595065.59847
                  13807126.61744  22655436.1724                   22655433.9144
 -17267492.71547 -13410078.92246  20287285.3594                   20287281.8674
    798459.15247    675448.72745  21572508.4614                   21572507.9804
 11  8  2  3 23  0.0000000  0  7G26G02G12G10G29G05G25
  30979539.78146  24270442.42243  23939329.6024                   23939327.9414
 -34138438.10547 -26554811.40645  21479110.6484                   21479105.3524
 -15947471.95747 -12383458.82045  21324422.6724                   21324419.9494
 -15383267.70346 -11943675.54343  23190165.9224   23190163.6844   17423926.82847
                  13673771.79344  22622869.7034                   22622867.4844
 -17339270.26647 -13466009.47346  20273626.3594                   20273623.1954
    702839.68847    600940.05145  21554312.7034                   21554311.7974
 11  8  2  3 23 30.0000000  0  7G26G02G12G10G29G05G25
  30793729.29746  24125655.12143  23903970.9614                   23903969.3164
 -34188958.77747 -26594178.15645  21469496.3594                   21469491.1644
 -15978131.57847 -12407349.44545  21318588.8364                   21318585.3914
 -15371535.79346 -11934533.81243  23192398.7894   23192396.3284   17252865.13347
                  13540477.03544  22590316.8754                   22590315.4454
 -17410498.07047 -13521511.64546  20260072.2344                   20260068.9574
    607811.66047    526892.25445  21536229.5394                   21536228.5204
 11  8  2  3 24  0.0000000  0  7G26G02G12G10G29G05G25
  30607944.57846  23980887.84443  23868616.2504                   23868615.3244
 -34239371.35947 -26633460.69545  21459903.2894                   21459898.3984
 -16008327.88347 -12430879.03145  21312842.4924                   21312839.6024
 -15359585.64146 -11925222.03943  23194673.8444   23194671.0824   17081883.50447
                  13407244.66444  22557780.3444                   22557778.1334
 -17481175.93447 -13576585.30146  20246622.7194                   20246619.2074
    513376.20747    453306.18845  21518259.4064                   21518258.3524
 11  8  2  3 24 30.0000000  0  7G26G02G12G10G29G05G25
  30422187.43046  23836142.07443  23833268.6024                   23833266.8954
 -34289677.56247 -26672660.32845  21450330.2894                   21450325.3364
 -16038065.12947 -12454050.90645  21307183.1564                   21307180.6294
 -15347421.84846 -11915743.76643  23196988.0554   23196985.3054   16910981.86747
                  13274074.60944  22525259.1484                   22525256.8874
 -17551307.04747 -13631232.90646  20233277.4774                   20233273.4694
    419531.52748    380180.46945  21500400.8204                   21500399.9884
 11  8  2  3 25  0.0000000  0  7G26G02G12G10G29G05G25
  30236459.77346  23691419.32843  23797925.3444                   23797924.8834
 -34339878.97747 -26711778.32045  21440777.1564                   21440771.8794
 -16067346.76247 -12476867.77345  21301611.7344                   21301608.2814
 -15335048.65246 -11906102.34043  23199342.5554   23199340.5124   16740160.68847
                  13140967.24244  22492753.8134                   22492750.0824
 -17620894.14147 -13685456.59846  20220035.0784                   20220031.6294
    326276.03147    307513.86345  21482654.8594                   21482654.1884
 11  8  2  3 25 30.0000000  0  7G26G02G12G10G29G05G25
  30050766.92246  23546723.68443  23762589.4844                   23762587.9774
 -34389974.05947 -26750813.43745  21431244.3204                   21431239.6484
 -16096173.25047 -12499329.98045  21296125.7344                   21296122.7304
 -15322466.77746 -11896298.27043  23201736.9224   23201734.3054   16569423.48447
                  13007925.33644  22460262.9924                   22460260.0474
 -17689936.62548 -13739255.92246  20206896.7814                   20206893.1764
    233611.39147    235307.66445  21465021.6484                   21465020.3714
 11  8  2  3 26  0.0000000  0  7G26G02G12G10G29G05G25
  31440537.51646  24629661.87543  24027054.4924                   24027052.5204
 -32864542.34447 -25562165.35545  21721524.4614                   21721519.2774
 -14549127.14847 -11293839.53145  21590519.6024                   21590515.9774
 -13734260.19546 -10658734.70743  23503962.5554   23503959.8594   17974197.37147
                  14102554.40644  22727582.6334                   22727579.9534
 -16183014.49247 -12565030.87946  20493654.3364                   20493651.1564
   1716959.74247   1391163.53145  21747293.0634                   21747292.1884
 11  8  2  3 26 30.0000000  0  7G26G02G12G10G29G05G25
  31254925.08646  24485028.85943  23991733.1174                   23991731.3484
 -32914424.74647 -25601034.75445  21712032.0784                   21712026.7544
 -14577050.05947 -11315597.65645  21585205.5314                   21585202.4384
 -13721268.72346 -10648611.49643  23506434.9064   23506431.7234   17803634.87947
                  13969648.61744  22695124.8524                   22695122.3714
 -16250971.30148 -12617984.22346  20480722.5004                   20480719.1254
   1625477.00847   1319878.29745  21729884.7734                   21729883.7544
 11  8  2  3 27  0.0000000  0  7G26G02G12G10G29G05G25
  31069358.29346  24340431.44543  23956421.1644                   23956418.9414
 -32964200.80947 -25639821.30945  21702560.6254                   21702555.2034
 -14604524.46147 -11337006.28545  21579977.3914                   21579974.1024
 -13708076.02346 -10638331.47343  23508945.1644   23508942.8914   17633162.69547
                  13836813.19544  22662685.3284                   22662682.8954
 -16318387.09448 -12670516.00046  20467893.9844                   20467890.3874
   1534585.15247   1249053.49245  21712588.7664                   21712587.8874
 11  8  2  3 27 30.0000000  0  7G26G02G12G10G29G05G25
  30883837.87946  24195870.15643  23921117.0394                   23921115.8714
 -33013873.34447 -25678527.17645  21693108.1884                   21693102.9964
 -14631555.36347 -11358069.34445  21574833.7034                   21574830.4804
 -13694687.49646 -10627898.88343  23511492.9144   23511490.4964   17462780.12947
                  13704047.60944  22630262.6954                   22630260.2274
 -16385265.75847 -12722629.23046  20455167.3524                   20455163.6094
   1444281.18847   1178686.78545  21695404.1724                   21695403.3484
 11  8  2  3 28  0.0000000  0  7G26G02G12G10G29G05G25
  30698370.55946  24051350.29343  23885824.0234                   23885821.7274
 -33063439.28147 -25717149.98845  21683675.9924                   21683670.5234
 -14658141.91047 -11378786.14145  21569774.3524                   21569771.3914
 -13681103.08246 -10617313.63343  23514078.1094   23514076.0354   17292491.92647
                  13571355.56644  22597857.8134                   22597855.1024
 -16451605.75447 -12774322.71946  20442542.9694                   20442539.8954
   1354567.91847   1108780.34445  21678332.6954                   21678331.5744
 11  8  2  3 28 30.0000000  0  7G26G02G12G10G29G05G25
  30512958.58646  23906873.48443  23850541.5864                   23850539.5164
 -33112900.27747 -25755691.03145  21674263.9144                   21674258.6414
 -14684288.31647 -11399159.97345  21564798.8054                   21564795.7304
 -13667326.54746 -10606578.67643  23516700.2734   23516696.9224   17122298.92647
                  13438737.69144  22565471.1804                   22565468.5664
 -16517409.40647 -12825598.28146  20430020.9614                   20430017.6454
   1265443.87147   1039333.05145  21661372.9144                   21661371.9454
 11  8  2  3 29  0.0000000  0  7G26G02G12G10G29G05G25
  30327603.47446  23762441.01443  23815269.1804                   23815267.5784
 -33162258.86747 -25794152.27745  21664871.0004                   21664865.9184
 -14709998.73047 -11419194.07045  21559906.1884                   21559902.9384
 -13653362.68446 -10595697.76643  23519357.3204   23519354.0164   16952200.83647
                  13306193.77344  22533102.4924                   22533100.3794
 -16582680.50447 -12876458.85246  20417600.4774                   20417596.8554
   1176906.60247    970342.98045  21644524.7274                   21644523.6414
 11  8  2  3 29 30.0000000  0  7G26G02G12G10G29G05G25
  30142309.27046  23618056.00043  23780009.8594                   23780007.4654
 -33211514.00847 -25832532.93045  21655498.2974                   21655493.5204
 -14735274.52047 -11438889.49645  21555096.3284                   21555093.4574
 -13639213.29746 -10584672.32043  23522049.6484   23522046.5044   16782200.61347
                  13173726.11744  22500752.4694                   22500749.8014
 -16647419.45747 -12926904.77746  20405280.8984                   20405277.6374
   1088956.57047    901810.49245  21627788.0314                   21627787.6214
 11  8  2  3 30  0.0000000  0  7G26G02G12G10G29G05G25
  29957079.19946  23473720.94543  23744760.2344                   23744758.1564
 -33260666.12547 -25870833.26645  21646144.3674                   21646139.6804
 -14760118.94147 -11458248.80945  21550368.5944                   21550365.7424
 -13624881.53146 -10573504.66443  23524776.3364   23524773.7734   16612299.55547
                  13041335.71945  22468420.7584                   22468418.8444
 -16711628.31247 -12976937.64146  20393062.3284                   20393058.7424
   1001592.96147    833734.97745  21611163.6334                   21611162.4534
 11  8  2  3 30 30.0000000  0  7G26G02G12G10G29G05G25
  29771918.75046  23329440.10243  23709525.7034                   23709523.7504
 -33309713.45347 -25909051.96945  21636811.3914                   21636806.3834
 -14784532.47347 -11477272.36345  21545723.3834                   21545720.0164
 -13610368.07846 -10562195.52043  23527538.1094   23527536.2894   16442501.53947
                  12909025.62544  22436109.7424                   22436107.1174
 -16775306.79347 -13026557.21946  20380944.4614                   20380941.5124
    914817.32447    766117.60945  21594650.4694                   21594649.5124
 11  8  2  3 31  0.0000000  0  7G26G02G12G10G29G05G25
  29586828.32046  23185213.86743  23674303.5634                   23674302.2304
 -33358659.44147 -25947191.68445  21627497.2344                   21627492.3874
 -14808521.31247 -11495964.97745  21541157.6564                   21541154.9884
 -13595678.89546 -10550749.42643  23530334.2504   23530331.6134   16272805.22347
                  12776794.78545  22403817.4694                   22403815.1764
 -16838459.63347 -13075767.21946  20368927.1174                   20368923.5824
    828625.87147    698955.43845  21578248.9144                   21578247.6254
 11  8  2  3 31 30.0000000  0  7G26G02G12G10G29G05G25
  29401811.88746  23041045.26243  23639096.9454                   23639094.6054
 -33407503.60547 -25985252.07445  21618202.5394                   21618197.5984
 -14832086.64847 -11514327.59845  21536673.4774                   21536670.7974
 -13580815.93746 -10539167.93043  23533162.3444   23533159.8324   16103213.59447
                  12644645.51244  22371545.4534                   22371542.6564
 -16901087.56247 -13124568.17646  20357009.4224                   20357006.2424
    743018.87947    632248.69545  21561958.4694                   21561957.2234
 11  8  2  3 32  0.0000000  0  8G26G02G12G10G29G15G05G25
  29216874.30546  22896938.12943  23603902.8984                   23603902.1524
 -33456244.84847 -26023232.27345  21608927.5474                   21608921.7934
 -14855229.91047 -11532361.32445  21532269.7114                   21532266.7194
 -13565780.68446 -10527452.14543  23536023.1954   23536020.8914   15933729.54347
                  12512580.07445  22339293.3284                   22339291.3794
  40691831.03555  31827956.30152  24554945.8594                   24554944.8834
 -16963190.78947 -13172960.28546  20345191.7344                   20345188.6214
    657997.05947    565997.93445  21545779.1724                   21545778.5664
 11  8  2  3 32 30.0000000  0  8G26G02G12G10G29G15G05G25
  29032018.27746  22752894.55143  23568726.9224                   23568725.0234
 -33504884.08247 -26061132.96945  21599671.4844                   21599666.4184
 -14877954.42647 -11550068.74645  21527945.2344                   21527942.3204
 -13550576.65646 -10515604.88743  23538915.8674   23538913.9804   15764354.19547
                  12380599.34844  22307062.6254                   22307060.0274
  40508268.35945  31684920.58642  24520014.8594                   24520013.7114
 -17024771.80947 -13220945.48046  20333473.1564                   20333469.9534
    573559.13347    500202.14545  21529711.2034                   21529710.2464
